<?xml version="1.0" encoding="UTF-8" standalone="no" ?>
<gpx xmlns="http://www.topografix.com/GPX/1/1" xmlns:xsi="http://www.w3.org/2001/XMLSchema-instance" xsi:schemaLocation="http://www.topografix.com/GPX/1/1 http://www.topografix.com/GPX/1/1/gpx.xsd" version="1.1" creator="VisuGPX - https://www.visugpx.com">
  <metadata>
    <name>VTTdu lundi 17 septembre (seul depuis Coulevon)</name>
    <desc><![CDATA[VTTdu lundi 17 septembre (seul depuis Coulevon)]]></desc>
  </metadata>
  <wpt lat="47.64437" lon="6.18298">
    <ele>233.8</ele>
    <name><![CDATA[0000032]]></name>
    <type><![CDATA[Point de départ]]></type>
  </wpt>
  <wpt lat="47.64437" lon="6.18298">
    <ele>233.8</ele>
    <name><![CDATA[0000032]]></name>
    <type><![CDATA[Point de départ]]></type>
  </wpt>
  <wpt lat="47.64432" lon="6.18323">
    <ele>235.7</ele>
    <name><![CDATA[0000034]]></name>
    <desc><![CDATA[<p><br /><h3>Nom: Segment: 1</h3><br />Heure de départ: 09/17/2018 14:55<br/>Heure d'arrivée: 09/17/2018 17:04<br/>Distance: 14,2km (02:08)<br/>Temps déplacement: 01:32<br/>Vitesse moyenne: 6,61 km/h<br/>Vitesse moyenne mouv.: 9,25 km/h<br/>Vitesse Max.: 34,46 km/h<br/>Altitude minimale: -49 m<br/>Altitude maximale: 299 m<br/>Vitesse de montée: 179,6 m/h<br/>Vitesse de descente: -128 m/h<br/>Gain d'altitude: 81 m<br/>Perte d'altitude: -83 m<br/>Temps de montée: 00:27<br/>Temps de descente: 00:38<br/></p>]]></desc>
    <type><![CDATA[Point d'arrivée]]></type>
  </wpt>
  <trk>
    <name><![CDATA[2018-09-17 14:55]]></name>
    <desc><![CDATA[<p>Heure de départ: 09/17/2018 14:55<br/>Heure d'arrivée: 09/17/2018 17:04<br/>Distance: 14,2 km (02:08)<br/>Temps déplacement: 01:32<br/>Vitesse moyenne: 6,61 km/h<br/>Vitesse moyenne mouv.: 9,26 km/h<br/>Vitesse Max.: 34,46 km/h<br/>Altitude minimale: -49 m<br/>Altitude maximale: 299 m<br/>Vitesse de montée: 63,9 m/h<br/>Vitesse de descente: -126,4 m/h<br/>Gain d'altitude: 85 m<br/>Perte d'altitude: -82 m<br/>Temps de montée: 01:19<br/>Temps de descente: 00:39<br/></p><hr align="center" width="480" style="height: 2px; width: 517px"/>]]></desc>
    <trkseg>
      <trkpt lat="47.64437" lon="6.18298">
        <ele>233.8</ele>
        <time>2018-09-17T12:55:19Z</time>
      </trkpt>
      <trkpt lat="47.64432" lon="6.18295">
        <ele>233.74</ele>
        <time>2018-09-17T12:55:25Z</time>
      </trkpt>
      <trkpt lat="47.64428" lon="6.18288">
        <ele>233.68</ele>
        <time>2018-09-17T12:55:28Z</time>
      </trkpt>
      <trkpt lat="47.64425" lon="6.18282">
        <ele>233.64</ele>
        <time>2018-09-17T12:55:30Z</time>
      </trkpt>
      <trkpt lat="47.64424" lon="6.18276">
        <ele>233.59</ele>
        <time>2018-09-17T12:55:32Z</time>
      </trkpt>
      <trkpt lat="47.64418" lon="6.18275">
        <ele>233.52</ele>
        <time>2018-09-17T12:55:35Z</time>
      </trkpt>
      <trkpt lat="47.64418" lon="6.18283">
        <ele>233.44</ele>
        <time>2018-09-17T12:55:38Z</time>
      </trkpt>
      <trkpt lat="47.64421" lon="6.1829">
        <ele>233.37</ele>
        <time>2018-09-17T12:55:40Z</time>
      </trkpt>
      <trkpt lat="47.64426" lon="6.18296">
        <ele>233.29</ele>
        <time>2018-09-17T12:55:42Z</time>
      </trkpt>
      <trkpt lat="47.64431" lon="6.183">
        <ele>233.22</ele>
        <time>2018-09-17T12:55:44Z</time>
      </trkpt>
      <trkpt lat="47.64438" lon="6.18303">
        <ele>233.16</ele>
        <time>2018-09-17T12:55:46Z</time>
      </trkpt>
      <trkpt lat="47.64442" lon="6.183">
        <ele>233.1</ele>
        <time>2018-09-17T12:55:48Z</time>
      </trkpt>
      <trkpt lat="47.64447" lon="6.18296">
        <ele>233.05</ele>
        <time>2018-09-17T12:55:50Z</time>
      </trkpt>
      <trkpt lat="47.6445" lon="6.18292">
        <ele>232.98</ele>
        <time>2018-09-17T12:55:52Z</time>
      </trkpt>
      <trkpt lat="47.64454" lon="6.18288">
        <ele>232.92</ele>
        <time>2018-09-17T12:55:54Z</time>
      </trkpt>
      <trkpt lat="47.64457" lon="6.18283">
        <ele>232.86</ele>
        <time>2018-09-17T12:55:56Z</time>
      </trkpt>
      <trkpt lat="47.6446" lon="6.18278">
        <ele>232.8</ele>
        <time>2018-09-17T12:55:58Z</time>
      </trkpt>
      <trkpt lat="47.64465" lon="6.18272">
        <ele>232.74</ele>
        <time>2018-09-17T12:56:00Z</time>
      </trkpt>
      <trkpt lat="47.6447" lon="6.18266">
        <ele>232.52</ele>
        <time>2018-09-17T12:56:02Z</time>
      </trkpt>
      <trkpt lat="47.64474" lon="6.18259">
        <ele>232.11</ele>
        <time>2018-09-17T12:56:04Z</time>
      </trkpt>
      <trkpt lat="47.64479" lon="6.1825">
        <ele>231.79</ele>
        <time>2018-09-17T12:56:06Z</time>
      </trkpt>
      <trkpt lat="47.64483" lon="6.18239">
        <ele>231.62</ele>
        <time>2018-09-17T12:56:08Z</time>
      </trkpt>
      <trkpt lat="47.64488" lon="6.18229">
        <ele>231.59</ele>
        <time>2018-09-17T12:56:10Z</time>
      </trkpt>
      <trkpt lat="47.64491" lon="6.1822">
        <ele>231.57</ele>
        <time>2018-09-17T12:56:12Z</time>
      </trkpt>
      <trkpt lat="47.64494" lon="6.18211">
        <ele>231.55</ele>
        <time>2018-09-17T12:56:14Z</time>
      </trkpt>
      <trkpt lat="47.64496" lon="6.18201">
        <ele>231.39</ele>
        <time>2018-09-17T12:56:16Z</time>
      </trkpt>
      <trkpt lat="47.64499" lon="6.1819">
        <ele>231.26</ele>
        <time>2018-09-17T12:56:18Z</time>
      </trkpt>
      <trkpt lat="47.64498" lon="6.18167">
        <ele>231.15</ele>
        <time>2018-09-17T12:56:20Z</time>
      </trkpt>
      <trkpt lat="47.64494" lon="6.18155">
        <ele>231.06</ele>
        <time>2018-09-17T12:56:22Z</time>
      </trkpt>
      <trkpt lat="47.64491" lon="6.18143">
        <ele>230.99</ele>
        <time>2018-09-17T12:56:24Z</time>
      </trkpt>
      <trkpt lat="47.64492" lon="6.18132">
        <ele>230.96</ele>
        <time>2018-09-17T12:56:26Z</time>
      </trkpt>
      <trkpt lat="47.64493" lon="6.18121">
        <ele>230.95</ele>
        <time>2018-09-17T12:56:28Z</time>
      </trkpt>
      <trkpt lat="47.64494" lon="6.18111">
        <ele>230.94</ele>
        <time>2018-09-17T12:56:30Z</time>
      </trkpt>
      <trkpt lat="47.64497" lon="6.18101">
        <ele>230.94</ele>
        <time>2018-09-17T12:56:32Z</time>
      </trkpt>
      <trkpt lat="47.64499" lon="6.18092">
        <ele>230.93</ele>
        <time>2018-09-17T12:56:35Z</time>
      </trkpt>
      <trkpt lat="47.64501" lon="6.18085">
        <ele>230.94</ele>
        <time>2018-09-17T12:56:37Z</time>
      </trkpt>
      <trkpt lat="47.64503" lon="6.18077">
        <ele>230.94</ele>
        <time>2018-09-17T12:56:39Z</time>
      </trkpt>
      <trkpt lat="47.64505" lon="6.1807">
        <ele>230.94</ele>
        <time>2018-09-17T12:56:41Z</time>
      </trkpt>
      <trkpt lat="47.64507" lon="6.18063">
        <ele>230.94</ele>
        <time>2018-09-17T12:56:43Z</time>
      </trkpt>
      <trkpt lat="47.64509" lon="6.18057">
        <ele>230.94</ele>
        <time>2018-09-17T12:56:45Z</time>
      </trkpt>
      <trkpt lat="47.64513" lon="6.1805">
        <ele>230.94</ele>
        <time>2018-09-17T12:56:47Z</time>
      </trkpt>
      <trkpt lat="47.64517" lon="6.18044">
        <ele>230.93</ele>
        <time>2018-09-17T12:56:49Z</time>
      </trkpt>
      <trkpt lat="47.64521" lon="6.18039">
        <ele>230.93</ele>
        <time>2018-09-17T12:56:51Z</time>
      </trkpt>
      <trkpt lat="47.64525" lon="6.18034">
        <ele>230.93</ele>
        <time>2018-09-17T12:56:53Z</time>
      </trkpt>
      <trkpt lat="47.64529" lon="6.18029">
        <ele>230.92</ele>
        <time>2018-09-17T12:56:56Z</time>
      </trkpt>
      <trkpt lat="47.64533" lon="6.18023">
        <ele>230.91</ele>
        <time>2018-09-17T12:56:59Z</time>
      </trkpt>
      <trkpt lat="47.64537" lon="6.18017">
        <ele>230.9</ele>
        <time>2018-09-17T12:57:02Z</time>
      </trkpt>
      <trkpt lat="47.64541" lon="6.18009">
        <ele>230.88</ele>
        <time>2018-09-17T12:57:05Z</time>
      </trkpt>
      <trkpt lat="47.64543" lon="6.18003">
        <ele>230.88</ele>
        <time>2018-09-17T12:57:07Z</time>
      </trkpt>
      <trkpt lat="47.64546" lon="6.17995">
        <ele>230.87</ele>
        <time>2018-09-17T12:57:09Z</time>
      </trkpt>
      <trkpt lat="47.64548" lon="6.17987">
        <ele>230.87</ele>
        <time>2018-09-17T12:57:11Z</time>
      </trkpt>
      <trkpt lat="47.64551" lon="6.17977">
        <ele>230.82</ele>
        <time>2018-09-17T12:57:13Z</time>
      </trkpt>
      <trkpt lat="47.64554" lon="6.17965">
        <ele>230.78</ele>
        <time>2018-09-17T12:57:15Z</time>
      </trkpt>
      <trkpt lat="47.64557" lon="6.17952">
        <ele>230.76</ele>
        <time>2018-09-17T12:57:17Z</time>
      </trkpt>
      <trkpt lat="47.64561" lon="6.17933">
        <ele>230.74</ele>
        <time>2018-09-17T12:57:18Z</time>
      </trkpt>
      <trkpt lat="47.64564" lon="6.17927">
        <ele>230.73</ele>
        <time>2018-09-17T12:57:19Z</time>
      </trkpt>
      <trkpt lat="47.64568" lon="6.17921">
        <ele>230.72</ele>
        <time>2018-09-17T12:57:20Z</time>
      </trkpt>
      <trkpt lat="47.64572" lon="6.17916">
        <ele>230.7</ele>
        <time>2018-09-17T12:57:21Z</time>
      </trkpt>
      <trkpt lat="47.64577" lon="6.1791">
        <ele>230.69</ele>
        <time>2018-09-17T12:57:22Z</time>
      </trkpt>
      <trkpt lat="47.64582" lon="6.17905">
        <ele>230.67</ele>
        <time>2018-09-17T12:57:23Z</time>
      </trkpt>
      <trkpt lat="47.64587" lon="6.179">
        <ele>230.65</ele>
        <time>2018-09-17T12:57:24Z</time>
      </trkpt>
      <trkpt lat="47.64592" lon="6.17895">
        <ele>230.62</ele>
        <time>2018-09-17T12:57:25Z</time>
      </trkpt>
      <trkpt lat="47.64597" lon="6.17891">
        <ele>230.6</ele>
        <time>2018-09-17T12:57:26Z</time>
      </trkpt>
      <trkpt lat="47.64603" lon="6.17888">
        <ele>230.57</ele>
        <time>2018-09-17T12:57:27Z</time>
      </trkpt>
      <trkpt lat="47.64608" lon="6.17886">
        <ele>230.55</ele>
        <time>2018-09-17T12:57:28Z</time>
      </trkpt>
      <trkpt lat="47.64614" lon="6.17884">
        <ele>230.53</ele>
        <time>2018-09-17T12:57:29Z</time>
      </trkpt>
      <trkpt lat="47.6462" lon="6.17884">
        <ele>230.51</ele>
        <time>2018-09-17T12:57:30Z</time>
      </trkpt>
      <trkpt lat="47.64625" lon="6.17885">
        <ele>230.49</ele>
        <time>2018-09-17T12:57:31Z</time>
      </trkpt>
      <trkpt lat="47.64631" lon="6.17886">
        <ele>230.47</ele>
        <time>2018-09-17T12:57:32Z</time>
      </trkpt>
      <trkpt lat="47.64636" lon="6.17889">
        <ele>230.45</ele>
        <time>2018-09-17T12:57:33Z</time>
      </trkpt>
      <trkpt lat="47.64642" lon="6.17892">
        <ele>230.43</ele>
        <time>2018-09-17T12:57:34Z</time>
      </trkpt>
      <trkpt lat="47.64647" lon="6.17895">
        <ele>230.4</ele>
        <time>2018-09-17T12:57:35Z</time>
      </trkpt>
      <trkpt lat="47.64652" lon="6.17898">
        <ele>230.36</ele>
        <time>2018-09-17T12:57:36Z</time>
      </trkpt>
      <trkpt lat="47.64656" lon="6.17901">
        <ele>230.31</ele>
        <time>2018-09-17T12:57:37Z</time>
      </trkpt>
      <trkpt lat="47.64661" lon="6.17904">
        <ele>230.27</ele>
        <time>2018-09-17T12:57:38Z</time>
      </trkpt>
      <trkpt lat="47.64665" lon="6.17907">
        <ele>230.22</ele>
        <time>2018-09-17T12:57:39Z</time>
      </trkpt>
      <trkpt lat="47.6467" lon="6.1791">
        <ele>230.17</ele>
        <time>2018-09-17T12:57:40Z</time>
      </trkpt>
      <trkpt lat="47.64674" lon="6.17913">
        <ele>230.12</ele>
        <time>2018-09-17T12:57:41Z</time>
      </trkpt>
      <trkpt lat="47.64678" lon="6.17917">
        <ele>230.07</ele>
        <time>2018-09-17T12:57:42Z</time>
      </trkpt>
      <trkpt lat="47.64682" lon="6.17921">
        <ele>230.02</ele>
        <time>2018-09-17T12:57:43Z</time>
      </trkpt>
      <trkpt lat="47.64686" lon="6.17925">
        <ele>229.97</ele>
        <time>2018-09-17T12:57:44Z</time>
      </trkpt>
      <trkpt lat="47.64689" lon="6.1793">
        <ele>229.92</ele>
        <time>2018-09-17T12:57:45Z</time>
      </trkpt>
      <trkpt lat="47.64693" lon="6.17934">
        <ele>229.87</ele>
        <time>2018-09-17T12:57:46Z</time>
      </trkpt>
      <trkpt lat="47.64696" lon="6.17939">
        <ele>229.82</ele>
        <time>2018-09-17T12:57:47Z</time>
      </trkpt>
      <trkpt lat="47.64702" lon="6.17948">
        <ele>229.74</ele>
        <time>2018-09-17T12:57:49Z</time>
      </trkpt>
      <trkpt lat="47.64708" lon="6.17957">
        <ele>229.64</ele>
        <time>2018-09-17T12:57:51Z</time>
      </trkpt>
      <trkpt lat="47.64711" lon="6.17962">
        <ele>229.59</ele>
        <time>2018-09-17T12:57:52Z</time>
      </trkpt>
      <trkpt lat="47.64714" lon="6.17968">
        <ele>229.55</ele>
        <time>2018-09-17T12:57:53Z</time>
      </trkpt>
      <trkpt lat="47.64718" lon="6.17973">
        <ele>229.51</ele>
        <time>2018-09-17T12:57:54Z</time>
      </trkpt>
      <trkpt lat="47.64721" lon="6.17978">
        <ele>229.48</ele>
        <time>2018-09-17T12:57:55Z</time>
      </trkpt>
      <trkpt lat="47.64724" lon="6.17983">
        <ele>229.45</ele>
        <time>2018-09-17T12:57:56Z</time>
      </trkpt>
      <trkpt lat="47.6473" lon="6.17993">
        <ele>229.4</ele>
        <time>2018-09-17T12:57:58Z</time>
      </trkpt>
      <trkpt lat="47.64733" lon="6.17999">
        <ele>229.38</ele>
        <time>2018-09-17T12:57:59Z</time>
      </trkpt>
      <trkpt lat="47.64739" lon="6.18007">
        <ele>229.34</ele>
        <time>2018-09-17T12:58:01Z</time>
      </trkpt>
      <trkpt lat="47.64745" lon="6.18017">
        <ele>229.3</ele>
        <time>2018-09-17T12:58:03Z</time>
      </trkpt>
      <trkpt lat="47.64748" lon="6.18022">
        <ele>229.28</ele>
        <time>2018-09-17T12:58:04Z</time>
      </trkpt>
      <trkpt lat="47.64754" lon="6.18032">
        <ele>229.24</ele>
        <time>2018-09-17T12:58:06Z</time>
      </trkpt>
      <trkpt lat="47.64758" lon="6.18036">
        <ele>229.23</ele>
        <time>2018-09-17T12:58:07Z</time>
      </trkpt>
      <trkpt lat="47.64761" lon="6.18041">
        <ele>229.21</ele>
        <time>2018-09-17T12:58:08Z</time>
      </trkpt>
      <trkpt lat="47.64764" lon="6.18046">
        <ele>229.19</ele>
        <time>2018-09-17T12:58:09Z</time>
      </trkpt>
      <trkpt lat="47.64768" lon="6.1805">
        <ele>229.17</ele>
        <time>2018-09-17T12:58:10Z</time>
      </trkpt>
      <trkpt lat="47.64772" lon="6.18054">
        <ele>229.16</ele>
        <time>2018-09-17T12:58:11Z</time>
      </trkpt>
      <trkpt lat="47.64776" lon="6.18057">
        <ele>229.14</ele>
        <time>2018-09-17T12:58:12Z</time>
      </trkpt>
      <trkpt lat="47.6478" lon="6.18061">
        <ele>229.13</ele>
        <time>2018-09-17T12:58:13Z</time>
      </trkpt>
      <trkpt lat="47.64788" lon="6.18065">
        <ele>229.09</ele>
        <time>2018-09-17T12:58:15Z</time>
      </trkpt>
      <trkpt lat="47.64793" lon="6.18067">
        <ele>229.08</ele>
        <time>2018-09-17T12:58:16Z</time>
      </trkpt>
      <trkpt lat="47.64797" lon="6.18069">
        <ele>229.06</ele>
        <time>2018-09-17T12:58:17Z</time>
      </trkpt>
      <trkpt lat="47.64802" lon="6.1807">
        <ele>229.04</ele>
        <time>2018-09-17T12:58:18Z</time>
      </trkpt>
      <trkpt lat="47.6481" lon="6.18073">
        <ele>229</ele>
        <time>2018-09-17T12:58:20Z</time>
      </trkpt>
      <trkpt lat="47.64818" lon="6.18075">
        <ele>228.96</ele>
        <time>2018-09-17T12:58:22Z</time>
      </trkpt>
      <trkpt lat="47.64826" lon="6.18076">
        <ele>228.91</ele>
        <time>2018-09-17T12:58:24Z</time>
      </trkpt>
      <trkpt lat="47.64833" lon="6.18077">
        <ele>228.89</ele>
        <time>2018-09-17T12:58:26Z</time>
      </trkpt>
      <trkpt lat="47.64839" lon="6.18078">
        <ele>228.88</ele>
        <time>2018-09-17T12:58:28Z</time>
      </trkpt>
      <trkpt lat="47.64846" lon="6.18079">
        <ele>228.87</ele>
        <time>2018-09-17T12:58:30Z</time>
      </trkpt>
      <trkpt lat="47.64852" lon="6.1808">
        <ele>228.85</ele>
        <time>2018-09-17T12:58:32Z</time>
      </trkpt>
      <trkpt lat="47.64859" lon="6.18082">
        <ele>228.84</ele>
        <time>2018-09-17T12:58:34Z</time>
      </trkpt>
      <trkpt lat="47.64866" lon="6.18084">
        <ele>228.72</ele>
        <time>2018-09-17T12:58:36Z</time>
      </trkpt>
      <trkpt lat="47.64874" lon="6.18086">
        <ele>228.54</ele>
        <time>2018-09-17T12:58:38Z</time>
      </trkpt>
      <trkpt lat="47.64883" lon="6.18088">
        <ele>228.38</ele>
        <time>2018-09-17T12:58:40Z</time>
      </trkpt>
      <trkpt lat="47.64892" lon="6.18089">
        <ele>228.25</ele>
        <time>2018-09-17T12:58:42Z</time>
      </trkpt>
      <trkpt lat="47.649" lon="6.18091">
        <ele>228.15</ele>
        <time>2018-09-17T12:58:44Z</time>
      </trkpt>
      <trkpt lat="47.64905" lon="6.18092">
        <ele>228.11</ele>
        <time>2018-09-17T12:58:45Z</time>
      </trkpt>
      <trkpt lat="47.64913" lon="6.18094">
        <ele>228.03</ele>
        <time>2018-09-17T12:58:47Z</time>
      </trkpt>
      <trkpt lat="47.64922" lon="6.18096">
        <ele>227.98</ele>
        <time>2018-09-17T12:58:49Z</time>
      </trkpt>
      <trkpt lat="47.6493" lon="6.18098">
        <ele>227.94</ele>
        <time>2018-09-17T12:58:51Z</time>
      </trkpt>
      <trkpt lat="47.64937" lon="6.181">
        <ele>227.91</ele>
        <time>2018-09-17T12:58:53Z</time>
      </trkpt>
      <trkpt lat="47.64944" lon="6.18101">
        <ele>227.9</ele>
        <time>2018-09-17T12:58:55Z</time>
      </trkpt>
      <trkpt lat="47.64952" lon="6.18101">
        <ele>227.9</ele>
        <time>2018-09-17T12:58:57Z</time>
      </trkpt>
      <trkpt lat="47.6496" lon="6.18101">
        <ele>227.89</ele>
        <time>2018-09-17T12:58:59Z</time>
      </trkpt>
      <trkpt lat="47.64967" lon="6.181">
        <ele>227.89</ele>
        <time>2018-09-17T12:59:01Z</time>
      </trkpt>
      <trkpt lat="47.64976" lon="6.18099">
        <ele>227.89</ele>
        <time>2018-09-17T12:59:03Z</time>
      </trkpt>
      <trkpt lat="47.64984" lon="6.18097">
        <ele>227.89</ele>
        <time>2018-09-17T12:59:05Z</time>
      </trkpt>
      <trkpt lat="47.64989" lon="6.18097">
        <ele>227.88</ele>
        <time>2018-09-17T12:59:06Z</time>
      </trkpt>
      <trkpt lat="47.64997" lon="6.18096">
        <ele>227.88</ele>
        <time>2018-09-17T12:59:08Z</time>
      </trkpt>
      <trkpt lat="47.65006" lon="6.18096">
        <ele>227.88</ele>
        <time>2018-09-17T12:59:10Z</time>
      </trkpt>
      <trkpt lat="47.65014" lon="6.18096">
        <ele>227.88</ele>
        <time>2018-09-17T12:59:12Z</time>
      </trkpt>
      <trkpt lat="47.65022" lon="6.18096">
        <ele>227.88</ele>
        <time>2018-09-17T12:59:14Z</time>
      </trkpt>
      <trkpt lat="47.6503" lon="6.18096">
        <ele>227.88</ele>
        <time>2018-09-17T12:59:16Z</time>
      </trkpt>
      <trkpt lat="47.65038" lon="6.18096">
        <ele>227.88</ele>
        <time>2018-09-17T12:59:18Z</time>
      </trkpt>
      <trkpt lat="47.65046" lon="6.18098">
        <ele>227.88</ele>
        <time>2018-09-17T12:59:20Z</time>
      </trkpt>
      <trkpt lat="47.65054" lon="6.181">
        <ele>227.88</ele>
        <time>2018-09-17T12:59:22Z</time>
      </trkpt>
      <trkpt lat="47.65062" lon="6.18101">
        <ele>227.89</ele>
        <time>2018-09-17T12:59:24Z</time>
      </trkpt>
      <trkpt lat="47.65071" lon="6.18104">
        <ele>227.88</ele>
        <time>2018-09-17T12:59:26Z</time>
      </trkpt>
      <trkpt lat="47.65075" lon="6.18105">
        <ele>227.87</ele>
        <time>2018-09-17T12:59:27Z</time>
      </trkpt>
      <trkpt lat="47.6508" lon="6.18106">
        <ele>227.86</ele>
        <time>2018-09-17T12:59:28Z</time>
      </trkpt>
      <trkpt lat="47.65085" lon="6.18107">
        <ele>227.85</ele>
        <time>2018-09-17T12:59:29Z</time>
      </trkpt>
      <trkpt lat="47.65093" lon="6.18107">
        <ele>227.82</ele>
        <time>2018-09-17T12:59:31Z</time>
      </trkpt>
      <trkpt lat="47.65098" lon="6.18107">
        <ele>227.8</ele>
        <time>2018-09-17T12:59:32Z</time>
      </trkpt>
      <trkpt lat="47.65103" lon="6.18106">
        <ele>227.79</ele>
        <time>2018-09-17T12:59:33Z</time>
      </trkpt>
      <trkpt lat="47.65107" lon="6.18105">
        <ele>227.78</ele>
        <time>2018-09-17T12:59:34Z</time>
      </trkpt>
      <trkpt lat="47.65115" lon="6.18101">
        <ele>227.76</ele>
        <time>2018-09-17T12:59:36Z</time>
      </trkpt>
      <trkpt lat="47.65124" lon="6.18096">
        <ele>227.74</ele>
        <time>2018-09-17T12:59:38Z</time>
      </trkpt>
      <trkpt lat="47.65128" lon="6.18093">
        <ele>227.73</ele>
        <time>2018-09-17T12:59:39Z</time>
      </trkpt>
      <trkpt lat="47.65133" lon="6.1809">
        <ele>227.73</ele>
        <time>2018-09-17T12:59:40Z</time>
      </trkpt>
      <trkpt lat="47.65137" lon="6.18087">
        <ele>227.72</ele>
        <time>2018-09-17T12:59:41Z</time>
      </trkpt>
      <trkpt lat="47.65141" lon="6.18083">
        <ele>227.72</ele>
        <time>2018-09-17T12:59:42Z</time>
      </trkpt>
      <trkpt lat="47.65148" lon="6.18075">
        <ele>227.72</ele>
        <time>2018-09-17T12:59:44Z</time>
      </trkpt>
      <trkpt lat="47.65152" lon="6.18071">
        <ele>227.73</ele>
        <time>2018-09-17T12:59:45Z</time>
      </trkpt>
      <trkpt lat="47.65158" lon="6.18063">
        <ele>227.74</ele>
        <time>2018-09-17T12:59:47Z</time>
      </trkpt>
      <trkpt lat="47.65162" lon="6.18058">
        <ele>227.76</ele>
        <time>2018-09-17T12:59:48Z</time>
      </trkpt>
      <trkpt lat="47.65168" lon="6.18049">
        <ele>227.77</ele>
        <time>2018-09-17T12:59:50Z</time>
      </trkpt>
      <trkpt lat="47.65173" lon="6.18041">
        <ele>227.78</ele>
        <time>2018-09-17T12:59:52Z</time>
      </trkpt>
      <trkpt lat="47.65178" lon="6.18033">
        <ele>227.79</ele>
        <time>2018-09-17T12:59:54Z</time>
      </trkpt>
      <trkpt lat="47.65182" lon="6.18026">
        <ele>227.8</ele>
        <time>2018-09-17T12:59:56Z</time>
      </trkpt>
      <trkpt lat="47.65186" lon="6.1802">
        <ele>227.81</ele>
        <time>2018-09-17T12:59:58Z</time>
      </trkpt>
      <trkpt lat="47.65191" lon="6.18014">
        <ele>227.83</ele>
        <time>2018-09-17T13:00:01Z</time>
      </trkpt>
      <trkpt lat="47.65195" lon="6.18009">
        <ele>227.85</ele>
        <time>2018-09-17T13:00:03Z</time>
      </trkpt>
      <trkpt lat="47.652" lon="6.18004">
        <ele>227.87</ele>
        <time>2018-09-17T13:00:05Z</time>
      </trkpt>
      <trkpt lat="47.65204" lon="6.17999">
        <ele>227.89</ele>
        <time>2018-09-17T13:00:07Z</time>
      </trkpt>
      <trkpt lat="47.65209" lon="6.17993">
        <ele>227.92</ele>
        <time>2018-09-17T13:00:09Z</time>
      </trkpt>
      <trkpt lat="47.65215" lon="6.17989">
        <ele>227.95</ele>
        <time>2018-09-17T13:00:11Z</time>
      </trkpt>
      <trkpt lat="47.6522" lon="6.17985">
        <ele>227.98</ele>
        <time>2018-09-17T13:00:13Z</time>
      </trkpt>
      <trkpt lat="47.65226" lon="6.17981">
        <ele>228.2</ele>
        <time>2018-09-17T13:00:15Z</time>
      </trkpt>
      <trkpt lat="47.65234" lon="6.17979">
        <ele>228.32</ele>
        <time>2018-09-17T13:00:17Z</time>
      </trkpt>
      <trkpt lat="47.65242" lon="6.17979">
        <ele>228.44</ele>
        <time>2018-09-17T13:00:19Z</time>
      </trkpt>
      <trkpt lat="47.65255" lon="6.17982">
        <ele>228.52</ele>
        <time>2018-09-17T13:00:21Z</time>
      </trkpt>
      <trkpt lat="47.65263" lon="6.17987">
        <ele>228.57</ele>
        <time>2018-09-17T13:00:23Z</time>
      </trkpt>
      <trkpt lat="47.6527" lon="6.17995">
        <ele>228.61</ele>
        <time>2018-09-17T13:00:25Z</time>
      </trkpt>
      <trkpt lat="47.65274" lon="6.18">
        <ele>228.63</ele>
        <time>2018-09-17T13:00:26Z</time>
      </trkpt>
      <trkpt lat="47.65279" lon="6.1801">
        <ele>228.66</ele>
        <time>2018-09-17T13:00:28Z</time>
      </trkpt>
      <trkpt lat="47.65285" lon="6.18021">
        <ele>228.67</ele>
        <time>2018-09-17T13:00:30Z</time>
      </trkpt>
      <trkpt lat="47.65287" lon="6.18028">
        <ele>228.69</ele>
        <time>2018-09-17T13:00:31Z</time>
      </trkpt>
      <trkpt lat="47.65288" lon="6.18035">
        <ele>228.7</ele>
        <time>2018-09-17T13:00:32Z</time>
      </trkpt>
      <trkpt lat="47.6529" lon="6.18043">
        <ele>228.72</ele>
        <time>2018-09-17T13:00:33Z</time>
      </trkpt>
      <trkpt lat="47.65291" lon="6.1805">
        <ele>228.75</ele>
        <time>2018-09-17T13:00:34Z</time>
      </trkpt>
      <trkpt lat="47.65292" lon="6.18057">
        <ele>228.77</ele>
        <time>2018-09-17T13:00:35Z</time>
      </trkpt>
      <trkpt lat="47.65293" lon="6.18064">
        <ele>228.8</ele>
        <time>2018-09-17T13:00:36Z</time>
      </trkpt>
      <trkpt lat="47.65294" lon="6.18071">
        <ele>228.83</ele>
        <time>2018-09-17T13:00:37Z</time>
      </trkpt>
      <trkpt lat="47.65295" lon="6.18078">
        <ele>228.87</ele>
        <time>2018-09-17T13:00:38Z</time>
      </trkpt>
      <trkpt lat="47.65296" lon="6.18085">
        <ele>228.9</ele>
        <time>2018-09-17T13:00:39Z</time>
      </trkpt>
      <trkpt lat="47.65298" lon="6.18097">
        <ele>228.96</ele>
        <time>2018-09-17T13:00:41Z</time>
      </trkpt>
      <trkpt lat="47.653" lon="6.1811">
        <ele>229.01</ele>
        <time>2018-09-17T13:00:43Z</time>
      </trkpt>
      <trkpt lat="47.65303" lon="6.18121">
        <ele>229.06</ele>
        <time>2018-09-17T13:00:45Z</time>
      </trkpt>
      <trkpt lat="47.65305" lon="6.18132">
        <ele>229.1</ele>
        <time>2018-09-17T13:00:47Z</time>
      </trkpt>
      <trkpt lat="47.65309" lon="6.18142">
        <ele>229.13</ele>
        <time>2018-09-17T13:00:49Z</time>
      </trkpt>
      <trkpt lat="47.65313" lon="6.18152">
        <ele>229.14</ele>
        <time>2018-09-17T13:00:51Z</time>
      </trkpt>
      <trkpt lat="47.65318" lon="6.1816">
        <ele>229.15</ele>
        <time>2018-09-17T13:00:53Z</time>
      </trkpt>
      <trkpt lat="47.65323" lon="6.18169">
        <ele>229.18</ele>
        <time>2018-09-17T13:00:55Z</time>
      </trkpt>
      <trkpt lat="47.65329" lon="6.18177">
        <ele>229.19</ele>
        <time>2018-09-17T13:00:57Z</time>
      </trkpt>
      <trkpt lat="47.65335" lon="6.18184">
        <ele>229.2</ele>
        <time>2018-09-17T13:00:59Z</time>
      </trkpt>
      <trkpt lat="47.65341" lon="6.18191">
        <ele>229.25</ele>
        <time>2018-09-17T13:01:01Z</time>
      </trkpt>
      <trkpt lat="47.65347" lon="6.18197">
        <ele>229.3</ele>
        <time>2018-09-17T13:01:03Z</time>
      </trkpt>
      <trkpt lat="47.65354" lon="6.18203">
        <ele>229.35</ele>
        <time>2018-09-17T13:01:05Z</time>
      </trkpt>
      <trkpt lat="47.6536" lon="6.18209">
        <ele>229.37</ele>
        <time>2018-09-17T13:01:07Z</time>
      </trkpt>
      <trkpt lat="47.65365" lon="6.18214">
        <ele>229.37</ele>
        <time>2018-09-17T13:01:09Z</time>
      </trkpt>
      <trkpt lat="47.65371" lon="6.1822">
        <ele>229.38</ele>
        <time>2018-09-17T13:01:11Z</time>
      </trkpt>
      <trkpt lat="47.65378" lon="6.18225">
        <ele>229.39</ele>
        <time>2018-09-17T13:01:13Z</time>
      </trkpt>
      <trkpt lat="47.65384" lon="6.1823">
        <ele>229.4</ele>
        <time>2018-09-17T13:01:15Z</time>
      </trkpt>
      <trkpt lat="47.65389" lon="6.18234">
        <ele>229.42</ele>
        <time>2018-09-17T13:01:18Z</time>
      </trkpt>
      <trkpt lat="47.65394" lon="6.18239">
        <ele>229.43</ele>
        <time>2018-09-17T13:01:20Z</time>
      </trkpt>
      <trkpt lat="47.65399" lon="6.18242">
        <ele>229.44</ele>
        <time>2018-09-17T13:01:22Z</time>
      </trkpt>
      <trkpt lat="47.65405" lon="6.18245">
        <ele>229.45</ele>
        <time>2018-09-17T13:01:24Z</time>
      </trkpt>
      <trkpt lat="47.65409" lon="6.18248">
        <ele>229.46</ele>
        <time>2018-09-17T13:01:26Z</time>
      </trkpt>
      <trkpt lat="47.65414" lon="6.18251">
        <ele>229.47</ele>
        <time>2018-09-17T13:01:28Z</time>
      </trkpt>
      <trkpt lat="47.65419" lon="6.18254">
        <ele>229.48</ele>
        <time>2018-09-17T13:01:30Z</time>
      </trkpt>
      <trkpt lat="47.65423" lon="6.18256">
        <ele>229.49</ele>
        <time>2018-09-17T13:01:32Z</time>
      </trkpt>
      <trkpt lat="47.65428" lon="6.18258">
        <ele>229.5</ele>
        <time>2018-09-17T13:01:34Z</time>
      </trkpt>
      <trkpt lat="47.65434" lon="6.18261">
        <ele>229.52</ele>
        <time>2018-09-17T13:01:37Z</time>
      </trkpt>
      <trkpt lat="47.6544" lon="6.18264">
        <ele>229.54</ele>
        <time>2018-09-17T13:01:40Z</time>
      </trkpt>
      <trkpt lat="47.65447" lon="6.18266">
        <ele>229.56</ele>
        <time>2018-09-17T13:01:43Z</time>
      </trkpt>
      <trkpt lat="47.65453" lon="6.18267">
        <ele>229.58</ele>
        <time>2018-09-17T13:01:46Z</time>
      </trkpt>
      <trkpt lat="47.65459" lon="6.18267">
        <ele>229.59</ele>
        <time>2018-09-17T13:01:49Z</time>
      </trkpt>
      <trkpt lat="47.65464" lon="6.18268">
        <ele>229.61</ele>
        <time>2018-09-17T13:01:52Z</time>
      </trkpt>
      <trkpt lat="47.6547" lon="6.18267">
        <ele>229.63</ele>
        <time>2018-09-17T13:01:55Z</time>
      </trkpt>
      <trkpt lat="47.65475" lon="6.18267">
        <ele>229.65</ele>
        <time>2018-09-17T13:01:58Z</time>
      </trkpt>
      <trkpt lat="47.6548" lon="6.18267">
        <ele>229.67</ele>
        <time>2018-09-17T13:02:01Z</time>
      </trkpt>
      <trkpt lat="47.65486" lon="6.18265">
        <ele>229.69</ele>
        <time>2018-09-17T13:02:04Z</time>
      </trkpt>
      <trkpt lat="47.65492" lon="6.18262">
        <ele>229.72</ele>
        <time>2018-09-17T13:02:07Z</time>
      </trkpt>
      <trkpt lat="47.65498" lon="6.18259">
        <ele>229.74</ele>
        <time>2018-09-17T13:02:10Z</time>
      </trkpt>
      <trkpt lat="47.65504" lon="6.18256">
        <ele>229.77</ele>
        <time>2018-09-17T13:02:13Z</time>
      </trkpt>
      <trkpt lat="47.65511" lon="6.18254">
        <ele>229.79</ele>
        <time>2018-09-17T13:02:16Z</time>
      </trkpt>
      <trkpt lat="47.65517" lon="6.18252">
        <ele>229.82</ele>
        <time>2018-09-17T13:02:19Z</time>
      </trkpt>
      <trkpt lat="47.65523" lon="6.18249">
        <ele>229.84</ele>
        <time>2018-09-17T13:02:22Z</time>
      </trkpt>
      <trkpt lat="47.65529" lon="6.18247">
        <ele>229.87</ele>
        <time>2018-09-17T13:02:25Z</time>
      </trkpt>
      <trkpt lat="47.65534" lon="6.18244">
        <ele>229.9</ele>
        <time>2018-09-17T13:02:28Z</time>
      </trkpt>
      <trkpt lat="47.6554" lon="6.18241">
        <ele>229.93</ele>
        <time>2018-09-17T13:02:31Z</time>
      </trkpt>
      <trkpt lat="47.65546" lon="6.18238">
        <ele>229.96</ele>
        <time>2018-09-17T13:02:34Z</time>
      </trkpt>
      <trkpt lat="47.65552" lon="6.18234">
        <ele>229.99</ele>
        <time>2018-09-17T13:02:37Z</time>
      </trkpt>
      <trkpt lat="47.65557" lon="6.18231">
        <ele>230.01</ele>
        <time>2018-09-17T13:02:39Z</time>
      </trkpt>
      <trkpt lat="47.65561" lon="6.18227">
        <ele>230.03</ele>
        <time>2018-09-17T13:02:41Z</time>
      </trkpt>
      <trkpt lat="47.65566" lon="6.18222">
        <ele>230.05</ele>
        <time>2018-09-17T13:02:43Z</time>
      </trkpt>
      <trkpt lat="47.65572" lon="6.18217">
        <ele>230.07</ele>
        <time>2018-09-17T13:02:45Z</time>
      </trkpt>
      <trkpt lat="47.65577" lon="6.1821">
        <ele>230.1</ele>
        <time>2018-09-17T13:02:47Z</time>
      </trkpt>
      <trkpt lat="47.65583" lon="6.18202">
        <ele>230.28</ele>
        <time>2018-09-17T13:02:49Z</time>
      </trkpt>
      <trkpt lat="47.65588" lon="6.18193">
        <ele>230.45</ele>
        <time>2018-09-17T13:02:51Z</time>
      </trkpt>
      <trkpt lat="47.65595" lon="6.18183">
        <ele>230.56</ele>
        <time>2018-09-17T13:02:53Z</time>
      </trkpt>
      <trkpt lat="47.65605" lon="6.1817">
        <ele>230.6</ele>
        <time>2018-09-17T13:02:54Z</time>
      </trkpt>
      <trkpt lat="47.6561" lon="6.18167">
        <ele>230.63</ele>
        <time>2018-09-17T13:02:55Z</time>
      </trkpt>
      <trkpt lat="47.65616" lon="6.18166">
        <ele>230.66</ele>
        <time>2018-09-17T13:02:56Z</time>
      </trkpt>
      <trkpt lat="47.65621" lon="6.18167">
        <ele>230.68</ele>
        <time>2018-09-17T13:02:57Z</time>
      </trkpt>
      <trkpt lat="47.65625" lon="6.18168">
        <ele>230.7</ele>
        <time>2018-09-17T13:02:58Z</time>
      </trkpt>
      <trkpt lat="47.65633" lon="6.18169">
        <ele>230.71</ele>
        <time>2018-09-17T13:03:00Z</time>
      </trkpt>
      <trkpt lat="47.65638" lon="6.18166">
        <ele>230.71</ele>
        <time>2018-09-17T13:03:02Z</time>
      </trkpt>
      <trkpt lat="47.65643" lon="6.18163">
        <ele>230.71</ele>
        <time>2018-09-17T13:03:04Z</time>
      </trkpt>
      <trkpt lat="47.65648" lon="6.18159">
        <ele>230.72</ele>
        <time>2018-09-17T13:03:07Z</time>
      </trkpt>
      <trkpt lat="47.65653" lon="6.18155">
        <ele>230.72</ele>
        <time>2018-09-17T13:03:09Z</time>
      </trkpt>
      <trkpt lat="47.65659" lon="6.1815">
        <ele>230.72</ele>
        <time>2018-09-17T13:03:11Z</time>
      </trkpt>
      <trkpt lat="47.65664" lon="6.18146">
        <ele>230.73</ele>
        <time>2018-09-17T13:03:13Z</time>
      </trkpt>
      <trkpt lat="47.65669" lon="6.18141">
        <ele>230.73</ele>
        <time>2018-09-17T13:03:15Z</time>
      </trkpt>
      <trkpt lat="47.65675" lon="6.18134">
        <ele>230.75</ele>
        <time>2018-09-17T13:03:17Z</time>
      </trkpt>
      <trkpt lat="47.6568" lon="6.18127">
        <ele>230.8</ele>
        <time>2018-09-17T13:03:19Z</time>
      </trkpt>
      <trkpt lat="47.65687" lon="6.18114">
        <ele>230.82</ele>
        <time>2018-09-17T13:03:20Z</time>
      </trkpt>
      <trkpt lat="47.6569" lon="6.18108">
        <ele>230.85</ele>
        <time>2018-09-17T13:03:21Z</time>
      </trkpt>
      <trkpt lat="47.65692" lon="6.18102">
        <ele>230.87</ele>
        <time>2018-09-17T13:03:22Z</time>
      </trkpt>
      <trkpt lat="47.65695" lon="6.18096">
        <ele>230.89</ele>
        <time>2018-09-17T13:03:23Z</time>
      </trkpt>
      <trkpt lat="47.65699" lon="6.18087">
        <ele>230.92</ele>
        <time>2018-09-17T13:03:25Z</time>
      </trkpt>
      <trkpt lat="47.65704" lon="6.18079">
        <ele>230.93</ele>
        <time>2018-09-17T13:03:27Z</time>
      </trkpt>
      <trkpt lat="47.65709" lon="6.18072">
        <ele>230.94</ele>
        <time>2018-09-17T13:03:29Z</time>
      </trkpt>
      <trkpt lat="47.65714" lon="6.18066">
        <ele>230.95</ele>
        <time>2018-09-17T13:03:32Z</time>
      </trkpt>
      <trkpt lat="47.65719" lon="6.18062">
        <ele>230.97</ele>
        <time>2018-09-17T13:03:34Z</time>
      </trkpt>
      <trkpt lat="47.65723" lon="6.18058">
        <ele>230.98</ele>
        <time>2018-09-17T13:03:36Z</time>
      </trkpt>
      <trkpt lat="47.65728" lon="6.18055">
        <ele>231</ele>
        <time>2018-09-17T13:03:38Z</time>
      </trkpt>
      <trkpt lat="47.65734" lon="6.18051">
        <ele>231.03</ele>
        <time>2018-09-17T13:03:41Z</time>
      </trkpt>
      <trkpt lat="47.65739" lon="6.18047">
        <ele>231.07</ele>
        <time>2018-09-17T13:03:44Z</time>
      </trkpt>
      <trkpt lat="47.65744" lon="6.18044">
        <ele>231.1</ele>
        <time>2018-09-17T13:03:47Z</time>
      </trkpt>
      <trkpt lat="47.6575" lon="6.1804">
        <ele>231.14</ele>
        <time>2018-09-17T13:03:50Z</time>
      </trkpt>
      <trkpt lat="47.65756" lon="6.18038">
        <ele>231.18</ele>
        <time>2018-09-17T13:03:53Z</time>
      </trkpt>
      <trkpt lat="47.65761" lon="6.18035">
        <ele>231.22</ele>
        <time>2018-09-17T13:03:56Z</time>
      </trkpt>
      <trkpt lat="47.65767" lon="6.18032">
        <ele>231.27</ele>
        <time>2018-09-17T13:03:59Z</time>
      </trkpt>
      <trkpt lat="47.65771" lon="6.18029">
        <ele>231.3</ele>
        <time>2018-09-17T13:04:01Z</time>
      </trkpt>
      <trkpt lat="47.65775" lon="6.18026">
        <ele>231.33</ele>
        <time>2018-09-17T13:04:03Z</time>
      </trkpt>
      <trkpt lat="47.65779" lon="6.18022">
        <ele>231.37</ele>
        <time>2018-09-17T13:04:05Z</time>
      </trkpt>
      <trkpt lat="47.65783" lon="6.18018">
        <ele>231.4</ele>
        <time>2018-09-17T13:04:07Z</time>
      </trkpt>
      <trkpt lat="47.65788" lon="6.18015">
        <ele>231.44</ele>
        <time>2018-09-17T13:04:09Z</time>
      </trkpt>
      <trkpt lat="47.65793" lon="6.18011">
        <ele>231.58</ele>
        <time>2018-09-17T13:04:11Z</time>
      </trkpt>
      <trkpt lat="47.658" lon="6.18006">
        <ele>231.83</ele>
        <time>2018-09-17T13:04:13Z</time>
      </trkpt>
      <trkpt lat="47.65807" lon="6.18">
        <ele>232.01</ele>
        <time>2018-09-17T13:04:15Z</time>
      </trkpt>
      <trkpt lat="47.65811" lon="6.17997">
        <ele>232.08</ele>
        <time>2018-09-17T13:04:16Z</time>
      </trkpt>
      <trkpt lat="47.65825" lon="6.17985">
        <ele>232.13</ele>
        <time>2018-09-17T13:04:17Z</time>
      </trkpt>
      <trkpt lat="47.6583" lon="6.17982">
        <ele>232.18</ele>
        <time>2018-09-17T13:04:18Z</time>
      </trkpt>
      <trkpt lat="47.65836" lon="6.17978">
        <ele>232.22</ele>
        <time>2018-09-17T13:04:19Z</time>
      </trkpt>
      <trkpt lat="47.65841" lon="6.17973">
        <ele>232.27</ele>
        <time>2018-09-17T13:04:20Z</time>
      </trkpt>
      <trkpt lat="47.65847" lon="6.17969">
        <ele>232.31</ele>
        <time>2018-09-17T13:04:21Z</time>
      </trkpt>
      <trkpt lat="47.65853" lon="6.17965">
        <ele>232.35</ele>
        <time>2018-09-17T13:04:22Z</time>
      </trkpt>
      <trkpt lat="47.65859" lon="6.17962">
        <ele>232.38</ele>
        <time>2018-09-17T13:04:23Z</time>
      </trkpt>
      <trkpt lat="47.65866" lon="6.1796">
        <ele>232.41</ele>
        <time>2018-09-17T13:04:24Z</time>
      </trkpt>
      <trkpt lat="47.65873" lon="6.17958">
        <ele>232.45</ele>
        <time>2018-09-17T13:04:25Z</time>
      </trkpt>
      <trkpt lat="47.65879" lon="6.17957">
        <ele>232.48</ele>
        <time>2018-09-17T13:04:26Z</time>
      </trkpt>
      <trkpt lat="47.65885" lon="6.17958">
        <ele>232.51</ele>
        <time>2018-09-17T13:04:27Z</time>
      </trkpt>
      <trkpt lat="47.65891" lon="6.1796">
        <ele>232.54</ele>
        <time>2018-09-17T13:04:28Z</time>
      </trkpt>
      <trkpt lat="47.65896" lon="6.17965">
        <ele>232.58</ele>
        <time>2018-09-17T13:04:29Z</time>
      </trkpt>
      <trkpt lat="47.65899" lon="6.1797">
        <ele>232.63</ele>
        <time>2018-09-17T13:04:30Z</time>
      </trkpt>
      <trkpt lat="47.65903" lon="6.17975">
        <ele>232.69</ele>
        <time>2018-09-17T13:04:31Z</time>
      </trkpt>
      <trkpt lat="47.6591" lon="6.1798">
        <ele>232.82</ele>
        <time>2018-09-17T13:04:33Z</time>
      </trkpt>
      <trkpt lat="47.65917" lon="6.17984">
        <ele>232.9</ele>
        <time>2018-09-17T13:04:35Z</time>
      </trkpt>
      <trkpt lat="47.65922" lon="6.17988">
        <ele>232.92</ele>
        <time>2018-09-17T13:04:37Z</time>
      </trkpt>
      <trkpt lat="47.65926" lon="6.1799">
        <ele>232.94</ele>
        <time>2018-09-17T13:04:39Z</time>
      </trkpt>
      <trkpt lat="47.65931" lon="6.17994">
        <ele>232.95</ele>
        <time>2018-09-17T13:04:41Z</time>
      </trkpt>
      <trkpt lat="47.65936" lon="6.17998">
        <ele>232.97</ele>
        <time>2018-09-17T13:04:43Z</time>
      </trkpt>
      <trkpt lat="47.6594" lon="6.18001">
        <ele>232.99</ele>
        <time>2018-09-17T13:04:45Z</time>
      </trkpt>
      <trkpt lat="47.65945" lon="6.18005">
        <ele>233.02</ele>
        <time>2018-09-17T13:04:47Z</time>
      </trkpt>
      <trkpt lat="47.65949" lon="6.18009">
        <ele>233.07</ele>
        <time>2018-09-17T13:04:49Z</time>
      </trkpt>
      <trkpt lat="47.65953" lon="6.18012">
        <ele>233.15</ele>
        <time>2018-09-17T13:04:51Z</time>
      </trkpt>
      <trkpt lat="47.65958" lon="6.18017">
        <ele>233.27</ele>
        <time>2018-09-17T13:04:54Z</time>
      </trkpt>
      <trkpt lat="47.65963" lon="6.18022">
        <ele>233.39</ele>
        <time>2018-09-17T13:04:57Z</time>
      </trkpt>
      <trkpt lat="47.65967" lon="6.18027">
        <ele>233.51</ele>
        <time>2018-09-17T13:05:00Z</time>
      </trkpt>
      <trkpt lat="47.6597" lon="6.18031">
        <ele>233.62</ele>
        <time>2018-09-17T13:05:03Z</time>
      </trkpt>
      <trkpt lat="47.65974" lon="6.18035">
        <ele>233.75</ele>
        <time>2018-09-17T13:05:06Z</time>
      </trkpt>
      <trkpt lat="47.65978" lon="6.1804">
        <ele>233.88</ele>
        <time>2018-09-17T13:05:09Z</time>
      </trkpt>
      <trkpt lat="47.65982" lon="6.18044">
        <ele>234.01</ele>
        <time>2018-09-17T13:05:12Z</time>
      </trkpt>
      <trkpt lat="47.65986" lon="6.18049">
        <ele>234.18</ele>
        <time>2018-09-17T13:05:16Z</time>
      </trkpt>
      <trkpt lat="47.65991" lon="6.18054">
        <ele>234.36</ele>
        <time>2018-09-17T13:05:20Z</time>
      </trkpt>
      <trkpt lat="47.65996" lon="6.18059">
        <ele>234.53</ele>
        <time>2018-09-17T13:05:24Z</time>
      </trkpt>
      <trkpt lat="47.66" lon="6.18066">
        <ele>234.73</ele>
        <time>2018-09-17T13:05:28Z</time>
      </trkpt>
      <trkpt lat="47.66003" lon="6.18071">
        <ele>234.97</ele>
        <time>2018-09-17T13:05:32Z</time>
      </trkpt>
      <trkpt lat="47.66007" lon="6.18077">
        <ele>235.23</ele>
        <time>2018-09-17T13:05:36Z</time>
      </trkpt>
      <trkpt lat="47.66011" lon="6.18082">
        <ele>235.51</ele>
        <time>2018-09-17T13:05:40Z</time>
      </trkpt>
      <trkpt lat="47.66014" lon="6.18088">
        <ele>235.81</ele>
        <time>2018-09-17T13:05:44Z</time>
      </trkpt>
      <trkpt lat="47.66018" lon="6.18093">
        <ele>236.13</ele>
        <time>2018-09-17T13:05:48Z</time>
      </trkpt>
      <trkpt lat="47.66023" lon="6.18098">
        <ele>236.47</ele>
        <time>2018-09-17T13:05:52Z</time>
      </trkpt>
      <trkpt lat="47.66027" lon="6.181">
        <ele>236.73</ele>
        <time>2018-09-17T13:05:55Z</time>
      </trkpt>
      <trkpt lat="47.66032" lon="6.18103">
        <ele>237.13</ele>
        <time>2018-09-17T13:05:59Z</time>
      </trkpt>
      <trkpt lat="47.66037" lon="6.18105">
        <ele>237.54</ele>
        <time>2018-09-17T13:06:03Z</time>
      </trkpt>
      <trkpt lat="47.66042" lon="6.18107">
        <ele>237.95</ele>
        <time>2018-09-17T13:06:07Z</time>
      </trkpt>
      <trkpt lat="47.66047" lon="6.18108">
        <ele>238.28</ele>
        <time>2018-09-17T13:06:10Z</time>
      </trkpt>
      <trkpt lat="47.66052" lon="6.18108">
        <ele>238.75</ele>
        <time>2018-09-17T13:06:14Z</time>
      </trkpt>
      <trkpt lat="47.66058" lon="6.18111">
        <ele>239.22</ele>
        <time>2018-09-17T13:06:18Z</time>
      </trkpt>
      <trkpt lat="47.66063" lon="6.18112">
        <ele>239.57</ele>
        <time>2018-09-17T13:06:21Z</time>
      </trkpt>
      <trkpt lat="47.66067" lon="6.18114">
        <ele>239.91</ele>
        <time>2018-09-17T13:06:24Z</time>
      </trkpt>
      <trkpt lat="47.66072" lon="6.18115">
        <ele>240.26</ele>
        <time>2018-09-17T13:06:27Z</time>
      </trkpt>
      <trkpt lat="47.66077" lon="6.18116">
        <ele>240.73</ele>
        <time>2018-09-17T13:06:31Z</time>
      </trkpt>
      <trkpt lat="47.66083" lon="6.18118">
        <ele>241.19</ele>
        <time>2018-09-17T13:06:35Z</time>
      </trkpt>
      <trkpt lat="47.66088" lon="6.1812">
        <ele>241.64</ele>
        <time>2018-09-17T13:06:39Z</time>
      </trkpt>
      <trkpt lat="47.66094" lon="6.18123">
        <ele>242.06</ele>
        <time>2018-09-17T13:06:43Z</time>
      </trkpt>
      <trkpt lat="47.66099" lon="6.18125">
        <ele>242.48</ele>
        <time>2018-09-17T13:06:47Z</time>
      </trkpt>
      <trkpt lat="47.66104" lon="6.18127">
        <ele>242.87</ele>
        <time>2018-09-17T13:06:51Z</time>
      </trkpt>
      <trkpt lat="47.66109" lon="6.1813">
        <ele>243.26</ele>
        <time>2018-09-17T13:06:55Z</time>
      </trkpt>
      <trkpt lat="47.66114" lon="6.18133">
        <ele>243.73</ele>
        <time>2018-09-17T13:07:00Z</time>
      </trkpt>
      <trkpt lat="47.66119" lon="6.18136">
        <ele>244.08</ele>
        <time>2018-09-17T13:07:04Z</time>
      </trkpt>
      <trkpt lat="47.66125" lon="6.18139">
        <ele>244.42</ele>
        <time>2018-09-17T13:07:08Z</time>
      </trkpt>
      <trkpt lat="47.6613" lon="6.18141">
        <ele>244.75</ele>
        <time>2018-09-17T13:07:12Z</time>
      </trkpt>
      <trkpt lat="47.66135" lon="6.18143">
        <ele>245.07</ele>
        <time>2018-09-17T13:07:16Z</time>
      </trkpt>
      <trkpt lat="47.66139" lon="6.18146">
        <ele>245.29</ele>
        <time>2018-09-17T13:07:19Z</time>
      </trkpt>
      <trkpt lat="47.66144" lon="6.18149">
        <ele>245.53</ele>
        <time>2018-09-17T13:07:22Z</time>
      </trkpt>
      <trkpt lat="47.66148" lon="6.18153">
        <ele>245.77</ele>
        <time>2018-09-17T13:07:25Z</time>
      </trkpt>
      <trkpt lat="47.66152" lon="6.18155">
        <ele>246.01</ele>
        <time>2018-09-17T13:07:28Z</time>
      </trkpt>
      <trkpt lat="47.66158" lon="6.18159">
        <ele>246.33</ele>
        <time>2018-09-17T13:07:32Z</time>
      </trkpt>
      <trkpt lat="47.66162" lon="6.18163">
        <ele>246.64</ele>
        <time>2018-09-17T13:07:36Z</time>
      </trkpt>
      <trkpt lat="47.66167" lon="6.18168">
        <ele>246.92</ele>
        <time>2018-09-17T13:07:40Z</time>
      </trkpt>
      <trkpt lat="47.66171" lon="6.18172">
        <ele>247.14</ele>
        <time>2018-09-17T13:07:43Z</time>
      </trkpt>
      <trkpt lat="47.66175" lon="6.18176">
        <ele>247.39</ele>
        <time>2018-09-17T13:07:46Z</time>
      </trkpt>
      <trkpt lat="47.6618" lon="6.18179">
        <ele>247.66</ele>
        <time>2018-09-17T13:07:49Z</time>
      </trkpt>
      <trkpt lat="47.66183" lon="6.18184">
        <ele>247.94</ele>
        <time>2018-09-17T13:07:52Z</time>
      </trkpt>
      <trkpt lat="47.66188" lon="6.18189">
        <ele>248.34</ele>
        <time>2018-09-17T13:07:56Z</time>
      </trkpt>
      <trkpt lat="47.66192" lon="6.18195">
        <ele>248.77</ele>
        <time>2018-09-17T13:08:00Z</time>
      </trkpt>
      <trkpt lat="47.66197" lon="6.182">
        <ele>249.21</ele>
        <time>2018-09-17T13:08:04Z</time>
      </trkpt>
      <trkpt lat="47.66201" lon="6.18206">
        <ele>249.66</ele>
        <time>2018-09-17T13:08:08Z</time>
      </trkpt>
      <trkpt lat="47.66204" lon="6.18213">
        <ele>250.1</ele>
        <time>2018-09-17T13:08:12Z</time>
      </trkpt>
      <trkpt lat="47.66208" lon="6.18219">
        <ele>250.54</ele>
        <time>2018-09-17T13:08:16Z</time>
      </trkpt>
      <trkpt lat="47.6621" lon="6.18226">
        <ele>250.95</ele>
        <time>2018-09-17T13:08:20Z</time>
      </trkpt>
      <trkpt lat="47.66213" lon="6.18233">
        <ele>251.33</ele>
        <time>2018-09-17T13:08:24Z</time>
      </trkpt>
      <trkpt lat="47.66217" lon="6.1824">
        <ele>251.7</ele>
        <time>2018-09-17T13:08:28Z</time>
      </trkpt>
      <trkpt lat="47.6622" lon="6.18247">
        <ele>252.04</ele>
        <time>2018-09-17T13:08:32Z</time>
      </trkpt>
      <trkpt lat="47.66222" lon="6.18254">
        <ele>252.37</ele>
        <time>2018-09-17T13:08:36Z</time>
      </trkpt>
      <trkpt lat="47.66224" lon="6.18261">
        <ele>252.68</ele>
        <time>2018-09-17T13:08:40Z</time>
      </trkpt>
      <trkpt lat="47.66225" lon="6.18268">
        <ele>252.99</ele>
        <time>2018-09-17T13:08:44Z</time>
      </trkpt>
      <trkpt lat="47.66227" lon="6.18276">
        <ele>253.33</ele>
        <time>2018-09-17T13:08:49Z</time>
      </trkpt>
      <trkpt lat="47.66228" lon="6.18283">
        <ele>253.57</ele>
        <time>2018-09-17T13:08:53Z</time>
      </trkpt>
      <trkpt lat="47.66229" lon="6.1829">
        <ele>253.79</ele>
        <time>2018-09-17T13:08:57Z</time>
      </trkpt>
      <trkpt lat="47.6623" lon="6.18297">
        <ele>254</ele>
        <time>2018-09-17T13:09:01Z</time>
      </trkpt>
      <trkpt lat="47.66226" lon="6.18303">
        <ele>254.45</ele>
        <time>2018-09-17T13:09:08Z</time>
      </trkpt>
      <trkpt lat="47.66222" lon="6.18305">
        <ele>254.65</ele>
        <time>2018-09-17T13:09:11Z</time>
      </trkpt>
      <trkpt lat="47.66217" lon="6.18306">
        <ele>254.85</ele>
        <time>2018-09-17T13:09:14Z</time>
      </trkpt>
      <trkpt lat="47.66212" lon="6.18306">
        <ele>255.11</ele>
        <time>2018-09-17T13:09:18Z</time>
      </trkpt>
      <trkpt lat="47.66207" lon="6.18304">
        <ele>255.37</ele>
        <time>2018-09-17T13:09:22Z</time>
      </trkpt>
      <trkpt lat="47.66201" lon="6.18303">
        <ele>255.63</ele>
        <time>2018-09-17T13:09:26Z</time>
      </trkpt>
      <trkpt lat="47.66197" lon="6.18301">
        <ele>255.88</ele>
        <time>2018-09-17T13:09:30Z</time>
      </trkpt>
      <trkpt lat="47.66192" lon="6.18298">
        <ele>256.13</ele>
        <time>2018-09-17T13:09:34Z</time>
      </trkpt>
      <trkpt lat="47.66187" lon="6.18295">
        <ele>256.39</ele>
        <time>2018-09-17T13:09:38Z</time>
      </trkpt>
      <trkpt lat="47.66182" lon="6.18291">
        <ele>256.65</ele>
        <time>2018-09-17T13:09:42Z</time>
      </trkpt>
      <trkpt lat="47.66178" lon="6.18288">
        <ele>256.85</ele>
        <time>2018-09-17T13:09:45Z</time>
      </trkpt>
      <trkpt lat="47.66174" lon="6.18285">
        <ele>257.05</ele>
        <time>2018-09-17T13:09:48Z</time>
      </trkpt>
      <trkpt lat="47.66169" lon="6.18283">
        <ele>257.24</ele>
        <time>2018-09-17T13:09:51Z</time>
      </trkpt>
      <trkpt lat="47.66164" lon="6.1828">
        <ele>257.44</ele>
        <time>2018-09-17T13:09:54Z</time>
      </trkpt>
      <trkpt lat="47.66159" lon="6.18277">
        <ele>257.64</ele>
        <time>2018-09-17T13:09:57Z</time>
      </trkpt>
      <trkpt lat="47.66154" lon="6.18274">
        <ele>257.84</ele>
        <time>2018-09-17T13:10:00Z</time>
      </trkpt>
      <trkpt lat="47.66149" lon="6.18272">
        <ele>258.03</ele>
        <time>2018-09-17T13:10:03Z</time>
      </trkpt>
      <trkpt lat="47.66143" lon="6.18269">
        <ele>258.23</ele>
        <time>2018-09-17T13:10:06Z</time>
      </trkpt>
      <trkpt lat="47.66137" lon="6.18267">
        <ele>258.42</ele>
        <time>2018-09-17T13:10:09Z</time>
      </trkpt>
      <trkpt lat="47.66132" lon="6.18263">
        <ele>258.62</ele>
        <time>2018-09-17T13:10:12Z</time>
      </trkpt>
      <trkpt lat="47.66126" lon="6.1826">
        <ele>258.81</ele>
        <time>2018-09-17T13:10:15Z</time>
      </trkpt>
      <trkpt lat="47.6612" lon="6.18257">
        <ele>259</ele>
        <time>2018-09-17T13:10:18Z</time>
      </trkpt>
      <trkpt lat="47.66113" lon="6.18256">
        <ele>259.18</ele>
        <time>2018-09-17T13:10:21Z</time>
      </trkpt>
      <trkpt lat="47.66107" lon="6.18253">
        <ele>259.37</ele>
        <time>2018-09-17T13:10:24Z</time>
      </trkpt>
      <trkpt lat="47.66102" lon="6.18252">
        <ele>259.49</ele>
        <time>2018-09-17T13:10:26Z</time>
      </trkpt>
      <trkpt lat="47.66096" lon="6.18251">
        <ele>259.61</ele>
        <time>2018-09-17T13:10:28Z</time>
      </trkpt>
      <trkpt lat="47.66091" lon="6.1825">
        <ele>259.73</ele>
        <time>2018-09-17T13:10:30Z</time>
      </trkpt>
      <trkpt lat="47.66084" lon="6.18248">
        <ele>259.85</ele>
        <time>2018-09-17T13:10:32Z</time>
      </trkpt>
      <trkpt lat="47.66078" lon="6.18248">
        <ele>259.97</ele>
        <time>2018-09-17T13:10:34Z</time>
      </trkpt>
      <trkpt lat="47.66071" lon="6.18248">
        <ele>260.08</ele>
        <time>2018-09-17T13:10:36Z</time>
      </trkpt>
      <trkpt lat="47.66063" lon="6.18248">
        <ele>260.19</ele>
        <time>2018-09-17T13:10:38Z</time>
      </trkpt>
      <trkpt lat="47.66057" lon="6.18249">
        <ele>260.3</ele>
        <time>2018-09-17T13:10:40Z</time>
      </trkpt>
      <trkpt lat="47.66051" lon="6.1825">
        <ele>260.41</ele>
        <time>2018-09-17T13:10:42Z</time>
      </trkpt>
      <trkpt lat="47.66045" lon="6.1825">
        <ele>260.52</ele>
        <time>2018-09-17T13:10:44Z</time>
      </trkpt>
      <trkpt lat="47.66038" lon="6.1825">
        <ele>260.63</ele>
        <time>2018-09-17T13:10:46Z</time>
      </trkpt>
      <trkpt lat="47.66031" lon="6.18251">
        <ele>260.73</ele>
        <time>2018-09-17T13:10:48Z</time>
      </trkpt>
      <trkpt lat="47.66024" lon="6.18251">
        <ele>260.84</ele>
        <time>2018-09-17T13:10:50Z</time>
      </trkpt>
      <trkpt lat="47.66017" lon="6.1825">
        <ele>261.26</ele>
        <time>2018-09-17T13:10:52Z</time>
      </trkpt>
      <trkpt lat="47.6601" lon="6.18245">
        <ele>262.02</ele>
        <time>2018-09-17T13:10:54Z</time>
      </trkpt>
      <trkpt lat="47.66001" lon="6.18237">
        <ele>262.31</ele>
        <time>2018-09-17T13:10:55Z</time>
      </trkpt>
      <trkpt lat="47.65997" lon="6.18234">
        <ele>262.56</ele>
        <time>2018-09-17T13:10:56Z</time>
      </trkpt>
      <trkpt lat="47.65992" lon="6.18232">
        <ele>262.76</ele>
        <time>2018-09-17T13:10:57Z</time>
      </trkpt>
      <trkpt lat="47.65987" lon="6.18231">
        <ele>262.92</ele>
        <time>2018-09-17T13:10:58Z</time>
      </trkpt>
      <trkpt lat="47.65981" lon="6.1823">
        <ele>263.05</ele>
        <time>2018-09-17T13:10:59Z</time>
      </trkpt>
      <trkpt lat="47.65974" lon="6.18228">
        <ele>263.16</ele>
        <time>2018-09-17T13:11:00Z</time>
      </trkpt>
      <trkpt lat="47.65968" lon="6.18226">
        <ele>263.24</ele>
        <time>2018-09-17T13:11:01Z</time>
      </trkpt>
      <trkpt lat="47.65964" lon="6.18224">
        <ele>263.34</ele>
        <time>2018-09-17T13:11:02Z</time>
      </trkpt>
      <trkpt lat="47.65957" lon="6.18222">
        <ele>263.43</ele>
        <time>2018-09-17T13:11:03Z</time>
      </trkpt>
      <trkpt lat="47.6595" lon="6.18217">
        <ele>263.5</ele>
        <time>2018-09-17T13:11:04Z</time>
      </trkpt>
      <trkpt lat="47.65945" lon="6.1821">
        <ele>263.58</ele>
        <time>2018-09-17T13:11:05Z</time>
      </trkpt>
      <trkpt lat="47.65939" lon="6.18204">
        <ele>263.64</ele>
        <time>2018-09-17T13:11:06Z</time>
      </trkpt>
      <trkpt lat="47.65933" lon="6.18199">
        <ele>263.69</ele>
        <time>2018-09-17T13:11:07Z</time>
      </trkpt>
      <trkpt lat="47.65926" lon="6.18196">
        <ele>263.75</ele>
        <time>2018-09-17T13:11:08Z</time>
      </trkpt>
      <trkpt lat="47.65918" lon="6.18194">
        <ele>263.8</ele>
        <time>2018-09-17T13:11:09Z</time>
      </trkpt>
      <trkpt lat="47.65911" lon="6.18192">
        <ele>263.85</ele>
        <time>2018-09-17T13:11:10Z</time>
      </trkpt>
      <trkpt lat="47.65903" lon="6.1819">
        <ele>263.9</ele>
        <time>2018-09-17T13:11:11Z</time>
      </trkpt>
      <trkpt lat="47.65897" lon="6.18187">
        <ele>263.97</ele>
        <time>2018-09-17T13:11:12Z</time>
      </trkpt>
      <trkpt lat="47.65891" lon="6.18184">
        <ele>264.06</ele>
        <time>2018-09-17T13:11:13Z</time>
      </trkpt>
      <trkpt lat="47.65884" lon="6.18183">
        <ele>264.19</ele>
        <time>2018-09-17T13:11:14Z</time>
      </trkpt>
      <trkpt lat="47.65878" lon="6.18181">
        <ele>264.33</ele>
        <time>2018-09-17T13:11:15Z</time>
      </trkpt>
      <trkpt lat="47.65873" lon="6.1818">
        <ele>264.46</ele>
        <time>2018-09-17T13:11:16Z</time>
      </trkpt>
      <trkpt lat="47.65867" lon="6.18179">
        <ele>264.58</ele>
        <time>2018-09-17T13:11:17Z</time>
      </trkpt>
      <trkpt lat="47.65862" lon="6.18177">
        <ele>264.68</ele>
        <time>2018-09-17T13:11:18Z</time>
      </trkpt>
      <trkpt lat="47.65857" lon="6.18176">
        <ele>264.77</ele>
        <time>2018-09-17T13:11:19Z</time>
      </trkpt>
      <trkpt lat="47.6585" lon="6.18181">
        <ele>264.94</ele>
        <time>2018-09-17T13:11:21Z</time>
      </trkpt>
      <trkpt lat="47.65848" lon="6.1819">
        <ele>264.99</ele>
        <time>2018-09-17T13:11:23Z</time>
      </trkpt>
      <trkpt lat="47.65848" lon="6.18197">
        <ele>265.01</ele>
        <time>2018-09-17T13:11:25Z</time>
      </trkpt>
      <trkpt lat="47.65849" lon="6.18204">
        <ele>265.04</ele>
        <time>2018-09-17T13:11:27Z</time>
      </trkpt>
      <trkpt lat="47.6585" lon="6.18212">
        <ele>265.08</ele>
        <time>2018-09-17T13:11:29Z</time>
      </trkpt>
      <trkpt lat="47.65851" lon="6.18221">
        <ele>265.21</ele>
        <time>2018-09-17T13:11:32Z</time>
      </trkpt>
      <trkpt lat="47.65849" lon="6.18227">
        <ele>265.31</ele>
        <time>2018-09-17T13:11:34Z</time>
      </trkpt>
      <trkpt lat="47.65845" lon="6.18232">
        <ele>265.48</ele>
        <time>2018-09-17T13:11:37Z</time>
      </trkpt>
      <trkpt lat="47.65841" lon="6.18236">
        <ele>265.67</ele>
        <time>2018-09-17T13:11:40Z</time>
      </trkpt>
      <trkpt lat="47.65835" lon="6.1824">
        <ele>265.88</ele>
        <time>2018-09-17T13:11:43Z</time>
      </trkpt>
      <trkpt lat="47.65829" lon="6.18244">
        <ele>266.11</ele>
        <time>2018-09-17T13:11:46Z</time>
      </trkpt>
      <trkpt lat="47.65825" lon="6.18247">
        <ele>266.27</ele>
        <time>2018-09-17T13:11:48Z</time>
      </trkpt>
      <trkpt lat="47.6582" lon="6.1825">
        <ele>266.44</ele>
        <time>2018-09-17T13:11:50Z</time>
      </trkpt>
      <trkpt lat="47.65815" lon="6.18254">
        <ele>266.62</ele>
        <time>2018-09-17T13:11:52Z</time>
      </trkpt>
      <trkpt lat="47.65809" lon="6.18256">
        <ele>266.8</ele>
        <time>2018-09-17T13:11:54Z</time>
      </trkpt>
      <trkpt lat="47.65803" lon="6.1826">
        <ele>266.98</ele>
        <time>2018-09-17T13:11:56Z</time>
      </trkpt>
      <trkpt lat="47.65796" lon="6.18263">
        <ele>267.16</ele>
        <time>2018-09-17T13:11:58Z</time>
      </trkpt>
      <trkpt lat="47.65782" lon="6.18271">
        <ele>268.46</ele>
        <time>2018-09-17T13:12:00Z</time>
      </trkpt>
      <trkpt lat="47.65775" lon="6.18277">
        <ele>269.54</ele>
        <time>2018-09-17T13:12:02Z</time>
      </trkpt>
      <trkpt lat="47.65771" lon="6.18281">
        <ele>269.95</ele>
        <time>2018-09-17T13:12:03Z</time>
      </trkpt>
      <trkpt lat="47.65763" lon="6.18287">
        <ele>270.53</ele>
        <time>2018-09-17T13:12:05Z</time>
      </trkpt>
      <trkpt lat="47.65758" lon="6.18292">
        <ele>270.65</ele>
        <time>2018-09-17T13:12:07Z</time>
      </trkpt>
      <trkpt lat="47.65754" lon="6.18295">
        <ele>270.68</ele>
        <time>2018-09-17T13:12:08Z</time>
      </trkpt>
      <trkpt lat="47.65748" lon="6.18302">
        <ele>270.83</ele>
        <time>2018-09-17T13:12:10Z</time>
      </trkpt>
      <trkpt lat="47.65742" lon="6.18309">
        <ele>270.92</ele>
        <time>2018-09-17T13:12:12Z</time>
      </trkpt>
      <trkpt lat="47.65738" lon="6.18314">
        <ele>270.96</ele>
        <time>2018-09-17T13:12:14Z</time>
      </trkpt>
      <trkpt lat="47.65734" lon="6.1832">
        <ele>271.02</ele>
        <time>2018-09-17T13:12:16Z</time>
      </trkpt>
      <trkpt lat="47.6573" lon="6.18324">
        <ele>271.08</ele>
        <time>2018-09-17T13:12:18Z</time>
      </trkpt>
      <trkpt lat="47.65727" lon="6.18328">
        <ele>271.32</ele>
        <time>2018-09-17T13:12:32Z</time>
      </trkpt>
      <trkpt lat="47.65724" lon="6.18333">
        <ele>271.45</ele>
        <time>2018-09-17T13:12:50Z</time>
      </trkpt>
      <trkpt lat="47.65721" lon="6.1834">
        <ele>271.63</ele>
        <time>2018-09-17T13:12:55Z</time>
      </trkpt>
      <trkpt lat="47.65719" lon="6.18348">
        <ele>271.82</ele>
        <time>2018-09-17T13:13:04Z</time>
      </trkpt>
      <trkpt lat="47.65718" lon="6.18354">
        <ele>272.07</ele>
        <time>2018-09-17T13:13:15Z</time>
      </trkpt>
      <trkpt lat="47.65713" lon="6.18357">
        <ele>273.77</ele>
        <time>2018-09-17T13:13:35Z</time>
      </trkpt>
      <trkpt lat="47.6571" lon="6.18362">
        <ele>274.59</ele>
        <time>2018-09-17T13:13:40Z</time>
      </trkpt>
      <trkpt lat="47.65707" lon="6.18368">
        <ele>275.24</ele>
        <time>2018-09-17T13:13:44Z</time>
      </trkpt>
      <trkpt lat="47.65703" lon="6.18373">
        <ele>275.88</ele>
        <time>2018-09-17T13:13:48Z</time>
      </trkpt>
      <trkpt lat="47.65698" lon="6.18375">
        <ele>276.49</ele>
        <time>2018-09-17T13:13:52Z</time>
      </trkpt>
      <trkpt lat="47.65692" lon="6.18375">
        <ele>277.05</ele>
        <time>2018-09-17T13:13:56Z</time>
      </trkpt>
      <trkpt lat="47.65686" lon="6.18376">
        <ele>277.56</ele>
        <time>2018-09-17T13:14:00Z</time>
      </trkpt>
      <trkpt lat="47.65682" lon="6.18378">
        <ele>278.14</ele>
        <time>2018-09-17T13:14:05Z</time>
      </trkpt>
      <trkpt lat="47.65676" lon="6.18377">
        <ele>278.45</ele>
        <time>2018-09-17T13:14:08Z</time>
      </trkpt>
      <trkpt lat="47.65671" lon="6.18377">
        <ele>278.63</ele>
        <time>2018-09-17T13:14:10Z</time>
      </trkpt>
      <trkpt lat="47.65666" lon="6.18377">
        <ele>278.79</ele>
        <time>2018-09-17T13:14:12Z</time>
      </trkpt>
      <trkpt lat="47.65659" lon="6.18378">
        <ele>278.93</ele>
        <time>2018-09-17T13:14:14Z</time>
      </trkpt>
      <trkpt lat="47.65652" lon="6.1838">
        <ele>279.07</ele>
        <time>2018-09-17T13:14:16Z</time>
      </trkpt>
      <trkpt lat="47.65645" lon="6.18381">
        <ele>279.19</ele>
        <time>2018-09-17T13:14:18Z</time>
      </trkpt>
      <trkpt lat="47.65639" lon="6.18383">
        <ele>279.31</ele>
        <time>2018-09-17T13:14:20Z</time>
      </trkpt>
      <trkpt lat="47.65634" lon="6.18384">
        <ele>279.41</ele>
        <time>2018-09-17T13:14:22Z</time>
      </trkpt>
      <trkpt lat="47.65628" lon="6.18386">
        <ele>279.5</ele>
        <time>2018-09-17T13:14:24Z</time>
      </trkpt>
      <trkpt lat="47.65621" lon="6.18388">
        <ele>279.59</ele>
        <time>2018-09-17T13:14:26Z</time>
      </trkpt>
      <trkpt lat="47.65616" lon="6.1839">
        <ele>279.68</ele>
        <time>2018-09-17T13:14:28Z</time>
      </trkpt>
      <trkpt lat="47.6561" lon="6.18392">
        <ele>279.77</ele>
        <time>2018-09-17T13:14:30Z</time>
      </trkpt>
      <trkpt lat="47.65605" lon="6.18394">
        <ele>279.85</ele>
        <time>2018-09-17T13:14:32Z</time>
      </trkpt>
      <trkpt lat="47.65599" lon="6.18397">
        <ele>279.93</ele>
        <time>2018-09-17T13:14:34Z</time>
      </trkpt>
      <trkpt lat="47.65592" lon="6.184">
        <ele>280.02</ele>
        <time>2018-09-17T13:14:36Z</time>
      </trkpt>
      <trkpt lat="47.65587" lon="6.18402">
        <ele>280.09</ele>
        <time>2018-09-17T13:14:38Z</time>
      </trkpt>
      <trkpt lat="47.65581" lon="6.18405">
        <ele>280.16</ele>
        <time>2018-09-17T13:14:40Z</time>
      </trkpt>
      <trkpt lat="47.65574" lon="6.18408">
        <ele>280.22</ele>
        <time>2018-09-17T13:14:42Z</time>
      </trkpt>
      <trkpt lat="47.65567" lon="6.18411">
        <ele>280.28</ele>
        <time>2018-09-17T13:14:44Z</time>
      </trkpt>
      <trkpt lat="47.6556" lon="6.18415">
        <ele>280.33</ele>
        <time>2018-09-17T13:14:46Z</time>
      </trkpt>
      <trkpt lat="47.65553" lon="6.18417">
        <ele>280.37</ele>
        <time>2018-09-17T13:14:48Z</time>
      </trkpt>
      <trkpt lat="47.65539" lon="6.18425">
        <ele>280.4</ele>
        <time>2018-09-17T13:14:50Z</time>
      </trkpt>
      <trkpt lat="47.65533" lon="6.18429">
        <ele>280.54</ele>
        <time>2018-09-17T13:14:52Z</time>
      </trkpt>
      <trkpt lat="47.65528" lon="6.18431">
        <ele>280.57</ele>
        <time>2018-09-17T13:14:54Z</time>
      </trkpt>
      <trkpt lat="47.65517" lon="6.18436">
        <ele>280.64</ele>
        <time>2018-09-17T13:14:56Z</time>
      </trkpt>
      <trkpt lat="47.65513" lon="6.1844">
        <ele>280.72</ele>
        <time>2018-09-17T13:14:57Z</time>
      </trkpt>
      <trkpt lat="47.65509" lon="6.18443">
        <ele>280.81</ele>
        <time>2018-09-17T13:14:58Z</time>
      </trkpt>
      <trkpt lat="47.65502" lon="6.18449">
        <ele>280.94</ele>
        <time>2018-09-17T13:15:00Z</time>
      </trkpt>
      <trkpt lat="47.65495" lon="6.18456">
        <ele>281.02</ele>
        <time>2018-09-17T13:15:02Z</time>
      </trkpt>
      <trkpt lat="47.65487" lon="6.18462">
        <ele>281.06</ele>
        <time>2018-09-17T13:15:04Z</time>
      </trkpt>
      <trkpt lat="47.65479" lon="6.18467">
        <ele>281.1</ele>
        <time>2018-09-17T13:15:06Z</time>
      </trkpt>
      <trkpt lat="47.65472" lon="6.18472">
        <ele>281.11</ele>
        <time>2018-09-17T13:15:08Z</time>
      </trkpt>
      <trkpt lat="47.65464" lon="6.18479">
        <ele>281.09</ele>
        <time>2018-09-17T13:15:10Z</time>
      </trkpt>
      <trkpt lat="47.6546" lon="6.18482">
        <ele>281.06</ele>
        <time>2018-09-17T13:15:11Z</time>
      </trkpt>
      <trkpt lat="47.65453" lon="6.18489">
        <ele>281.01</ele>
        <time>2018-09-17T13:15:13Z</time>
      </trkpt>
      <trkpt lat="47.65448" lon="6.18494">
        <ele>281.01</ele>
        <time>2018-09-17T13:15:15Z</time>
      </trkpt>
      <trkpt lat="47.65444" lon="6.18498">
        <ele>281.01</ele>
        <time>2018-09-17T13:15:17Z</time>
      </trkpt>
      <trkpt lat="47.6544" lon="6.18503">
        <ele>281.02</ele>
        <time>2018-09-17T13:15:19Z</time>
      </trkpt>
      <trkpt lat="47.65435" lon="6.18508">
        <ele>281.02</ele>
        <time>2018-09-17T13:15:21Z</time>
      </trkpt>
      <trkpt lat="47.65431" lon="6.18514">
        <ele>281.02</ele>
        <time>2018-09-17T13:15:23Z</time>
      </trkpt>
      <trkpt lat="47.65427" lon="6.1852">
        <ele>281.02</ele>
        <time>2018-09-17T13:15:25Z</time>
      </trkpt>
      <trkpt lat="47.65422" lon="6.18525">
        <ele>281.02</ele>
        <time>2018-09-17T13:15:27Z</time>
      </trkpt>
      <trkpt lat="47.65418" lon="6.18532">
        <ele>281.01</ele>
        <time>2018-09-17T13:15:29Z</time>
      </trkpt>
      <trkpt lat="47.65414" lon="6.18538">
        <ele>281</ele>
        <time>2018-09-17T13:15:31Z</time>
      </trkpt>
      <trkpt lat="47.65409" lon="6.18544">
        <ele>281</ele>
        <time>2018-09-17T13:15:33Z</time>
      </trkpt>
      <trkpt lat="47.65404" lon="6.18551">
        <ele>280.99</ele>
        <time>2018-09-17T13:15:35Z</time>
      </trkpt>
      <trkpt lat="47.654" lon="6.18558">
        <ele>280.97</ele>
        <time>2018-09-17T13:15:37Z</time>
      </trkpt>
      <trkpt lat="47.65395" lon="6.18565">
        <ele>280.96</ele>
        <time>2018-09-17T13:15:39Z</time>
      </trkpt>
      <trkpt lat="47.65391" lon="6.18572">
        <ele>280.93</ele>
        <time>2018-09-17T13:15:41Z</time>
      </trkpt>
      <trkpt lat="47.65387" lon="6.1858">
        <ele>280.91</ele>
        <time>2018-09-17T13:15:43Z</time>
      </trkpt>
      <trkpt lat="47.65383" lon="6.18587">
        <ele>280.88</ele>
        <time>2018-09-17T13:15:45Z</time>
      </trkpt>
      <trkpt lat="47.65379" lon="6.18593">
        <ele>280.85</ele>
        <time>2018-09-17T13:15:47Z</time>
      </trkpt>
      <trkpt lat="47.65376" lon="6.186">
        <ele>280.8</ele>
        <time>2018-09-17T13:15:50Z</time>
      </trkpt>
      <trkpt lat="47.6538" lon="6.18599">
        <ele>280.57</ele>
        <time>2018-09-17T13:16:04Z</time>
      </trkpt>
      <trkpt lat="47.65385" lon="6.18593">
        <ele>280.48</ele>
        <time>2018-09-17T13:16:07Z</time>
      </trkpt>
      <trkpt lat="47.6539" lon="6.18589">
        <ele>280.39</ele>
        <time>2018-09-17T13:16:10Z</time>
      </trkpt>
      <trkpt lat="47.65395" lon="6.18585">
        <ele>280.29</ele>
        <time>2018-09-17T13:16:13Z</time>
      </trkpt>
      <trkpt lat="47.654" lon="6.18582">
        <ele>280.19</ele>
        <time>2018-09-17T13:16:16Z</time>
      </trkpt>
      <trkpt lat="47.65405" lon="6.18578">
        <ele>280.09</ele>
        <time>2018-09-17T13:16:19Z</time>
      </trkpt>
      <trkpt lat="47.65409" lon="6.18573">
        <ele>279.98</ele>
        <time>2018-09-17T13:16:22Z</time>
      </trkpt>
      <trkpt lat="47.65414" lon="6.18568">
        <ele>279.86</ele>
        <time>2018-09-17T13:16:25Z</time>
      </trkpt>
      <trkpt lat="47.65418" lon="6.18563">
        <ele>279.74</ele>
        <time>2018-09-17T13:16:28Z</time>
      </trkpt>
      <trkpt lat="47.65421" lon="6.18558">
        <ele>279.64</ele>
        <time>2018-09-17T13:16:32Z</time>
      </trkpt>
      <trkpt lat="47.65418" lon="6.18563">
        <ele>279.22</ele>
        <time>2018-09-17T13:17:08Z</time>
      </trkpt>
      <trkpt lat="47.65412" lon="6.18568">
        <ele>279.14</ele>
        <time>2018-09-17T13:17:11Z</time>
      </trkpt>
      <trkpt lat="47.65408" lon="6.18572">
        <ele>279.09</ele>
        <time>2018-09-17T13:17:13Z</time>
      </trkpt>
      <trkpt lat="47.65403" lon="6.18576">
        <ele>279.04</ele>
        <time>2018-09-17T13:17:15Z</time>
      </trkpt>
      <trkpt lat="47.65397" lon="6.18579">
        <ele>278.99</ele>
        <time>2018-09-17T13:17:17Z</time>
      </trkpt>
      <trkpt lat="47.65392" lon="6.18581">
        <ele>278.95</ele>
        <time>2018-09-17T13:17:19Z</time>
      </trkpt>
      <trkpt lat="47.65386" lon="6.18584">
        <ele>278.91</ele>
        <time>2018-09-17T13:17:21Z</time>
      </trkpt>
      <trkpt lat="47.65381" lon="6.18586">
        <ele>278.88</ele>
        <time>2018-09-17T13:17:23Z</time>
      </trkpt>
      <trkpt lat="47.65377" lon="6.1859">
        <ele>278.84</ele>
        <time>2018-09-17T13:17:25Z</time>
      </trkpt>
      <trkpt lat="47.65373" lon="6.18595">
        <ele>278.81</ele>
        <time>2018-09-17T13:17:27Z</time>
      </trkpt>
      <trkpt lat="47.65369" lon="6.18601">
        <ele>278.78</ele>
        <time>2018-09-17T13:17:29Z</time>
      </trkpt>
      <trkpt lat="47.65366" lon="6.18606">
        <ele>278.74</ele>
        <time>2018-09-17T13:17:31Z</time>
      </trkpt>
      <trkpt lat="47.65363" lon="6.18611">
        <ele>278.71</ele>
        <time>2018-09-17T13:17:33Z</time>
      </trkpt>
      <trkpt lat="47.65358" lon="6.18619">
        <ele>278.67</ele>
        <time>2018-09-17T13:17:36Z</time>
      </trkpt>
      <trkpt lat="47.65354" lon="6.18626">
        <ele>278.62</ele>
        <time>2018-09-17T13:17:39Z</time>
      </trkpt>
      <trkpt lat="47.65351" lon="6.1863">
        <ele>278.6</ele>
        <time>2018-09-17T13:17:41Z</time>
      </trkpt>
      <trkpt lat="47.65347" lon="6.18635">
        <ele>278.57</ele>
        <time>2018-09-17T13:17:43Z</time>
      </trkpt>
      <trkpt lat="47.65342" lon="6.18642">
        <ele>278.54</ele>
        <time>2018-09-17T13:17:46Z</time>
      </trkpt>
      <trkpt lat="47.65338" lon="6.18648">
        <ele>278.5</ele>
        <time>2018-09-17T13:17:49Z</time>
      </trkpt>
      <trkpt lat="47.65334" lon="6.18655">
        <ele>278.47</ele>
        <time>2018-09-17T13:17:52Z</time>
      </trkpt>
      <trkpt lat="47.6533" lon="6.18661">
        <ele>278.43</ele>
        <time>2018-09-17T13:17:55Z</time>
      </trkpt>
      <trkpt lat="47.65326" lon="6.18668">
        <ele>278.4</ele>
        <time>2018-09-17T13:17:58Z</time>
      </trkpt>
      <trkpt lat="47.65323" lon="6.18673">
        <ele>278.38</ele>
        <time>2018-09-17T13:18:00Z</time>
      </trkpt>
      <trkpt lat="47.65319" lon="6.18678">
        <ele>278.35</ele>
        <time>2018-09-17T13:18:02Z</time>
      </trkpt>
      <trkpt lat="47.65316" lon="6.18682">
        <ele>278.33</ele>
        <time>2018-09-17T13:18:04Z</time>
      </trkpt>
      <trkpt lat="47.65312" lon="6.18687">
        <ele>278.31</ele>
        <time>2018-09-17T13:18:06Z</time>
      </trkpt>
      <trkpt lat="47.65308" lon="6.18691">
        <ele>278.28</ele>
        <time>2018-09-17T13:18:08Z</time>
      </trkpt>
      <trkpt lat="47.65304" lon="6.18696">
        <ele>278.26</ele>
        <time>2018-09-17T13:18:10Z</time>
      </trkpt>
      <trkpt lat="47.653" lon="6.18701">
        <ele>278.23</ele>
        <time>2018-09-17T13:18:12Z</time>
      </trkpt>
      <trkpt lat="47.65295" lon="6.18707">
        <ele>278.21</ele>
        <time>2018-09-17T13:18:14Z</time>
      </trkpt>
      <trkpt lat="47.65291" lon="6.18713">
        <ele>278.19</ele>
        <time>2018-09-17T13:18:16Z</time>
      </trkpt>
      <trkpt lat="47.6528" lon="6.18726">
        <ele>278</ele>
        <time>2018-09-17T13:18:18Z</time>
      </trkpt>
      <trkpt lat="47.65274" lon="6.18734">
        <ele>277.83</ele>
        <time>2018-09-17T13:18:20Z</time>
      </trkpt>
      <trkpt lat="47.65266" lon="6.18742">
        <ele>277.7</ele>
        <time>2018-09-17T13:18:22Z</time>
      </trkpt>
      <trkpt lat="47.65262" lon="6.18747">
        <ele>277.65</ele>
        <time>2018-09-17T13:18:23Z</time>
      </trkpt>
      <trkpt lat="47.65258" lon="6.18751">
        <ele>277.61</ele>
        <time>2018-09-17T13:18:24Z</time>
      </trkpt>
      <trkpt lat="47.65254" lon="6.18756">
        <ele>277.57</ele>
        <time>2018-09-17T13:18:25Z</time>
      </trkpt>
      <trkpt lat="47.6525" lon="6.1876">
        <ele>277.54</ele>
        <time>2018-09-17T13:18:26Z</time>
      </trkpt>
      <trkpt lat="47.65246" lon="6.18765">
        <ele>277.51</ele>
        <time>2018-09-17T13:18:27Z</time>
      </trkpt>
      <trkpt lat="47.65242" lon="6.1877">
        <ele>277.47</ele>
        <time>2018-09-17T13:18:28Z</time>
      </trkpt>
      <trkpt lat="47.65238" lon="6.18774">
        <ele>277.44</ele>
        <time>2018-09-17T13:18:29Z</time>
      </trkpt>
      <trkpt lat="47.65234" lon="6.18778">
        <ele>277.41</ele>
        <time>2018-09-17T13:18:30Z</time>
      </trkpt>
      <trkpt lat="47.6523" lon="6.18782">
        <ele>277.37</ele>
        <time>2018-09-17T13:18:31Z</time>
      </trkpt>
      <trkpt lat="47.65224" lon="6.18789">
        <ele>277.36</ele>
        <time>2018-09-17T13:18:33Z</time>
      </trkpt>
      <trkpt lat="47.65218" lon="6.18797">
        <ele>277.38</ele>
        <time>2018-09-17T13:18:35Z</time>
      </trkpt>
      <trkpt lat="47.65211" lon="6.18805">
        <ele>277.38</ele>
        <time>2018-09-17T13:18:37Z</time>
      </trkpt>
      <trkpt lat="47.65206" lon="6.18812">
        <ele>277.38</ele>
        <time>2018-09-17T13:18:39Z</time>
      </trkpt>
      <trkpt lat="47.65203" lon="6.18818">
        <ele>277.38</ele>
        <time>2018-09-17T13:18:41Z</time>
      </trkpt>
      <trkpt lat="47.65199" lon="6.18824">
        <ele>277.37</ele>
        <time>2018-09-17T13:18:43Z</time>
      </trkpt>
      <trkpt lat="47.65195" lon="6.18831">
        <ele>277.36</ele>
        <time>2018-09-17T13:18:46Z</time>
      </trkpt>
      <trkpt lat="47.65191" lon="6.18835">
        <ele>277.36</ele>
        <time>2018-09-17T13:18:48Z</time>
      </trkpt>
      <trkpt lat="47.65188" lon="6.1884">
        <ele>277.35</ele>
        <time>2018-09-17T13:18:50Z</time>
      </trkpt>
      <trkpt lat="47.65183" lon="6.18844">
        <ele>277.34</ele>
        <time>2018-09-17T13:18:52Z</time>
      </trkpt>
      <trkpt lat="47.65179" lon="6.18849">
        <ele>277.33</ele>
        <time>2018-09-17T13:18:54Z</time>
      </trkpt>
      <trkpt lat="47.65174" lon="6.18853">
        <ele>277.32</ele>
        <time>2018-09-17T13:18:56Z</time>
      </trkpt>
      <trkpt lat="47.6517" lon="6.18858">
        <ele>277.31</ele>
        <time>2018-09-17T13:18:58Z</time>
      </trkpt>
      <trkpt lat="47.65166" lon="6.18862">
        <ele>277.3</ele>
        <time>2018-09-17T13:19:00Z</time>
      </trkpt>
      <trkpt lat="47.65162" lon="6.18866">
        <ele>277.29</ele>
        <time>2018-09-17T13:19:02Z</time>
      </trkpt>
      <trkpt lat="47.65158" lon="6.1887">
        <ele>277.28</ele>
        <time>2018-09-17T13:19:04Z</time>
      </trkpt>
      <trkpt lat="47.65153" lon="6.18875">
        <ele>277.27</ele>
        <time>2018-09-17T13:19:06Z</time>
      </trkpt>
      <trkpt lat="47.65148" lon="6.18881">
        <ele>277.26</ele>
        <time>2018-09-17T13:19:08Z</time>
      </trkpt>
      <trkpt lat="47.65143" lon="6.18887">
        <ele>277.2</ele>
        <time>2018-09-17T13:19:10Z</time>
      </trkpt>
      <trkpt lat="47.65137" lon="6.18894">
        <ele>277.09</ele>
        <time>2018-09-17T13:19:12Z</time>
      </trkpt>
      <trkpt lat="47.6513" lon="6.18901">
        <ele>277.01</ele>
        <time>2018-09-17T13:19:14Z</time>
      </trkpt>
      <trkpt lat="47.65124" lon="6.18909">
        <ele>276.94</ele>
        <time>2018-09-17T13:19:16Z</time>
      </trkpt>
      <trkpt lat="47.65117" lon="6.18916">
        <ele>276.92</ele>
        <time>2018-09-17T13:19:18Z</time>
      </trkpt>
      <trkpt lat="47.65112" lon="6.18922">
        <ele>276.91</ele>
        <time>2018-09-17T13:19:20Z</time>
      </trkpt>
      <trkpt lat="47.65106" lon="6.18928">
        <ele>276.91</ele>
        <time>2018-09-17T13:19:22Z</time>
      </trkpt>
      <trkpt lat="47.65101" lon="6.18934">
        <ele>276.9</ele>
        <time>2018-09-17T13:19:24Z</time>
      </trkpt>
      <trkpt lat="47.65095" lon="6.1894">
        <ele>276.89</ele>
        <time>2018-09-17T13:19:26Z</time>
      </trkpt>
      <trkpt lat="47.65091" lon="6.18945">
        <ele>276.89</ele>
        <time>2018-09-17T13:19:28Z</time>
      </trkpt>
      <trkpt lat="47.65086" lon="6.18951">
        <ele>276.88</ele>
        <time>2018-09-17T13:19:31Z</time>
      </trkpt>
      <trkpt lat="47.65081" lon="6.18957">
        <ele>276.87</ele>
        <time>2018-09-17T13:19:34Z</time>
      </trkpt>
      <trkpt lat="47.65077" lon="6.18962">
        <ele>276.86</ele>
        <time>2018-09-17T13:19:36Z</time>
      </trkpt>
      <trkpt lat="47.65072" lon="6.18967">
        <ele>276.85</ele>
        <time>2018-09-17T13:19:38Z</time>
      </trkpt>
      <trkpt lat="47.65068" lon="6.18973">
        <ele>276.85</ele>
        <time>2018-09-17T13:19:40Z</time>
      </trkpt>
      <trkpt lat="47.65064" lon="6.18979">
        <ele>276.84</ele>
        <time>2018-09-17T13:19:42Z</time>
      </trkpt>
      <trkpt lat="47.6506" lon="6.18985">
        <ele>276.83</ele>
        <time>2018-09-17T13:19:44Z</time>
      </trkpt>
      <trkpt lat="47.65056" lon="6.18992">
        <ele>276.78</ele>
        <time>2018-09-17T13:19:46Z</time>
      </trkpt>
      <trkpt lat="47.6505" lon="6.18998">
        <ele>276.67</ele>
        <time>2018-09-17T13:19:48Z</time>
      </trkpt>
      <trkpt lat="47.65044" lon="6.19005">
        <ele>276.59</ele>
        <time>2018-09-17T13:19:50Z</time>
      </trkpt>
      <trkpt lat="47.65028" lon="6.1902">
        <ele>276.51</ele>
        <time>2018-09-17T13:19:52Z</time>
      </trkpt>
      <trkpt lat="47.65024" lon="6.19025">
        <ele>276.47</ele>
        <time>2018-09-17T13:19:53Z</time>
      </trkpt>
      <trkpt lat="47.65019" lon="6.1903">
        <ele>276.44</ele>
        <time>2018-09-17T13:19:54Z</time>
      </trkpt>
      <trkpt lat="47.65015" lon="6.19035">
        <ele>276.41</ele>
        <time>2018-09-17T13:19:55Z</time>
      </trkpt>
      <trkpt lat="47.65011" lon="6.19039">
        <ele>276.38</ele>
        <time>2018-09-17T13:19:56Z</time>
      </trkpt>
      <trkpt lat="47.65007" lon="6.19044">
        <ele>276.35</ele>
        <time>2018-09-17T13:19:57Z</time>
      </trkpt>
      <trkpt lat="47.65003" lon="6.19048">
        <ele>276.32</ele>
        <time>2018-09-17T13:19:58Z</time>
      </trkpt>
      <trkpt lat="47.65" lon="6.19053">
        <ele>276.28</ele>
        <time>2018-09-17T13:19:59Z</time>
      </trkpt>
      <trkpt lat="47.64995" lon="6.19062">
        <ele>276.24</ele>
        <time>2018-09-17T13:20:01Z</time>
      </trkpt>
      <trkpt lat="47.64995" lon="6.1907">
        <ele>276.23</ele>
        <time>2018-09-17T13:20:03Z</time>
      </trkpt>
      <trkpt lat="47.64997" lon="6.19078">
        <ele>276.22</ele>
        <time>2018-09-17T13:20:05Z</time>
      </trkpt>
      <trkpt lat="47.65001" lon="6.19084">
        <ele>276.21</ele>
        <time>2018-09-17T13:20:07Z</time>
      </trkpt>
      <trkpt lat="47.65006" lon="6.19089">
        <ele>276.19</ele>
        <time>2018-09-17T13:20:10Z</time>
      </trkpt>
      <trkpt lat="47.6501" lon="6.19096">
        <ele>276.16</ele>
        <time>2018-09-17T13:20:13Z</time>
      </trkpt>
      <trkpt lat="47.65014" lon="6.19102">
        <ele>276.13</ele>
        <time>2018-09-17T13:20:15Z</time>
      </trkpt>
      <trkpt lat="47.65018" lon="6.19107">
        <ele>276.11</ele>
        <time>2018-09-17T13:20:17Z</time>
      </trkpt>
      <trkpt lat="47.65022" lon="6.19113">
        <ele>276.08</ele>
        <time>2018-09-17T13:20:19Z</time>
      </trkpt>
      <trkpt lat="47.65025" lon="6.19118">
        <ele>276.06</ele>
        <time>2018-09-17T13:20:21Z</time>
      </trkpt>
      <trkpt lat="47.65028" lon="6.19124">
        <ele>276.03</ele>
        <time>2018-09-17T13:20:23Z</time>
      </trkpt>
      <trkpt lat="47.65032" lon="6.1913">
        <ele>276</ele>
        <time>2018-09-17T13:20:25Z</time>
      </trkpt>
      <trkpt lat="47.65035" lon="6.19136">
        <ele>275.97</ele>
        <time>2018-09-17T13:20:27Z</time>
      </trkpt>
      <trkpt lat="47.65039" lon="6.19141">
        <ele>275.94</ele>
        <time>2018-09-17T13:20:29Z</time>
      </trkpt>
      <trkpt lat="47.65042" lon="6.19146">
        <ele>275.9</ele>
        <time>2018-09-17T13:20:31Z</time>
      </trkpt>
      <trkpt lat="47.65046" lon="6.19151">
        <ele>275.87</ele>
        <time>2018-09-17T13:20:33Z</time>
      </trkpt>
      <trkpt lat="47.6505" lon="6.19157">
        <ele>275.84</ele>
        <time>2018-09-17T13:20:35Z</time>
      </trkpt>
      <trkpt lat="47.65054" lon="6.19163">
        <ele>275.8</ele>
        <time>2018-09-17T13:20:37Z</time>
      </trkpt>
      <trkpt lat="47.65057" lon="6.19168">
        <ele>275.77</ele>
        <time>2018-09-17T13:20:39Z</time>
      </trkpt>
      <trkpt lat="47.65061" lon="6.19173">
        <ele>275.73</ele>
        <time>2018-09-17T13:20:41Z</time>
      </trkpt>
      <trkpt lat="47.65064" lon="6.19179">
        <ele>275.7</ele>
        <time>2018-09-17T13:20:43Z</time>
      </trkpt>
      <trkpt lat="47.65068" lon="6.19184">
        <ele>275.66</ele>
        <time>2018-09-17T13:20:45Z</time>
      </trkpt>
      <trkpt lat="47.65072" lon="6.1919">
        <ele>275.63</ele>
        <time>2018-09-17T13:20:47Z</time>
      </trkpt>
      <trkpt lat="47.65075" lon="6.19196">
        <ele>275.59</ele>
        <time>2018-09-17T13:20:49Z</time>
      </trkpt>
      <trkpt lat="47.65079" lon="6.19202">
        <ele>275.56</ele>
        <time>2018-09-17T13:20:51Z</time>
      </trkpt>
      <trkpt lat="47.65083" lon="6.19207">
        <ele>275.52</ele>
        <time>2018-09-17T13:20:53Z</time>
      </trkpt>
      <trkpt lat="47.65086" lon="6.19213">
        <ele>275.49</ele>
        <time>2018-09-17T13:20:55Z</time>
      </trkpt>
      <trkpt lat="47.6509" lon="6.19218">
        <ele>275.45</ele>
        <time>2018-09-17T13:20:57Z</time>
      </trkpt>
      <trkpt lat="47.65094" lon="6.19223">
        <ele>275.42</ele>
        <time>2018-09-17T13:20:59Z</time>
      </trkpt>
      <trkpt lat="47.65097" lon="6.19229">
        <ele>275.38</ele>
        <time>2018-09-17T13:21:01Z</time>
      </trkpt>
      <trkpt lat="47.651" lon="6.19234">
        <ele>275.35</ele>
        <time>2018-09-17T13:21:03Z</time>
      </trkpt>
      <trkpt lat="47.65104" lon="6.19238">
        <ele>275.31</ele>
        <time>2018-09-17T13:21:05Z</time>
      </trkpt>
      <trkpt lat="47.65107" lon="6.19243">
        <ele>275.28</ele>
        <time>2018-09-17T13:21:07Z</time>
      </trkpt>
      <trkpt lat="47.6511" lon="6.19248">
        <ele>275.25</ele>
        <time>2018-09-17T13:21:09Z</time>
      </trkpt>
      <trkpt lat="47.65114" lon="6.19253">
        <ele>275.21</ele>
        <time>2018-09-17T13:21:11Z</time>
      </trkpt>
      <trkpt lat="47.65117" lon="6.19257">
        <ele>275.18</ele>
        <time>2018-09-17T13:21:13Z</time>
      </trkpt>
      <trkpt lat="47.6512" lon="6.19262">
        <ele>275.15</ele>
        <time>2018-09-17T13:21:15Z</time>
      </trkpt>
      <trkpt lat="47.65124" lon="6.19267">
        <ele>275.12</ele>
        <time>2018-09-17T13:21:17Z</time>
      </trkpt>
      <trkpt lat="47.65128" lon="6.19272">
        <ele>275.09</ele>
        <time>2018-09-17T13:21:19Z</time>
      </trkpt>
      <trkpt lat="47.65132" lon="6.19277">
        <ele>275.06</ele>
        <time>2018-09-17T13:21:21Z</time>
      </trkpt>
      <trkpt lat="47.65135" lon="6.19281">
        <ele>275.03</ele>
        <time>2018-09-17T13:21:23Z</time>
      </trkpt>
      <trkpt lat="47.65139" lon="6.19286">
        <ele>275</ele>
        <time>2018-09-17T13:21:25Z</time>
      </trkpt>
      <trkpt lat="47.65143" lon="6.1929">
        <ele>274.97</ele>
        <time>2018-09-17T13:21:27Z</time>
      </trkpt>
      <trkpt lat="47.65148" lon="6.19295">
        <ele>274.94</ele>
        <time>2018-09-17T13:21:29Z</time>
      </trkpt>
      <trkpt lat="47.65152" lon="6.193">
        <ele>274.91</ele>
        <time>2018-09-17T13:21:31Z</time>
      </trkpt>
      <trkpt lat="47.65157" lon="6.19306">
        <ele>274.88</ele>
        <time>2018-09-17T13:21:33Z</time>
      </trkpt>
      <trkpt lat="47.65162" lon="6.19311">
        <ele>274.85</ele>
        <time>2018-09-17T13:21:35Z</time>
      </trkpt>
      <trkpt lat="47.65167" lon="6.19317">
        <ele>274.83</ele>
        <time>2018-09-17T13:21:37Z</time>
      </trkpt>
      <trkpt lat="47.65171" lon="6.19323">
        <ele>274.8</ele>
        <time>2018-09-17T13:21:39Z</time>
      </trkpt>
      <trkpt lat="47.65176" lon="6.19328">
        <ele>274.77</ele>
        <time>2018-09-17T13:21:41Z</time>
      </trkpt>
      <trkpt lat="47.6518" lon="6.19334">
        <ele>274.75</ele>
        <time>2018-09-17T13:21:43Z</time>
      </trkpt>
      <trkpt lat="47.65184" lon="6.1934">
        <ele>274.72</ele>
        <time>2018-09-17T13:21:45Z</time>
      </trkpt>
      <trkpt lat="47.65188" lon="6.19348">
        <ele>274.69</ele>
        <time>2018-09-17T13:21:47Z</time>
      </trkpt>
      <trkpt lat="47.65192" lon="6.19356">
        <ele>274.67</ele>
        <time>2018-09-17T13:21:49Z</time>
      </trkpt>
      <trkpt lat="47.65197" lon="6.19364">
        <ele>274.64</ele>
        <time>2018-09-17T13:21:51Z</time>
      </trkpt>
      <trkpt lat="47.65201" lon="6.19371">
        <ele>274.62</ele>
        <time>2018-09-17T13:21:53Z</time>
      </trkpt>
      <trkpt lat="47.65205" lon="6.19378">
        <ele>274.59</ele>
        <time>2018-09-17T13:21:55Z</time>
      </trkpt>
      <trkpt lat="47.65209" lon="6.19384">
        <ele>274.57</ele>
        <time>2018-09-17T13:21:57Z</time>
      </trkpt>
      <trkpt lat="47.65213" lon="6.1939">
        <ele>274.55</ele>
        <time>2018-09-17T13:21:59Z</time>
      </trkpt>
      <trkpt lat="47.65217" lon="6.19397">
        <ele>274.52</ele>
        <time>2018-09-17T13:22:01Z</time>
      </trkpt>
      <trkpt lat="47.65221" lon="6.19404">
        <ele>274.5</ele>
        <time>2018-09-17T13:22:03Z</time>
      </trkpt>
      <trkpt lat="47.65225" lon="6.19411">
        <ele>274.47</ele>
        <time>2018-09-17T13:22:05Z</time>
      </trkpt>
      <trkpt lat="47.65229" lon="6.19418">
        <ele>274.45</ele>
        <time>2018-09-17T13:22:07Z</time>
      </trkpt>
      <trkpt lat="47.65233" lon="6.19426">
        <ele>274.43</ele>
        <time>2018-09-17T13:22:09Z</time>
      </trkpt>
      <trkpt lat="47.65236" lon="6.19432">
        <ele>274.41</ele>
        <time>2018-09-17T13:22:11Z</time>
      </trkpt>
      <trkpt lat="47.6524" lon="6.19437">
        <ele>274.38</ele>
        <time>2018-09-17T13:22:13Z</time>
      </trkpt>
      <trkpt lat="47.65243" lon="6.19442">
        <ele>274.36</ele>
        <time>2018-09-17T13:22:15Z</time>
      </trkpt>
      <trkpt lat="47.65247" lon="6.19447">
        <ele>274.34</ele>
        <time>2018-09-17T13:22:17Z</time>
      </trkpt>
      <trkpt lat="47.65251" lon="6.19451">
        <ele>274.31</ele>
        <time>2018-09-17T13:22:19Z</time>
      </trkpt>
      <trkpt lat="47.65255" lon="6.19456">
        <ele>274.29</ele>
        <time>2018-09-17T13:22:21Z</time>
      </trkpt>
      <trkpt lat="47.65258" lon="6.19462">
        <ele>274.25</ele>
        <time>2018-09-17T13:22:24Z</time>
      </trkpt>
      <trkpt lat="47.65263" lon="6.19465">
        <ele>274.12</ele>
        <time>2018-09-17T13:22:52Z</time>
      </trkpt>
      <trkpt lat="47.65267" lon="6.19469">
        <ele>274.03</ele>
        <time>2018-09-17T13:22:57Z</time>
      </trkpt>
      <trkpt lat="47.65271" lon="6.19475">
        <ele>273.98</ele>
        <time>2018-09-17T13:23:00Z</time>
      </trkpt>
      <trkpt lat="47.65275" lon="6.19482">
        <ele>273.93</ele>
        <time>2018-09-17T13:23:03Z</time>
      </trkpt>
      <trkpt lat="47.65278" lon="6.19488">
        <ele>273.9</ele>
        <time>2018-09-17T13:23:05Z</time>
      </trkpt>
      <trkpt lat="47.6528" lon="6.19494">
        <ele>273.87</ele>
        <time>2018-09-17T13:23:07Z</time>
      </trkpt>
      <trkpt lat="47.65282" lon="6.19501">
        <ele>273.84</ele>
        <time>2018-09-17T13:23:09Z</time>
      </trkpt>
      <trkpt lat="47.65284" lon="6.19509">
        <ele>273.81</ele>
        <time>2018-09-17T13:23:11Z</time>
      </trkpt>
      <trkpt lat="47.65284" lon="6.19516">
        <ele>273.78</ele>
        <time>2018-09-17T13:23:13Z</time>
      </trkpt>
      <trkpt lat="47.65285" lon="6.19523">
        <ele>273.75</ele>
        <time>2018-09-17T13:23:15Z</time>
      </trkpt>
      <trkpt lat="47.65285" lon="6.19531">
        <ele>273.72</ele>
        <time>2018-09-17T13:23:17Z</time>
      </trkpt>
      <trkpt lat="47.65287" lon="6.19538">
        <ele>273.69</ele>
        <time>2018-09-17T13:23:19Z</time>
      </trkpt>
      <trkpt lat="47.6529" lon="6.19546">
        <ele>273.46</ele>
        <time>2018-09-17T13:23:21Z</time>
      </trkpt>
      <trkpt lat="47.65295" lon="6.19557">
        <ele>273.26</ele>
        <time>2018-09-17T13:23:23Z</time>
      </trkpt>
      <trkpt lat="47.65297" lon="6.19564">
        <ele>273.19</ele>
        <time>2018-09-17T13:23:24Z</time>
      </trkpt>
      <trkpt lat="47.653" lon="6.19571">
        <ele>273.13</ele>
        <time>2018-09-17T13:23:25Z</time>
      </trkpt>
      <trkpt lat="47.65302" lon="6.19578">
        <ele>273.08</ele>
        <time>2018-09-17T13:23:26Z</time>
      </trkpt>
      <trkpt lat="47.65309" lon="6.19601">
        <ele>273.04</ele>
        <time>2018-09-17T13:23:27Z</time>
      </trkpt>
      <trkpt lat="47.65311" lon="6.19608">
        <ele>273.01</ele>
        <time>2018-09-17T13:23:28Z</time>
      </trkpt>
      <trkpt lat="47.65314" lon="6.19615">
        <ele>272.99</ele>
        <time>2018-09-17T13:23:29Z</time>
      </trkpt>
      <trkpt lat="47.65317" lon="6.19622">
        <ele>272.97</ele>
        <time>2018-09-17T13:23:30Z</time>
      </trkpt>
      <trkpt lat="47.65319" lon="6.19628">
        <ele>272.96</ele>
        <time>2018-09-17T13:23:31Z</time>
      </trkpt>
      <trkpt lat="47.65323" lon="6.19639">
        <ele>272.95</ele>
        <time>2018-09-17T13:23:33Z</time>
      </trkpt>
      <trkpt lat="47.65326" lon="6.19648">
        <ele>272.95</ele>
        <time>2018-09-17T13:23:35Z</time>
      </trkpt>
      <trkpt lat="47.6533" lon="6.19656">
        <ele>272.96</ele>
        <time>2018-09-17T13:23:38Z</time>
      </trkpt>
      <trkpt lat="47.65332" lon="6.19662">
        <ele>272.96</ele>
        <time>2018-09-17T13:23:40Z</time>
      </trkpt>
      <trkpt lat="47.65335" lon="6.19669">
        <ele>272.96</ele>
        <time>2018-09-17T13:23:42Z</time>
      </trkpt>
      <trkpt lat="47.65338" lon="6.19676">
        <ele>272.97</ele>
        <time>2018-09-17T13:23:44Z</time>
      </trkpt>
      <trkpt lat="47.65341" lon="6.19682">
        <ele>272.97</ele>
        <time>2018-09-17T13:23:46Z</time>
      </trkpt>
      <trkpt lat="47.65344" lon="6.1969">
        <ele>272.98</ele>
        <time>2018-09-17T13:23:48Z</time>
      </trkpt>
      <trkpt lat="47.65347" lon="6.19698">
        <ele>272.98</ele>
        <time>2018-09-17T13:23:50Z</time>
      </trkpt>
      <trkpt lat="47.6535" lon="6.19705">
        <ele>272.99</ele>
        <time>2018-09-17T13:23:52Z</time>
      </trkpt>
      <trkpt lat="47.65353" lon="6.19712">
        <ele>272.99</ele>
        <time>2018-09-17T13:23:54Z</time>
      </trkpt>
      <trkpt lat="47.65357" lon="6.1972">
        <ele>273</ele>
        <time>2018-09-17T13:23:56Z</time>
      </trkpt>
      <trkpt lat="47.6536" lon="6.19727">
        <ele>273</ele>
        <time>2018-09-17T13:23:58Z</time>
      </trkpt>
      <trkpt lat="47.65364" lon="6.19734">
        <ele>273</ele>
        <time>2018-09-17T13:24:00Z</time>
      </trkpt>
      <trkpt lat="47.65367" lon="6.19741">
        <ele>273.01</ele>
        <time>2018-09-17T13:24:02Z</time>
      </trkpt>
      <trkpt lat="47.6537" lon="6.19748">
        <ele>273.01</ele>
        <time>2018-09-17T13:24:04Z</time>
      </trkpt>
      <trkpt lat="47.65373" lon="6.19755">
        <ele>273.02</ele>
        <time>2018-09-17T13:24:06Z</time>
      </trkpt>
      <trkpt lat="47.65376" lon="6.19762">
        <ele>273.02</ele>
        <time>2018-09-17T13:24:08Z</time>
      </trkpt>
      <trkpt lat="47.65379" lon="6.19768">
        <ele>273.03</ele>
        <time>2018-09-17T13:24:10Z</time>
      </trkpt>
      <trkpt lat="47.65382" lon="6.19774">
        <ele>273.04</ele>
        <time>2018-09-17T13:24:12Z</time>
      </trkpt>
      <trkpt lat="47.65386" lon="6.1978">
        <ele>273.04</ele>
        <time>2018-09-17T13:24:14Z</time>
      </trkpt>
      <trkpt lat="47.6539" lon="6.19787">
        <ele>273.04</ele>
        <time>2018-09-17T13:24:16Z</time>
      </trkpt>
      <trkpt lat="47.65393" lon="6.19793">
        <ele>273.05</ele>
        <time>2018-09-17T13:24:18Z</time>
      </trkpt>
      <trkpt lat="47.65397" lon="6.19799">
        <ele>273.05</ele>
        <time>2018-09-17T13:24:20Z</time>
      </trkpt>
      <trkpt lat="47.654" lon="6.19804">
        <ele>273.05</ele>
        <time>2018-09-17T13:24:22Z</time>
      </trkpt>
      <trkpt lat="47.65404" lon="6.19809">
        <ele>273.05</ele>
        <time>2018-09-17T13:24:24Z</time>
      </trkpt>
      <trkpt lat="47.65407" lon="6.19814">
        <ele>273.05</ele>
        <time>2018-09-17T13:24:26Z</time>
      </trkpt>
      <trkpt lat="47.65411" lon="6.1982">
        <ele>273.05</ele>
        <time>2018-09-17T13:24:28Z</time>
      </trkpt>
      <trkpt lat="47.65415" lon="6.19825">
        <ele>273.05</ele>
        <time>2018-09-17T13:24:30Z</time>
      </trkpt>
      <trkpt lat="47.65418" lon="6.19831">
        <ele>273.05</ele>
        <time>2018-09-17T13:24:32Z</time>
      </trkpt>
      <trkpt lat="47.65422" lon="6.19837">
        <ele>273.04</ele>
        <time>2018-09-17T13:24:34Z</time>
      </trkpt>
      <trkpt lat="47.65425" lon="6.19843">
        <ele>273.04</ele>
        <time>2018-09-17T13:24:36Z</time>
      </trkpt>
      <trkpt lat="47.65427" lon="6.19849">
        <ele>273.03</ele>
        <time>2018-09-17T13:24:38Z</time>
      </trkpt>
      <trkpt lat="47.6543" lon="6.19856">
        <ele>273.03</ele>
        <time>2018-09-17T13:24:40Z</time>
      </trkpt>
      <trkpt lat="47.65433" lon="6.19863">
        <ele>273.02</ele>
        <time>2018-09-17T13:24:42Z</time>
      </trkpt>
      <trkpt lat="47.65435" lon="6.1987">
        <ele>273.01</ele>
        <time>2018-09-17T13:24:44Z</time>
      </trkpt>
      <trkpt lat="47.65437" lon="6.19878">
        <ele>273</ele>
        <time>2018-09-17T13:24:45Z</time>
      </trkpt>
      <trkpt lat="47.6544" lon="6.19887">
        <ele>272.99</ele>
        <time>2018-09-17T13:24:47Z</time>
      </trkpt>
      <trkpt lat="47.65443" lon="6.19897">
        <ele>272.98</ele>
        <time>2018-09-17T13:24:49Z</time>
      </trkpt>
      <trkpt lat="47.65446" lon="6.19906">
        <ele>272.97</ele>
        <time>2018-09-17T13:24:51Z</time>
      </trkpt>
      <trkpt lat="47.65448" lon="6.19914">
        <ele>272.96</ele>
        <time>2018-09-17T13:24:53Z</time>
      </trkpt>
      <trkpt lat="47.65451" lon="6.19921">
        <ele>272.94</ele>
        <time>2018-09-17T13:24:55Z</time>
      </trkpt>
      <trkpt lat="47.65454" lon="6.19927">
        <ele>272.93</ele>
        <time>2018-09-17T13:24:57Z</time>
      </trkpt>
      <trkpt lat="47.65457" lon="6.19934">
        <ele>272.91</ele>
        <time>2018-09-17T13:24:59Z</time>
      </trkpt>
      <trkpt lat="47.6546" lon="6.1994">
        <ele>272.9</ele>
        <time>2018-09-17T13:25:01Z</time>
      </trkpt>
      <trkpt lat="47.65464" lon="6.19947">
        <ele>272.88</ele>
        <time>2018-09-17T13:25:03Z</time>
      </trkpt>
      <trkpt lat="47.65468" lon="6.19954">
        <ele>272.87</ele>
        <time>2018-09-17T13:25:05Z</time>
      </trkpt>
      <trkpt lat="47.65472" lon="6.19961">
        <ele>272.85</ele>
        <time>2018-09-17T13:25:07Z</time>
      </trkpt>
      <trkpt lat="47.65476" lon="6.19967">
        <ele>272.83</ele>
        <time>2018-09-17T13:25:09Z</time>
      </trkpt>
      <trkpt lat="47.6548" lon="6.19973">
        <ele>272.82</ele>
        <time>2018-09-17T13:25:11Z</time>
      </trkpt>
      <trkpt lat="47.65483" lon="6.19978">
        <ele>272.8</ele>
        <time>2018-09-17T13:25:13Z</time>
      </trkpt>
      <trkpt lat="47.65487" lon="6.19983">
        <ele>272.79</ele>
        <time>2018-09-17T13:25:15Z</time>
      </trkpt>
      <trkpt lat="47.65491" lon="6.1999">
        <ele>272.76</ele>
        <time>2018-09-17T13:25:18Z</time>
      </trkpt>
      <trkpt lat="47.65495" lon="6.19995">
        <ele>272.75</ele>
        <time>2018-09-17T13:25:20Z</time>
      </trkpt>
      <trkpt lat="47.65498" lon="6.19999">
        <ele>272.73</ele>
        <time>2018-09-17T13:25:22Z</time>
      </trkpt>
      <trkpt lat="47.65502" lon="6.20005">
        <ele>272.71</ele>
        <time>2018-09-17T13:25:24Z</time>
      </trkpt>
      <trkpt lat="47.65506" lon="6.2001">
        <ele>272.7</ele>
        <time>2018-09-17T13:25:26Z</time>
      </trkpt>
      <trkpt lat="47.6551" lon="6.20016">
        <ele>272.68</ele>
        <time>2018-09-17T13:25:28Z</time>
      </trkpt>
      <trkpt lat="47.65515" lon="6.20022">
        <ele>272.67</ele>
        <time>2018-09-17T13:25:30Z</time>
      </trkpt>
      <trkpt lat="47.65519" lon="6.20028">
        <ele>272.65</ele>
        <time>2018-09-17T13:25:32Z</time>
      </trkpt>
      <trkpt lat="47.65523" lon="6.20033">
        <ele>272.64</ele>
        <time>2018-09-17T13:25:34Z</time>
      </trkpt>
      <trkpt lat="47.65527" lon="6.20039">
        <ele>272.63</ele>
        <time>2018-09-17T13:25:36Z</time>
      </trkpt>
      <trkpt lat="47.65531" lon="6.20044">
        <ele>272.61</ele>
        <time>2018-09-17T13:25:38Z</time>
      </trkpt>
      <trkpt lat="47.65535" lon="6.20049">
        <ele>272.6</ele>
        <time>2018-09-17T13:25:40Z</time>
      </trkpt>
      <trkpt lat="47.65539" lon="6.20054">
        <ele>272.58</ele>
        <time>2018-09-17T13:25:42Z</time>
      </trkpt>
      <trkpt lat="47.65542" lon="6.20058">
        <ele>272.57</ele>
        <time>2018-09-17T13:25:44Z</time>
      </trkpt>
      <trkpt lat="47.65546" lon="6.20062">
        <ele>272.56</ele>
        <time>2018-09-17T13:25:46Z</time>
      </trkpt>
      <trkpt lat="47.65551" lon="6.20069">
        <ele>272.54</ele>
        <time>2018-09-17T13:25:49Z</time>
      </trkpt>
      <trkpt lat="47.65555" lon="6.20073">
        <ele>272.52</ele>
        <time>2018-09-17T13:25:51Z</time>
      </trkpt>
      <trkpt lat="47.65558" lon="6.20077">
        <ele>272.51</ele>
        <time>2018-09-17T13:25:53Z</time>
      </trkpt>
      <trkpt lat="47.65562" lon="6.20081">
        <ele>272.5</ele>
        <time>2018-09-17T13:25:55Z</time>
      </trkpt>
      <trkpt lat="47.65566" lon="6.20085">
        <ele>272.49</ele>
        <time>2018-09-17T13:25:57Z</time>
      </trkpt>
      <trkpt lat="47.6557" lon="6.20089">
        <ele>272.49</ele>
        <time>2018-09-17T13:25:59Z</time>
      </trkpt>
      <trkpt lat="47.65574" lon="6.20093">
        <ele>272.48</ele>
        <time>2018-09-17T13:26:01Z</time>
      </trkpt>
      <trkpt lat="47.65578" lon="6.20096">
        <ele>272.47</ele>
        <time>2018-09-17T13:26:03Z</time>
      </trkpt>
      <trkpt lat="47.65584" lon="6.20101">
        <ele>272.46</ele>
        <time>2018-09-17T13:26:06Z</time>
      </trkpt>
      <trkpt lat="47.65589" lon="6.20106">
        <ele>272.46</ele>
        <time>2018-09-17T13:26:09Z</time>
      </trkpt>
      <trkpt lat="47.65595" lon="6.20111">
        <ele>272.45</ele>
        <time>2018-09-17T13:26:12Z</time>
      </trkpt>
      <trkpt lat="47.65599" lon="6.20114">
        <ele>272.45</ele>
        <time>2018-09-17T13:26:14Z</time>
      </trkpt>
      <trkpt lat="47.65603" lon="6.20118">
        <ele>272.45</ele>
        <time>2018-09-17T13:26:16Z</time>
      </trkpt>
      <trkpt lat="47.65607" lon="6.20123">
        <ele>272.45</ele>
        <time>2018-09-17T13:26:18Z</time>
      </trkpt>
      <trkpt lat="47.6561" lon="6.20127">
        <ele>272.45</ele>
        <time>2018-09-17T13:26:20Z</time>
      </trkpt>
      <trkpt lat="47.65616" lon="6.20133">
        <ele>272.45</ele>
        <time>2018-09-17T13:26:23Z</time>
      </trkpt>
      <trkpt lat="47.65621" lon="6.20137">
        <ele>272.45</ele>
        <time>2018-09-17T13:26:26Z</time>
      </trkpt>
      <trkpt lat="47.65626" lon="6.2014">
        <ele>272.46</ele>
        <time>2018-09-17T13:26:29Z</time>
      </trkpt>
      <trkpt lat="47.6563" lon="6.20142">
        <ele>272.46</ele>
        <time>2018-09-17T13:26:32Z</time>
      </trkpt>
      <trkpt lat="47.65636" lon="6.2014">
        <ele>272.48</ele>
        <time>2018-09-17T13:26:36Z</time>
      </trkpt>
      <trkpt lat="47.6564" lon="6.20134">
        <ele>272.5</ele>
        <time>2018-09-17T13:26:40Z</time>
      </trkpt>
      <trkpt lat="47.65643" lon="6.20126">
        <ele>272.52</ele>
        <time>2018-09-17T13:26:44Z</time>
      </trkpt>
      <trkpt lat="47.65647" lon="6.20119">
        <ele>272.55</ele>
        <time>2018-09-17T13:26:48Z</time>
      </trkpt>
      <trkpt lat="47.6565" lon="6.20112">
        <ele>272.58</ele>
        <time>2018-09-17T13:26:52Z</time>
      </trkpt>
      <trkpt lat="47.65653" lon="6.20107">
        <ele>272.61</ele>
        <time>2018-09-17T13:26:56Z</time>
      </trkpt>
      <trkpt lat="47.65657" lon="6.20101">
        <ele>272.65</ele>
        <time>2018-09-17T13:27:00Z</time>
      </trkpt>
      <trkpt lat="47.6566" lon="6.20096">
        <ele>272.69</ele>
        <time>2018-09-17T13:27:04Z</time>
      </trkpt>
      <trkpt lat="47.65664" lon="6.2009">
        <ele>272.75</ele>
        <time>2018-09-17T13:27:09Z</time>
      </trkpt>
      <trkpt lat="47.65668" lon="6.20085">
        <ele>272.82</ele>
        <time>2018-09-17T13:27:14Z</time>
      </trkpt>
      <trkpt lat="47.65671" lon="6.2008">
        <ele>272.88</ele>
        <time>2018-09-17T13:27:18Z</time>
      </trkpt>
      <trkpt lat="47.65674" lon="6.20074">
        <ele>272.95</ele>
        <time>2018-09-17T13:27:22Z</time>
      </trkpt>
      <trkpt lat="47.65677" lon="6.20069">
        <ele>273.02</ele>
        <time>2018-09-17T13:27:26Z</time>
      </trkpt>
      <trkpt lat="47.65681" lon="6.20063">
        <ele>273.12</ele>
        <time>2018-09-17T13:27:31Z</time>
      </trkpt>
      <trkpt lat="47.65684" lon="6.20058">
        <ele>273.2</ele>
        <time>2018-09-17T13:27:35Z</time>
      </trkpt>
      <trkpt lat="47.65688" lon="6.20054">
        <ele>273.29</ele>
        <time>2018-09-17T13:27:39Z</time>
      </trkpt>
      <trkpt lat="47.65691" lon="6.2005">
        <ele>273.38</ele>
        <time>2018-09-17T13:27:43Z</time>
      </trkpt>
      <trkpt lat="47.65695" lon="6.20044">
        <ele>273.5</ele>
        <time>2018-09-17T13:27:48Z</time>
      </trkpt>
      <trkpt lat="47.65698" lon="6.20039">
        <ele>273.59</ele>
        <time>2018-09-17T13:27:52Z</time>
      </trkpt>
      <trkpt lat="47.65702" lon="6.20035">
        <ele>273.69</ele>
        <time>2018-09-17T13:27:56Z</time>
      </trkpt>
      <trkpt lat="47.65705" lon="6.2003">
        <ele>273.8</ele>
        <time>2018-09-17T13:28:00Z</time>
      </trkpt>
      <trkpt lat="47.65708" lon="6.20024">
        <ele>273.91</ele>
        <time>2018-09-17T13:28:04Z</time>
      </trkpt>
      <trkpt lat="47.65711" lon="6.20018">
        <ele>274.02</ele>
        <time>2018-09-17T13:28:08Z</time>
      </trkpt>
      <trkpt lat="47.65714" lon="6.20012">
        <ele>274.14</ele>
        <time>2018-09-17T13:28:12Z</time>
      </trkpt>
      <trkpt lat="47.65717" lon="6.20007">
        <ele>274.3</ele>
        <time>2018-09-17T13:28:17Z</time>
      </trkpt>
      <trkpt lat="47.65721" lon="6.20001">
        <ele>274.46</ele>
        <time>2018-09-17T13:28:22Z</time>
      </trkpt>
      <trkpt lat="47.65724" lon="6.19994">
        <ele>274.64</ele>
        <time>2018-09-17T13:28:27Z</time>
      </trkpt>
      <trkpt lat="47.65726" lon="6.19986">
        <ele>274.82</ele>
        <time>2018-09-17T13:28:32Z</time>
      </trkpt>
      <trkpt lat="47.65728" lon="6.1998">
        <ele>275.01</ele>
        <time>2018-09-17T13:28:37Z</time>
      </trkpt>
      <trkpt lat="47.65731" lon="6.19973">
        <ele>275.21</ele>
        <time>2018-09-17T13:28:42Z</time>
      </trkpt>
      <trkpt lat="47.65734" lon="6.19967">
        <ele>275.42</ele>
        <time>2018-09-17T13:28:47Z</time>
      </trkpt>
      <trkpt lat="47.65737" lon="6.19961">
        <ele>275.59</ele>
        <time>2018-09-17T13:28:51Z</time>
      </trkpt>
      <trkpt lat="47.65739" lon="6.19955">
        <ele>275.76</ele>
        <time>2018-09-17T13:28:55Z</time>
      </trkpt>
      <trkpt lat="47.65742" lon="6.19949">
        <ele>275.98</ele>
        <time>2018-09-17T13:29:00Z</time>
      </trkpt>
      <trkpt lat="47.65742" lon="6.19942">
        <ele>276.67</ele>
        <time>2018-09-17T13:30:06Z</time>
      </trkpt>
      <trkpt lat="47.65746" lon="6.19945">
        <ele>278.09</ele>
        <time>2018-09-17T13:31:23Z</time>
      </trkpt>
      <trkpt lat="47.6575" lon="6.19949">
        <ele>278.67</ele>
        <time>2018-09-17T13:31:36Z</time>
      </trkpt>
      <trkpt lat="47.65755" lon="6.1995">
        <ele>279.07</ele>
        <time>2018-09-17T13:31:40Z</time>
      </trkpt>
      <trkpt lat="47.65758" lon="6.19945">
        <ele>279.46</ele>
        <time>2018-09-17T13:31:44Z</time>
      </trkpt>
      <trkpt lat="47.65761" lon="6.19938">
        <ele>279.82</ele>
        <time>2018-09-17T13:31:48Z</time>
      </trkpt>
      <trkpt lat="47.65763" lon="6.19932">
        <ele>280.16</ele>
        <time>2018-09-17T13:31:52Z</time>
      </trkpt>
      <trkpt lat="47.65766" lon="6.19926">
        <ele>280.49</ele>
        <time>2018-09-17T13:31:56Z</time>
      </trkpt>
      <trkpt lat="47.65768" lon="6.19919">
        <ele>280.8</ele>
        <time>2018-09-17T13:32:00Z</time>
      </trkpt>
      <trkpt lat="47.65771" lon="6.19913">
        <ele>281.09</ele>
        <time>2018-09-17T13:32:04Z</time>
      </trkpt>
      <trkpt lat="47.65773" lon="6.19907">
        <ele>281.38</ele>
        <time>2018-09-17T13:32:08Z</time>
      </trkpt>
      <trkpt lat="47.65777" lon="6.199">
        <ele>281.71</ele>
        <time>2018-09-17T13:32:13Z</time>
      </trkpt>
      <trkpt lat="47.6578" lon="6.19894">
        <ele>281.97</ele>
        <time>2018-09-17T13:32:17Z</time>
      </trkpt>
      <trkpt lat="47.65782" lon="6.19888">
        <ele>282.22</ele>
        <time>2018-09-17T13:32:21Z</time>
      </trkpt>
      <trkpt lat="47.65784" lon="6.19881">
        <ele>282.46</ele>
        <time>2018-09-17T13:32:25Z</time>
      </trkpt>
      <trkpt lat="47.65786" lon="6.19875">
        <ele>282.69</ele>
        <time>2018-09-17T13:32:29Z</time>
      </trkpt>
      <trkpt lat="47.65789" lon="6.19869">
        <ele>282.92</ele>
        <time>2018-09-17T13:32:33Z</time>
      </trkpt>
      <trkpt lat="47.65793" lon="6.19864">
        <ele>283.14</ele>
        <time>2018-09-17T13:32:37Z</time>
      </trkpt>
      <trkpt lat="47.65797" lon="6.1986">
        <ele>283.36</ele>
        <time>2018-09-17T13:32:41Z</time>
      </trkpt>
      <trkpt lat="47.65801" lon="6.19856">
        <ele>283.57</ele>
        <time>2018-09-17T13:32:45Z</time>
      </trkpt>
      <trkpt lat="47.65805" lon="6.19852">
        <ele>283.78</ele>
        <time>2018-09-17T13:32:49Z</time>
      </trkpt>
      <trkpt lat="47.65808" lon="6.19848">
        <ele>283.98</ele>
        <time>2018-09-17T13:32:53Z</time>
      </trkpt>
      <trkpt lat="47.65812" lon="6.19843">
        <ele>284.18</ele>
        <time>2018-09-17T13:32:57Z</time>
      </trkpt>
      <trkpt lat="47.65815" lon="6.19837">
        <ele>284.37</ele>
        <time>2018-09-17T13:33:01Z</time>
      </trkpt>
      <trkpt lat="47.65818" lon="6.19832">
        <ele>284.57</ele>
        <time>2018-09-17T13:33:05Z</time>
      </trkpt>
      <trkpt lat="47.65821" lon="6.19826">
        <ele>284.76</ele>
        <time>2018-09-17T13:33:09Z</time>
      </trkpt>
      <trkpt lat="47.65824" lon="6.19821">
        <ele>284.94</ele>
        <time>2018-09-17T13:33:13Z</time>
      </trkpt>
      <trkpt lat="47.65826" lon="6.19815">
        <ele>285.13</ele>
        <time>2018-09-17T13:33:17Z</time>
      </trkpt>
      <trkpt lat="47.65829" lon="6.19808">
        <ele>285.31</ele>
        <time>2018-09-17T13:33:21Z</time>
      </trkpt>
      <trkpt lat="47.65832" lon="6.19802">
        <ele>285.5</ele>
        <time>2018-09-17T13:33:25Z</time>
      </trkpt>
      <trkpt lat="47.65835" lon="6.19796">
        <ele>285.68</ele>
        <time>2018-09-17T13:33:29Z</time>
      </trkpt>
      <trkpt lat="47.65838" lon="6.19791">
        <ele>285.86</ele>
        <time>2018-09-17T13:33:33Z</time>
      </trkpt>
      <trkpt lat="47.65841" lon="6.19785">
        <ele>286.04</ele>
        <time>2018-09-17T13:33:37Z</time>
      </trkpt>
      <trkpt lat="47.65844" lon="6.19779">
        <ele>286.22</ele>
        <time>2018-09-17T13:33:41Z</time>
      </trkpt>
      <trkpt lat="47.65848" lon="6.19774">
        <ele>286.4</ele>
        <time>2018-09-17T13:33:45Z</time>
      </trkpt>
      <trkpt lat="47.65851" lon="6.19769">
        <ele>286.58</ele>
        <time>2018-09-17T13:33:49Z</time>
      </trkpt>
      <trkpt lat="47.65855" lon="6.19764">
        <ele>286.76</ele>
        <time>2018-09-17T13:33:53Z</time>
      </trkpt>
      <trkpt lat="47.65858" lon="6.19759">
        <ele>286.94</ele>
        <time>2018-09-17T13:33:57Z</time>
      </trkpt>
      <trkpt lat="47.65861" lon="6.19754">
        <ele>287.12</ele>
        <time>2018-09-17T13:34:01Z</time>
      </trkpt>
      <trkpt lat="47.65864" lon="6.19747">
        <ele>287.3</ele>
        <time>2018-09-17T13:34:05Z</time>
      </trkpt>
      <trkpt lat="47.65867" lon="6.19742">
        <ele>287.48</ele>
        <time>2018-09-17T13:34:09Z</time>
      </trkpt>
      <trkpt lat="47.65871" lon="6.19739">
        <ele>287.67</ele>
        <time>2018-09-17T13:34:13Z</time>
      </trkpt>
      <trkpt lat="47.65876" lon="6.19736">
        <ele>287.85</ele>
        <time>2018-09-17T13:34:17Z</time>
      </trkpt>
      <trkpt lat="47.65881" lon="6.19733">
        <ele>288.04</ele>
        <time>2018-09-17T13:34:21Z</time>
      </trkpt>
      <trkpt lat="47.65885" lon="6.1973">
        <ele>288.22</ele>
        <time>2018-09-17T13:34:25Z</time>
      </trkpt>
      <trkpt lat="47.6589" lon="6.19728">
        <ele>288.41</ele>
        <time>2018-09-17T13:34:29Z</time>
      </trkpt>
      <trkpt lat="47.65895" lon="6.19725">
        <ele>288.6</ele>
        <time>2018-09-17T13:34:33Z</time>
      </trkpt>
      <trkpt lat="47.65899" lon="6.19723">
        <ele>288.78</ele>
        <time>2018-09-17T13:34:37Z</time>
      </trkpt>
      <trkpt lat="47.65903" lon="6.19721">
        <ele>288.97</ele>
        <time>2018-09-17T13:34:41Z</time>
      </trkpt>
      <trkpt lat="47.65907" lon="6.19719">
        <ele>289.16</ele>
        <time>2018-09-17T13:34:45Z</time>
      </trkpt>
      <trkpt lat="47.65912" lon="6.19717">
        <ele>289.34</ele>
        <time>2018-09-17T13:34:49Z</time>
      </trkpt>
      <trkpt lat="47.65916" lon="6.19715">
        <ele>289.53</ele>
        <time>2018-09-17T13:34:53Z</time>
      </trkpt>
      <trkpt lat="47.65921" lon="6.19713">
        <ele>289.72</ele>
        <time>2018-09-17T13:34:57Z</time>
      </trkpt>
      <trkpt lat="47.65926" lon="6.1971">
        <ele>289.9</ele>
        <time>2018-09-17T13:35:01Z</time>
      </trkpt>
      <trkpt lat="47.65931" lon="6.19709">
        <ele>290.09</ele>
        <time>2018-09-17T13:35:05Z</time>
      </trkpt>
      <trkpt lat="47.65936" lon="6.19711">
        <ele>290.28</ele>
        <time>2018-09-17T13:35:09Z</time>
      </trkpt>
      <trkpt lat="47.65939" lon="6.19716">
        <ele>290.45</ele>
        <time>2018-09-17T13:35:15Z</time>
      </trkpt>
      <trkpt lat="47.65939" lon="6.19724">
        <ele>290.75</ele>
        <time>2018-09-17T13:35:21Z</time>
      </trkpt>
      <trkpt lat="47.65936" lon="6.19731">
        <ele>290.9</ele>
        <time>2018-09-17T13:35:24Z</time>
      </trkpt>
      <trkpt lat="47.65933" lon="6.19738">
        <ele>291.07</ele>
        <time>2018-09-17T13:35:27Z</time>
      </trkpt>
      <trkpt lat="47.65931" lon="6.19745">
        <ele>291.2</ele>
        <time>2018-09-17T13:35:29Z</time>
      </trkpt>
      <trkpt lat="47.6593" lon="6.19754">
        <ele>291.71</ele>
        <time>2018-09-17T13:35:31Z</time>
      </trkpt>
      <trkpt lat="47.65929" lon="6.19766">
        <ele>292.67</ele>
        <time>2018-09-17T13:35:33Z</time>
      </trkpt>
      <trkpt lat="47.65928" lon="6.19779">
        <ele>292.92</ele>
        <time>2018-09-17T13:35:35Z</time>
      </trkpt>
      <trkpt lat="47.65927" lon="6.19792">
        <ele>293.03</ele>
        <time>2018-09-17T13:35:37Z</time>
      </trkpt>
      <trkpt lat="47.65927" lon="6.19803">
        <ele>293.13</ele>
        <time>2018-09-17T13:35:39Z</time>
      </trkpt>
      <trkpt lat="47.65927" lon="6.19813">
        <ele>293.24</ele>
        <time>2018-09-17T13:35:41Z</time>
      </trkpt>
      <trkpt lat="47.65927" lon="6.19821">
        <ele>293.37</ele>
        <time>2018-09-17T13:35:43Z</time>
      </trkpt>
      <trkpt lat="47.65927" lon="6.19829">
        <ele>293.5</ele>
        <time>2018-09-17T13:35:45Z</time>
      </trkpt>
      <trkpt lat="47.65928" lon="6.19836">
        <ele>293.64</ele>
        <time>2018-09-17T13:35:47Z</time>
      </trkpt>
      <trkpt lat="47.65929" lon="6.19843">
        <ele>293.78</ele>
        <time>2018-09-17T13:35:49Z</time>
      </trkpt>
      <trkpt lat="47.6593" lon="6.19851">
        <ele>293.93</ele>
        <time>2018-09-17T13:35:51Z</time>
      </trkpt>
      <trkpt lat="47.65931" lon="6.19861">
        <ele>294.08</ele>
        <time>2018-09-17T13:35:53Z</time>
      </trkpt>
      <trkpt lat="47.65932" lon="6.19871">
        <ele>294.23</ele>
        <time>2018-09-17T13:35:55Z</time>
      </trkpt>
      <trkpt lat="47.65933" lon="6.1988">
        <ele>294.37</ele>
        <time>2018-09-17T13:35:57Z</time>
      </trkpt>
      <trkpt lat="47.65935" lon="6.19889">
        <ele>294.52</ele>
        <time>2018-09-17T13:35:59Z</time>
      </trkpt>
      <trkpt lat="47.65937" lon="6.19899">
        <ele>294.66</ele>
        <time>2018-09-17T13:36:01Z</time>
      </trkpt>
      <trkpt lat="47.65939" lon="6.19909">
        <ele>294.8</ele>
        <time>2018-09-17T13:36:03Z</time>
      </trkpt>
      <trkpt lat="47.65941" lon="6.1992">
        <ele>294.94</ele>
        <time>2018-09-17T13:36:05Z</time>
      </trkpt>
      <trkpt lat="47.65943" lon="6.1993">
        <ele>295.07</ele>
        <time>2018-09-17T13:36:07Z</time>
      </trkpt>
      <trkpt lat="47.65944" lon="6.1994">
        <ele>295.2</ele>
        <time>2018-09-17T13:36:09Z</time>
      </trkpt>
      <trkpt lat="47.65946" lon="6.19949">
        <ele>295.33</ele>
        <time>2018-09-17T13:36:11Z</time>
      </trkpt>
      <trkpt lat="47.65947" lon="6.19957">
        <ele>295.45</ele>
        <time>2018-09-17T13:36:13Z</time>
      </trkpt>
      <trkpt lat="47.65947" lon="6.19965">
        <ele>295.58</ele>
        <time>2018-09-17T13:36:15Z</time>
      </trkpt>
      <trkpt lat="47.65946" lon="6.19974">
        <ele>295.71</ele>
        <time>2018-09-17T13:36:17Z</time>
      </trkpt>
      <trkpt lat="47.65943" lon="6.19981">
        <ele>295.83</ele>
        <time>2018-09-17T13:36:19Z</time>
      </trkpt>
      <trkpt lat="47.65941" lon="6.19988">
        <ele>295.95</ele>
        <time>2018-09-17T13:36:21Z</time>
      </trkpt>
      <trkpt lat="47.65938" lon="6.19995">
        <ele>296.07</ele>
        <time>2018-09-17T13:36:23Z</time>
      </trkpt>
      <trkpt lat="47.65936" lon="6.20002">
        <ele>296.2</ele>
        <time>2018-09-17T13:36:25Z</time>
      </trkpt>
      <trkpt lat="47.65935" lon="6.20009">
        <ele>296.32</ele>
        <time>2018-09-17T13:36:27Z</time>
      </trkpt>
      <trkpt lat="47.65934" lon="6.20017">
        <ele>296.51</ele>
        <time>2018-09-17T13:36:30Z</time>
      </trkpt>
      <trkpt lat="47.65935" lon="6.20027">
        <ele>296.69</ele>
        <time>2018-09-17T13:36:33Z</time>
      </trkpt>
      <trkpt lat="47.65935" lon="6.20036">
        <ele>296.8</ele>
        <time>2018-09-17T13:36:35Z</time>
      </trkpt>
      <trkpt lat="47.65936" lon="6.20046">
        <ele>296.92</ele>
        <time>2018-09-17T13:36:37Z</time>
      </trkpt>
      <trkpt lat="47.65937" lon="6.20056">
        <ele>297.04</ele>
        <time>2018-09-17T13:36:39Z</time>
      </trkpt>
      <trkpt lat="47.65938" lon="6.20065">
        <ele>297.16</ele>
        <time>2018-09-17T13:36:41Z</time>
      </trkpt>
      <trkpt lat="47.65939" lon="6.20073">
        <ele>297.27</ele>
        <time>2018-09-17T13:36:43Z</time>
      </trkpt>
      <trkpt lat="47.6594" lon="6.2008">
        <ele>297.39</ele>
        <time>2018-09-17T13:36:45Z</time>
      </trkpt>
      <trkpt lat="47.6594" lon="6.20087">
        <ele>297.5</ele>
        <time>2018-09-17T13:36:47Z</time>
      </trkpt>
      <trkpt lat="47.65941" lon="6.20096">
        <ele>297.66</ele>
        <time>2018-09-17T13:36:50Z</time>
      </trkpt>
      <trkpt lat="47.65941" lon="6.20106">
        <ele>297.82</ele>
        <time>2018-09-17T13:36:53Z</time>
      </trkpt>
      <trkpt lat="47.65941" lon="6.20113">
        <ele>297.92</ele>
        <time>2018-09-17T13:36:55Z</time>
      </trkpt>
      <trkpt lat="47.6594" lon="6.2012">
        <ele>298.02</ele>
        <time>2018-09-17T13:36:57Z</time>
      </trkpt>
      <trkpt lat="47.65939" lon="6.20128">
        <ele>298.11</ele>
        <time>2018-09-17T13:36:59Z</time>
      </trkpt>
      <trkpt lat="47.65938" lon="6.20135">
        <ele>298.21</ele>
        <time>2018-09-17T13:37:01Z</time>
      </trkpt>
      <trkpt lat="47.65938" lon="6.20142">
        <ele>298.3</ele>
        <time>2018-09-17T13:37:03Z</time>
      </trkpt>
      <trkpt lat="47.65937" lon="6.20152">
        <ele>298.45</ele>
        <time>2018-09-17T13:37:06Z</time>
      </trkpt>
      <trkpt lat="47.65937" lon="6.20161">
        <ele>298.59</ele>
        <time>2018-09-17T13:37:09Z</time>
      </trkpt>
      <trkpt lat="47.65938" lon="6.20171">
        <ele>298.72</ele>
        <time>2018-09-17T13:37:12Z</time>
      </trkpt>
      <trkpt lat="47.65938" lon="6.2018">
        <ele>298.81</ele>
        <time>2018-09-17T13:37:14Z</time>
      </trkpt>
      <trkpt lat="47.65938" lon="6.20188">
        <ele>298.9</ele>
        <time>2018-09-17T13:37:16Z</time>
      </trkpt>
      <trkpt lat="47.6594" lon="6.20198">
        <ele>299.03</ele>
        <time>2018-09-17T13:37:19Z</time>
      </trkpt>
      <trkpt lat="47.65942" lon="6.20204">
        <ele>299.11</ele>
        <time>2018-09-17T13:37:21Z</time>
      </trkpt>
      <trkpt lat="47.65945" lon="6.2021">
        <ele>299.19</ele>
        <time>2018-09-17T13:37:23Z</time>
      </trkpt>
      <trkpt lat="47.65948" lon="6.20217">
        <ele>299.3</ele>
        <time>2018-09-17T13:37:26Z</time>
      </trkpt>
      <trkpt lat="47.65951" lon="6.20224">
        <ele>299.4</ele>
        <time>2018-09-17T13:37:29Z</time>
      </trkpt>
      <trkpt lat="47.65953" lon="6.20232">
        <ele>299.48</ele>
        <time>2018-09-17T13:37:32Z</time>
      </trkpt>
      <trkpt lat="47.65954" lon="6.20239">
        <ele>299.53</ele>
        <time>2018-09-17T13:37:34Z</time>
      </trkpt>
      <trkpt lat="47.65954" lon="6.20248">
        <ele>299.59</ele>
        <time>2018-09-17T13:37:37Z</time>
      </trkpt>
      <trkpt lat="47.65955" lon="6.20258">
        <ele>299.65</ele>
        <time>2018-09-17T13:37:40Z</time>
      </trkpt>
      <trkpt lat="47.65956" lon="6.20266">
        <ele>299.68</ele>
        <time>2018-09-17T13:37:42Z</time>
      </trkpt>
      <trkpt lat="47.65958" lon="6.20274">
        <ele>299.71</ele>
        <time>2018-09-17T13:37:44Z</time>
      </trkpt>
      <trkpt lat="47.65959" lon="6.20281">
        <ele>299.74</ele>
        <time>2018-09-17T13:37:46Z</time>
      </trkpt>
      <trkpt lat="47.65961" lon="6.20289">
        <ele>299.76</ele>
        <time>2018-09-17T13:37:48Z</time>
      </trkpt>
      <trkpt lat="47.65963" lon="6.20297">
        <ele>299.79</ele>
        <time>2018-09-17T13:37:50Z</time>
      </trkpt>
      <trkpt lat="47.65964" lon="6.20306">
        <ele>299.81</ele>
        <time>2018-09-17T13:37:52Z</time>
      </trkpt>
      <trkpt lat="47.65966" lon="6.20313">
        <ele>299.84</ele>
        <time>2018-09-17T13:37:54Z</time>
      </trkpt>
      <trkpt lat="47.65968" lon="6.2032">
        <ele>299.86</ele>
        <time>2018-09-17T13:37:56Z</time>
      </trkpt>
      <trkpt lat="47.65971" lon="6.20329">
        <ele>299.88</ele>
        <time>2018-09-17T13:37:59Z</time>
      </trkpt>
      <trkpt lat="47.65973" lon="6.20337">
        <ele>299.9</ele>
        <time>2018-09-17T13:38:02Z</time>
      </trkpt>
      <trkpt lat="47.65976" lon="6.20345">
        <ele>299.9</ele>
        <time>2018-09-17T13:38:05Z</time>
      </trkpt>
      <trkpt lat="47.65978" lon="6.20354">
        <ele>299.9</ele>
        <time>2018-09-17T13:38:08Z</time>
      </trkpt>
      <trkpt lat="47.6598" lon="6.20364">
        <ele>299.89</ele>
        <time>2018-09-17T13:38:11Z</time>
      </trkpt>
      <trkpt lat="47.65982" lon="6.2037">
        <ele>299.89</ele>
        <time>2018-09-17T13:38:13Z</time>
      </trkpt>
      <trkpt lat="47.65984" lon="6.20376">
        <ele>299.89</ele>
        <time>2018-09-17T13:38:15Z</time>
      </trkpt>
      <trkpt lat="47.65987" lon="6.20385">
        <ele>299.9</ele>
        <time>2018-09-17T13:38:18Z</time>
      </trkpt>
      <trkpt lat="47.6599" lon="6.20391">
        <ele>299.9</ele>
        <time>2018-09-17T13:38:20Z</time>
      </trkpt>
      <trkpt lat="47.65994" lon="6.20398">
        <ele>299.9</ele>
        <time>2018-09-17T13:38:23Z</time>
      </trkpt>
      <trkpt lat="47.65997" lon="6.20404">
        <ele>299.9</ele>
        <time>2018-09-17T13:38:27Z</time>
      </trkpt>
      <trkpt lat="47.65999" lon="6.2041">
        <ele>299.87</ele>
        <time>2018-09-17T13:38:41Z</time>
      </trkpt>
      <trkpt lat="47.66001" lon="6.20419">
        <ele>299.81</ele>
        <time>2018-09-17T13:38:50Z</time>
      </trkpt>
      <trkpt lat="47.66004" lon="6.20425">
        <ele>299.77</ele>
        <time>2018-09-17T13:38:52Z</time>
      </trkpt>
      <trkpt lat="47.66007" lon="6.20431">
        <ele>299.73</ele>
        <time>2018-09-17T13:38:54Z</time>
      </trkpt>
      <trkpt lat="47.66011" lon="6.20437">
        <ele>299.69</ele>
        <time>2018-09-17T13:38:56Z</time>
      </trkpt>
      <trkpt lat="47.66014" lon="6.20444">
        <ele>299.65</ele>
        <time>2018-09-17T13:38:58Z</time>
      </trkpt>
      <trkpt lat="47.66018" lon="6.20451">
        <ele>299.6</ele>
        <time>2018-09-17T13:39:00Z</time>
      </trkpt>
      <trkpt lat="47.66021" lon="6.20457">
        <ele>299.54</ele>
        <time>2018-09-17T13:39:02Z</time>
      </trkpt>
      <trkpt lat="47.66025" lon="6.20464">
        <ele>299.46</ele>
        <time>2018-09-17T13:39:05Z</time>
      </trkpt>
      <trkpt lat="47.66028" lon="6.20471">
        <ele>299.37</ele>
        <time>2018-09-17T13:39:08Z</time>
      </trkpt>
      <trkpt lat="47.66031" lon="6.20478">
        <ele>299.28</ele>
        <time>2018-09-17T13:39:11Z</time>
      </trkpt>
      <trkpt lat="47.66035" lon="6.20484">
        <ele>299.14</ele>
        <time>2018-09-17T13:39:15Z</time>
      </trkpt>
      <trkpt lat="47.66038" lon="6.20491">
        <ele>299.03</ele>
        <time>2018-09-17T13:39:18Z</time>
      </trkpt>
      <trkpt lat="47.66042" lon="6.20499">
        <ele>298.9</ele>
        <time>2018-09-17T13:39:21Z</time>
      </trkpt>
      <trkpt lat="47.66045" lon="6.20506">
        <ele>298.77</ele>
        <time>2018-09-17T13:39:24Z</time>
      </trkpt>
      <trkpt lat="47.66049" lon="6.20512">
        <ele>298.62</ele>
        <time>2018-09-17T13:39:27Z</time>
      </trkpt>
      <trkpt lat="47.6605" lon="6.20518">
        <ele>298.46</ele>
        <time>2018-09-17T13:39:30Z</time>
      </trkpt>
      <trkpt lat="47.66053" lon="6.20526">
        <ele>298.28</ele>
        <time>2018-09-17T13:39:33Z</time>
      </trkpt>
      <trkpt lat="47.66057" lon="6.20534">
        <ele>298.1</ele>
        <time>2018-09-17T13:39:36Z</time>
      </trkpt>
      <trkpt lat="47.66058" lon="6.20541">
        <ele>297.91</ele>
        <time>2018-09-17T13:39:39Z</time>
      </trkpt>
      <trkpt lat="47.66054" lon="6.20544">
        <ele>297.67</ele>
        <time>2018-09-17T13:39:43Z</time>
      </trkpt>
      <trkpt lat="47.66047" lon="6.20541">
        <ele>297.49</ele>
        <time>2018-09-17T13:39:46Z</time>
      </trkpt>
      <trkpt lat="47.66042" lon="6.20538">
        <ele>297.37</ele>
        <time>2018-09-17T13:39:48Z</time>
      </trkpt>
      <trkpt lat="47.66038" lon="6.20535">
        <ele>297.25</ele>
        <time>2018-09-17T13:39:50Z</time>
      </trkpt>
      <trkpt lat="47.66033" lon="6.20533">
        <ele>297.14</ele>
        <time>2018-09-17T13:39:52Z</time>
      </trkpt>
      <trkpt lat="47.66027" lon="6.2053">
        <ele>297.02</ele>
        <time>2018-09-17T13:39:54Z</time>
      </trkpt>
      <trkpt lat="47.66021" lon="6.20528">
        <ele>296.91</ele>
        <time>2018-09-17T13:39:56Z</time>
      </trkpt>
      <trkpt lat="47.66015" lon="6.20525">
        <ele>296.8</ele>
        <time>2018-09-17T13:39:58Z</time>
      </trkpt>
      <trkpt lat="47.66009" lon="6.20522">
        <ele>296.69</ele>
        <time>2018-09-17T13:40:00Z</time>
      </trkpt>
      <trkpt lat="47.66003" lon="6.2052">
        <ele>296.58</ele>
        <time>2018-09-17T13:40:02Z</time>
      </trkpt>
      <trkpt lat="47.65997" lon="6.20518">
        <ele>296.47</ele>
        <time>2018-09-17T13:40:04Z</time>
      </trkpt>
      <trkpt lat="47.65992" lon="6.20515">
        <ele>296.36</ele>
        <time>2018-09-17T13:40:06Z</time>
      </trkpt>
      <trkpt lat="47.65986" lon="6.20512">
        <ele>296.25</ele>
        <time>2018-09-17T13:40:08Z</time>
      </trkpt>
      <trkpt lat="47.6598" lon="6.20509">
        <ele>296.14</ele>
        <time>2018-09-17T13:40:10Z</time>
      </trkpt>
      <trkpt lat="47.65975" lon="6.20505">
        <ele>296.03</ele>
        <time>2018-09-17T13:40:12Z</time>
      </trkpt>
      <trkpt lat="47.65969" lon="6.205">
        <ele>295.92</ele>
        <time>2018-09-17T13:40:14Z</time>
      </trkpt>
      <trkpt lat="47.65963" lon="6.20495">
        <ele>295.81</ele>
        <time>2018-09-17T13:40:16Z</time>
      </trkpt>
      <trkpt lat="47.65958" lon="6.2049">
        <ele>295.7</ele>
        <time>2018-09-17T13:40:18Z</time>
      </trkpt>
      <trkpt lat="47.65953" lon="6.20486">
        <ele>295.59</ele>
        <time>2018-09-17T13:40:20Z</time>
      </trkpt>
      <trkpt lat="47.65948" lon="6.20483">
        <ele>295.47</ele>
        <time>2018-09-17T13:40:22Z</time>
      </trkpt>
      <trkpt lat="47.65943" lon="6.20479">
        <ele>295.37</ele>
        <time>2018-09-17T13:40:24Z</time>
      </trkpt>
      <trkpt lat="47.65938" lon="6.20476">
        <ele>295.26</ele>
        <time>2018-09-17T13:40:26Z</time>
      </trkpt>
      <trkpt lat="47.65932" lon="6.20473">
        <ele>295.15</ele>
        <time>2018-09-17T13:40:28Z</time>
      </trkpt>
      <trkpt lat="47.65926" lon="6.20468">
        <ele>294.61</ele>
        <time>2018-09-17T13:40:30Z</time>
      </trkpt>
      <trkpt lat="47.6592" lon="6.20463">
        <ele>294.49</ele>
        <time>2018-09-17T13:40:32Z</time>
      </trkpt>
      <trkpt lat="47.65913" lon="6.20457">
        <ele>294.39</ele>
        <time>2018-09-17T13:40:34Z</time>
      </trkpt>
      <trkpt lat="47.65907" lon="6.20451">
        <ele>294.31</ele>
        <time>2018-09-17T13:40:36Z</time>
      </trkpt>
      <trkpt lat="47.65901" lon="6.20445">
        <ele>294.22</ele>
        <time>2018-09-17T13:40:38Z</time>
      </trkpt>
      <trkpt lat="47.65896" lon="6.2044">
        <ele>294.13</ele>
        <time>2018-09-17T13:40:40Z</time>
      </trkpt>
      <trkpt lat="47.65891" lon="6.20434">
        <ele>294.03</ele>
        <time>2018-09-17T13:40:42Z</time>
      </trkpt>
      <trkpt lat="47.65886" lon="6.20429">
        <ele>293.94</ele>
        <time>2018-09-17T13:40:44Z</time>
      </trkpt>
      <trkpt lat="47.65881" lon="6.20424">
        <ele>293.85</ele>
        <time>2018-09-17T13:40:46Z</time>
      </trkpt>
      <trkpt lat="47.65875" lon="6.20418">
        <ele>293.45</ele>
        <time>2018-09-17T13:40:48Z</time>
      </trkpt>
      <trkpt lat="47.65868" lon="6.20412">
        <ele>292.72</ele>
        <time>2018-09-17T13:40:50Z</time>
      </trkpt>
      <trkpt lat="47.65857" lon="6.20402">
        <ele>292.43</ele>
        <time>2018-09-17T13:40:51Z</time>
      </trkpt>
      <trkpt lat="47.65853" lon="6.20398">
        <ele>292.18</ele>
        <time>2018-09-17T13:40:52Z</time>
      </trkpt>
      <trkpt lat="47.65848" lon="6.20394">
        <ele>291.95</ele>
        <time>2018-09-17T13:40:53Z</time>
      </trkpt>
      <trkpt lat="47.65841" lon="6.20386">
        <ele>291.58</ele>
        <time>2018-09-17T13:40:55Z</time>
      </trkpt>
      <trkpt lat="47.65834" lon="6.20378">
        <ele>291.29</ele>
        <time>2018-09-17T13:40:57Z</time>
      </trkpt>
      <trkpt lat="47.65828" lon="6.20372">
        <ele>291.05</ele>
        <time>2018-09-17T13:40:59Z</time>
      </trkpt>
      <trkpt lat="47.65821" lon="6.20366">
        <ele>290.9</ele>
        <time>2018-09-17T13:41:01Z</time>
      </trkpt>
      <trkpt lat="47.65814" lon="6.2036">
        <ele>290.87</ele>
        <time>2018-09-17T13:41:03Z</time>
      </trkpt>
      <trkpt lat="47.65809" lon="6.20352">
        <ele>290.84</ele>
        <time>2018-09-17T13:41:05Z</time>
      </trkpt>
      <trkpt lat="47.65804" lon="6.20346">
        <ele>290.8</ele>
        <time>2018-09-17T13:41:07Z</time>
      </trkpt>
      <trkpt lat="47.65799" lon="6.20341">
        <ele>290.75</ele>
        <time>2018-09-17T13:41:10Z</time>
      </trkpt>
      <trkpt lat="47.65794" lon="6.20336">
        <ele>290.68</ele>
        <time>2018-09-17T13:41:13Z</time>
      </trkpt>
      <trkpt lat="47.6579" lon="6.20331">
        <ele>290.6</ele>
        <time>2018-09-17T13:41:16Z</time>
      </trkpt>
      <trkpt lat="47.65784" lon="6.20326">
        <ele>290.51</ele>
        <time>2018-09-17T13:41:19Z</time>
      </trkpt>
      <trkpt lat="47.65781" lon="6.20322">
        <ele>290.45</ele>
        <time>2018-09-17T13:41:21Z</time>
      </trkpt>
      <trkpt lat="47.65777" lon="6.20318">
        <ele>290.39</ele>
        <time>2018-09-17T13:41:23Z</time>
      </trkpt>
      <trkpt lat="47.65772" lon="6.20313">
        <ele>290.32</ele>
        <time>2018-09-17T13:41:25Z</time>
      </trkpt>
      <trkpt lat="47.65768" lon="6.20308">
        <ele>290.24</ele>
        <time>2018-09-17T13:41:27Z</time>
      </trkpt>
      <trkpt lat="47.65763" lon="6.20304">
        <ele>290.17</ele>
        <time>2018-09-17T13:41:29Z</time>
      </trkpt>
      <trkpt lat="47.65758" lon="6.20299">
        <ele>290.09</ele>
        <time>2018-09-17T13:41:31Z</time>
      </trkpt>
      <trkpt lat="47.65754" lon="6.20295">
        <ele>290.01</ele>
        <time>2018-09-17T13:41:33Z</time>
      </trkpt>
      <trkpt lat="47.6575" lon="6.20291">
        <ele>289.93</ele>
        <time>2018-09-17T13:41:35Z</time>
      </trkpt>
      <trkpt lat="47.65745" lon="6.20286">
        <ele>289.81</ele>
        <time>2018-09-17T13:41:38Z</time>
      </trkpt>
      <trkpt lat="47.6574" lon="6.20282">
        <ele>289.69</ele>
        <time>2018-09-17T13:41:41Z</time>
      </trkpt>
      <trkpt lat="47.65736" lon="6.20278">
        <ele>289.56</ele>
        <time>2018-09-17T13:41:44Z</time>
      </trkpt>
      <trkpt lat="47.65732" lon="6.20273">
        <ele>289.44</ele>
        <time>2018-09-17T13:41:47Z</time>
      </trkpt>
      <trkpt lat="47.65728" lon="6.20269">
        <ele>289.31</ele>
        <time>2018-09-17T13:41:50Z</time>
      </trkpt>
      <trkpt lat="47.65724" lon="6.20265">
        <ele>289.19</ele>
        <time>2018-09-17T13:41:53Z</time>
      </trkpt>
      <trkpt lat="47.6572" lon="6.2026">
        <ele>289.07</ele>
        <time>2018-09-17T13:41:56Z</time>
      </trkpt>
      <trkpt lat="47.65715" lon="6.20254">
        <ele>288.95</ele>
        <time>2018-09-17T13:41:59Z</time>
      </trkpt>
      <trkpt lat="47.65712" lon="6.20249">
        <ele>288.87</ele>
        <time>2018-09-17T13:42:01Z</time>
      </trkpt>
      <trkpt lat="47.65707" lon="6.20245">
        <ele>288.79</ele>
        <time>2018-09-17T13:42:03Z</time>
      </trkpt>
      <trkpt lat="47.65703" lon="6.2024">
        <ele>288.71</ele>
        <time>2018-09-17T13:42:05Z</time>
      </trkpt>
      <trkpt lat="47.65699" lon="6.20234">
        <ele>288.63</ele>
        <time>2018-09-17T13:42:07Z</time>
      </trkpt>
      <trkpt lat="47.65695" lon="6.20229">
        <ele>288.55</ele>
        <time>2018-09-17T13:42:09Z</time>
      </trkpt>
      <trkpt lat="47.6569" lon="6.20223">
        <ele>288.47</ele>
        <time>2018-09-17T13:42:11Z</time>
      </trkpt>
      <trkpt lat="47.65686" lon="6.20218">
        <ele>288.4</ele>
        <time>2018-09-17T13:42:13Z</time>
      </trkpt>
      <trkpt lat="47.65682" lon="6.20212">
        <ele>288.32</ele>
        <time>2018-09-17T13:42:15Z</time>
      </trkpt>
      <trkpt lat="47.65678" lon="6.20207">
        <ele>288.25</ele>
        <time>2018-09-17T13:42:17Z</time>
      </trkpt>
      <trkpt lat="47.65674" lon="6.20202">
        <ele>288.18</ele>
        <time>2018-09-17T13:42:19Z</time>
      </trkpt>
      <trkpt lat="47.65669" lon="6.20197">
        <ele>288.11</ele>
        <time>2018-09-17T13:42:21Z</time>
      </trkpt>
      <trkpt lat="47.65665" lon="6.20193">
        <ele>288.04</ele>
        <time>2018-09-17T13:42:23Z</time>
      </trkpt>
      <trkpt lat="47.65662" lon="6.20189">
        <ele>287.98</ele>
        <time>2018-09-17T13:42:25Z</time>
      </trkpt>
      <trkpt lat="47.65656" lon="6.20183">
        <ele>287.88</ele>
        <time>2018-09-17T13:42:28Z</time>
      </trkpt>
      <trkpt lat="47.65652" lon="6.20177">
        <ele>287.79</ele>
        <time>2018-09-17T13:42:31Z</time>
      </trkpt>
      <trkpt lat="47.65648" lon="6.2017">
        <ele>287.7</ele>
        <time>2018-09-17T13:42:34Z</time>
      </trkpt>
      <trkpt lat="47.65645" lon="6.20164">
        <ele>287.64</ele>
        <time>2018-09-17T13:42:36Z</time>
      </trkpt>
      <trkpt lat="47.65641" lon="6.20156">
        <ele>287.56</ele>
        <time>2018-09-17T13:42:39Z</time>
      </trkpt>
      <trkpt lat="47.65638" lon="6.20148">
        <ele>287.48</ele>
        <time>2018-09-17T13:42:42Z</time>
      </trkpt>
      <trkpt lat="47.65634" lon="6.20142">
        <ele>287.4</ele>
        <time>2018-09-17T13:42:45Z</time>
      </trkpt>
      <trkpt lat="47.65628" lon="6.20139">
        <ele>287.33</ele>
        <time>2018-09-17T13:42:48Z</time>
      </trkpt>
      <trkpt lat="47.65622" lon="6.20136">
        <ele>287.09</ele>
        <time>2018-09-17T13:42:50Z</time>
      </trkpt>
      <trkpt lat="47.65616" lon="6.2013">
        <ele>287.03</ele>
        <time>2018-09-17T13:42:52Z</time>
      </trkpt>
      <trkpt lat="47.65611" lon="6.20124">
        <ele>286.99</ele>
        <time>2018-09-17T13:42:54Z</time>
      </trkpt>
      <trkpt lat="47.65606" lon="6.20118">
        <ele>286.96</ele>
        <time>2018-09-17T13:42:56Z</time>
      </trkpt>
      <trkpt lat="47.65601" lon="6.20114">
        <ele>286.92</ele>
        <time>2018-09-17T13:42:58Z</time>
      </trkpt>
      <trkpt lat="47.65596" lon="6.20109">
        <ele>286.88</ele>
        <time>2018-09-17T13:43:00Z</time>
      </trkpt>
      <trkpt lat="47.65592" lon="6.20104">
        <ele>286.84</ele>
        <time>2018-09-17T13:43:02Z</time>
      </trkpt>
      <trkpt lat="47.65588" lon="6.201">
        <ele>286.81</ele>
        <time>2018-09-17T13:43:04Z</time>
      </trkpt>
      <trkpt lat="47.65583" lon="6.20095">
        <ele>286.77</ele>
        <time>2018-09-17T13:43:06Z</time>
      </trkpt>
      <trkpt lat="47.65578" lon="6.2009">
        <ele>286.74</ele>
        <time>2018-09-17T13:43:08Z</time>
      </trkpt>
      <trkpt lat="47.65573" lon="6.20086">
        <ele>286.7</ele>
        <time>2018-09-17T13:43:10Z</time>
      </trkpt>
      <trkpt lat="47.65568" lon="6.2008">
        <ele>286.67</ele>
        <time>2018-09-17T13:43:12Z</time>
      </trkpt>
      <trkpt lat="47.65563" lon="6.20074">
        <ele>286.64</ele>
        <time>2018-09-17T13:43:14Z</time>
      </trkpt>
      <trkpt lat="47.65559" lon="6.20068">
        <ele>286.6</ele>
        <time>2018-09-17T13:43:16Z</time>
      </trkpt>
      <trkpt lat="47.65554" lon="6.20063">
        <ele>286.57</ele>
        <time>2018-09-17T13:43:18Z</time>
      </trkpt>
      <trkpt lat="47.65549" lon="6.20057">
        <ele>286.54</ele>
        <time>2018-09-17T13:43:20Z</time>
      </trkpt>
      <trkpt lat="47.65543" lon="6.2005">
        <ele>286.4</ele>
        <time>2018-09-17T13:43:22Z</time>
      </trkpt>
      <trkpt lat="47.65538" lon="6.20044">
        <ele>286.33</ele>
        <time>2018-09-17T13:43:24Z</time>
      </trkpt>
      <trkpt lat="47.65532" lon="6.20037">
        <ele>286.29</ele>
        <time>2018-09-17T13:43:26Z</time>
      </trkpt>
      <trkpt lat="47.65527" lon="6.20031">
        <ele>286.26</ele>
        <time>2018-09-17T13:43:28Z</time>
      </trkpt>
      <trkpt lat="47.65523" lon="6.20026">
        <ele>286.23</ele>
        <time>2018-09-17T13:43:30Z</time>
      </trkpt>
      <trkpt lat="47.65518" lon="6.20021">
        <ele>286.2</ele>
        <time>2018-09-17T13:43:32Z</time>
      </trkpt>
      <trkpt lat="47.65513" lon="6.20015">
        <ele>286.17</ele>
        <time>2018-09-17T13:43:34Z</time>
      </trkpt>
      <trkpt lat="47.65508" lon="6.20009">
        <ele>286.13</ele>
        <time>2018-09-17T13:43:36Z</time>
      </trkpt>
      <trkpt lat="47.65505" lon="6.20004">
        <ele>286.1</ele>
        <time>2018-09-17T13:43:38Z</time>
      </trkpt>
      <trkpt lat="47.65501" lon="6.19999">
        <ele>286.07</ele>
        <time>2018-09-17T13:43:40Z</time>
      </trkpt>
      <trkpt lat="47.65497" lon="6.19993">
        <ele>286.03</ele>
        <time>2018-09-17T13:43:42Z</time>
      </trkpt>
      <trkpt lat="47.65492" lon="6.19987">
        <ele>286</ele>
        <time>2018-09-17T13:43:44Z</time>
      </trkpt>
      <trkpt lat="47.65487" lon="6.1998">
        <ele>285.72</ele>
        <time>2018-09-17T13:43:46Z</time>
      </trkpt>
      <trkpt lat="47.65482" lon="6.19972">
        <ele>285.47</ele>
        <time>2018-09-17T13:43:48Z</time>
      </trkpt>
      <trkpt lat="47.65476" lon="6.19963">
        <ele>285.28</ele>
        <time>2018-09-17T13:43:50Z</time>
      </trkpt>
      <trkpt lat="47.65471" lon="6.19954">
        <ele>285.17</ele>
        <time>2018-09-17T13:43:52Z</time>
      </trkpt>
      <trkpt lat="47.65466" lon="6.19946">
        <ele>285.15</ele>
        <time>2018-09-17T13:43:54Z</time>
      </trkpt>
      <trkpt lat="47.65462" lon="6.19939">
        <ele>285.14</ele>
        <time>2018-09-17T13:43:56Z</time>
      </trkpt>
      <trkpt lat="47.65459" lon="6.19932">
        <ele>285.12</ele>
        <time>2018-09-17T13:43:58Z</time>
      </trkpt>
      <trkpt lat="47.65456" lon="6.19926">
        <ele>285.09</ele>
        <time>2018-09-17T13:44:01Z</time>
      </trkpt>
      <trkpt lat="47.65453" lon="6.19918">
        <ele>285.06</ele>
        <time>2018-09-17T13:44:04Z</time>
      </trkpt>
      <trkpt lat="47.6545" lon="6.19909">
        <ele>285.02</ele>
        <time>2018-09-17T13:44:07Z</time>
      </trkpt>
      <trkpt lat="47.65448" lon="6.19903">
        <ele>284.99</ele>
        <time>2018-09-17T13:44:09Z</time>
      </trkpt>
      <trkpt lat="47.65446" lon="6.19897">
        <ele>284.96</ele>
        <time>2018-09-17T13:44:11Z</time>
      </trkpt>
      <trkpt lat="47.65444" lon="6.19891">
        <ele>284.93</ele>
        <time>2018-09-17T13:44:13Z</time>
      </trkpt>
      <trkpt lat="47.65441" lon="6.19882">
        <ele>284.89</ele>
        <time>2018-09-17T13:44:16Z</time>
      </trkpt>
      <trkpt lat="47.65439" lon="6.19876">
        <ele>284.85</ele>
        <time>2018-09-17T13:44:18Z</time>
      </trkpt>
      <trkpt lat="47.65436" lon="6.19868">
        <ele>284.82</ele>
        <time>2018-09-17T13:44:20Z</time>
      </trkpt>
      <trkpt lat="47.65433" lon="6.1986">
        <ele>284.79</ele>
        <time>2018-09-17T13:44:22Z</time>
      </trkpt>
      <trkpt lat="47.65429" lon="6.1985">
        <ele>284.76</ele>
        <time>2018-09-17T13:44:24Z</time>
      </trkpt>
      <trkpt lat="47.65425" lon="6.19841">
        <ele>284.73</ele>
        <time>2018-09-17T13:44:26Z</time>
      </trkpt>
      <trkpt lat="47.65421" lon="6.19832">
        <ele>284.7</ele>
        <time>2018-09-17T13:44:28Z</time>
      </trkpt>
      <trkpt lat="47.65416" lon="6.19824">
        <ele>284.67</ele>
        <time>2018-09-17T13:44:30Z</time>
      </trkpt>
      <trkpt lat="47.65412" lon="6.19816">
        <ele>284.65</ele>
        <time>2018-09-17T13:44:32Z</time>
      </trkpt>
      <trkpt lat="47.65407" lon="6.19809">
        <ele>284.62</ele>
        <time>2018-09-17T13:44:34Z</time>
      </trkpt>
      <trkpt lat="47.65402" lon="6.19801">
        <ele>284.59</ele>
        <time>2018-09-17T13:44:36Z</time>
      </trkpt>
      <trkpt lat="47.65397" lon="6.19794">
        <ele>284.56</ele>
        <time>2018-09-17T13:44:38Z</time>
      </trkpt>
      <trkpt lat="47.65393" lon="6.19786">
        <ele>284.53</ele>
        <time>2018-09-17T13:44:40Z</time>
      </trkpt>
      <trkpt lat="47.65389" lon="6.19779">
        <ele>284.5</ele>
        <time>2018-09-17T13:44:42Z</time>
      </trkpt>
      <trkpt lat="47.65385" lon="6.19771">
        <ele>284.47</ele>
        <time>2018-09-17T13:44:44Z</time>
      </trkpt>
      <trkpt lat="47.6538" lon="6.19761">
        <ele>284.31</ele>
        <time>2018-09-17T13:44:46Z</time>
      </trkpt>
      <trkpt lat="47.65376" lon="6.19753">
        <ele>284.09</ele>
        <time>2018-09-17T13:44:48Z</time>
      </trkpt>
      <trkpt lat="47.65371" lon="6.19743">
        <ele>283.91</ele>
        <time>2018-09-17T13:44:50Z</time>
      </trkpt>
      <trkpt lat="47.65367" lon="6.19734">
        <ele>283.77</ele>
        <time>2018-09-17T13:44:52Z</time>
      </trkpt>
      <trkpt lat="47.65359" lon="6.19717">
        <ele>283.67</ele>
        <time>2018-09-17T13:44:54Z</time>
      </trkpt>
      <trkpt lat="47.65355" lon="6.19707">
        <ele>283.62</ele>
        <time>2018-09-17T13:44:56Z</time>
      </trkpt>
      <trkpt lat="47.65352" lon="6.19698">
        <ele>283.6</ele>
        <time>2018-09-17T13:44:58Z</time>
      </trkpt>
      <trkpt lat="47.65349" lon="6.19692">
        <ele>283.59</ele>
        <time>2018-09-17T13:45:00Z</time>
      </trkpt>
      <trkpt lat="47.65345" lon="6.19684">
        <ele>283.58</ele>
        <time>2018-09-17T13:45:03Z</time>
      </trkpt>
      <trkpt lat="47.65342" lon="6.19676">
        <ele>283.52</ele>
        <time>2018-09-17T13:45:05Z</time>
      </trkpt>
      <trkpt lat="47.65338" lon="6.19668">
        <ele>283.46</ele>
        <time>2018-09-17T13:45:07Z</time>
      </trkpt>
      <trkpt lat="47.65334" lon="6.19659">
        <ele>283.35</ele>
        <time>2018-09-17T13:45:09Z</time>
      </trkpt>
      <trkpt lat="47.65328" lon="6.19646">
        <ele>283.29</ele>
        <time>2018-09-17T13:45:10Z</time>
      </trkpt>
      <trkpt lat="47.65326" lon="6.1964">
        <ele>283.24</ele>
        <time>2018-09-17T13:45:11Z</time>
      </trkpt>
      <trkpt lat="47.65324" lon="6.19633">
        <ele>283.2</ele>
        <time>2018-09-17T13:45:12Z</time>
      </trkpt>
      <trkpt lat="47.65322" lon="6.19626">
        <ele>283.16</ele>
        <time>2018-09-17T13:45:13Z</time>
      </trkpt>
      <trkpt lat="47.6532" lon="6.1962">
        <ele>283.12</ele>
        <time>2018-09-17T13:45:14Z</time>
      </trkpt>
      <trkpt lat="47.65316" lon="6.19609">
        <ele>283.08</ele>
        <time>2018-09-17T13:45:16Z</time>
      </trkpt>
      <trkpt lat="47.65314" lon="6.196">
        <ele>283.07</ele>
        <time>2018-09-17T13:45:18Z</time>
      </trkpt>
      <trkpt lat="47.65312" lon="6.19594">
        <ele>283.06</ele>
        <time>2018-09-17T13:45:20Z</time>
      </trkpt>
      <trkpt lat="47.65309" lon="6.19586">
        <ele>283.05</ele>
        <time>2018-09-17T13:45:23Z</time>
      </trkpt>
      <trkpt lat="47.65306" lon="6.19579">
        <ele>283.04</ele>
        <time>2018-09-17T13:45:26Z</time>
      </trkpt>
      <trkpt lat="47.65303" lon="6.19572">
        <ele>283.03</ele>
        <time>2018-09-17T13:45:29Z</time>
      </trkpt>
      <trkpt lat="47.653" lon="6.19565">
        <ele>283.01</ele>
        <time>2018-09-17T13:45:32Z</time>
      </trkpt>
      <trkpt lat="47.65297" lon="6.19558">
        <ele>282.98</ele>
        <time>2018-09-17T13:45:35Z</time>
      </trkpt>
      <trkpt lat="47.65294" lon="6.19551">
        <ele>282.95</ele>
        <time>2018-09-17T13:45:38Z</time>
      </trkpt>
      <trkpt lat="47.65291" lon="6.19543">
        <ele>282.92</ele>
        <time>2018-09-17T13:45:41Z</time>
      </trkpt>
      <trkpt lat="47.6529" lon="6.19534">
        <ele>282.89</ele>
        <time>2018-09-17T13:45:44Z</time>
      </trkpt>
      <trkpt lat="47.65289" lon="6.19524">
        <ele>282.86</ele>
        <time>2018-09-17T13:45:47Z</time>
      </trkpt>
      <trkpt lat="47.65289" lon="6.19516">
        <ele>282.84</ele>
        <time>2018-09-17T13:45:49Z</time>
      </trkpt>
      <trkpt lat="47.65287" lon="6.19508">
        <ele>282.82</ele>
        <time>2018-09-17T13:45:51Z</time>
      </trkpt>
      <trkpt lat="47.65284" lon="6.19501">
        <ele>282.8</ele>
        <time>2018-09-17T13:45:53Z</time>
      </trkpt>
      <trkpt lat="47.65282" lon="6.19494">
        <ele>282.79</ele>
        <time>2018-09-17T13:45:55Z</time>
      </trkpt>
      <trkpt lat="47.65279" lon="6.19487">
        <ele>282.77</ele>
        <time>2018-09-17T13:45:57Z</time>
      </trkpt>
      <trkpt lat="47.65276" lon="6.19481">
        <ele>282.75</ele>
        <time>2018-09-17T13:45:59Z</time>
      </trkpt>
      <trkpt lat="47.65272" lon="6.19475">
        <ele>282.74</ele>
        <time>2018-09-17T13:46:01Z</time>
      </trkpt>
      <trkpt lat="47.65269" lon="6.19469">
        <ele>282.72</ele>
        <time>2018-09-17T13:46:03Z</time>
      </trkpt>
      <trkpt lat="47.65266" lon="6.19464">
        <ele>282.71</ele>
        <time>2018-09-17T13:46:05Z</time>
      </trkpt>
      <trkpt lat="47.65262" lon="6.19459">
        <ele>282.7</ele>
        <time>2018-09-17T13:46:07Z</time>
      </trkpt>
      <trkpt lat="47.65258" lon="6.19455">
        <ele>282.68</ele>
        <time>2018-09-17T13:46:09Z</time>
      </trkpt>
      <trkpt lat="47.65252" lon="6.19449">
        <ele>282.66</ele>
        <time>2018-09-17T13:46:12Z</time>
      </trkpt>
      <trkpt lat="47.65247" lon="6.19443">
        <ele>282.64</ele>
        <time>2018-09-17T13:46:15Z</time>
      </trkpt>
      <trkpt lat="47.65242" lon="6.19438">
        <ele>282.63</ele>
        <time>2018-09-17T13:46:17Z</time>
      </trkpt>
      <trkpt lat="47.65238" lon="6.19433">
        <ele>282.61</ele>
        <time>2018-09-17T13:46:19Z</time>
      </trkpt>
      <trkpt lat="47.65235" lon="6.19428">
        <ele>282.6</ele>
        <time>2018-09-17T13:46:21Z</time>
      </trkpt>
      <trkpt lat="47.6523" lon="6.19421">
        <ele>282.58</ele>
        <time>2018-09-17T13:46:23Z</time>
      </trkpt>
      <trkpt lat="47.65227" lon="6.19414">
        <ele>282.56</ele>
        <time>2018-09-17T13:46:25Z</time>
      </trkpt>
      <trkpt lat="47.65223" lon="6.19407">
        <ele>282.55</ele>
        <time>2018-09-17T13:46:27Z</time>
      </trkpt>
      <trkpt lat="47.6522" lon="6.19401">
        <ele>282.53</ele>
        <time>2018-09-17T13:46:29Z</time>
      </trkpt>
      <trkpt lat="47.65217" lon="6.19396">
        <ele>282.51</ele>
        <time>2018-09-17T13:46:31Z</time>
      </trkpt>
      <trkpt lat="47.65214" lon="6.1939">
        <ele>282.49</ele>
        <time>2018-09-17T13:46:33Z</time>
      </trkpt>
      <trkpt lat="47.65212" lon="6.19384">
        <ele>282.46</ele>
        <time>2018-09-17T13:46:35Z</time>
      </trkpt>
      <trkpt lat="47.65207" lon="6.19376">
        <ele>282.43</ele>
        <time>2018-09-17T13:46:38Z</time>
      </trkpt>
      <trkpt lat="47.65203" lon="6.19368">
        <ele>282.4</ele>
        <time>2018-09-17T13:46:41Z</time>
      </trkpt>
      <trkpt lat="47.65198" lon="6.19361">
        <ele>282.37</ele>
        <time>2018-09-17T13:46:44Z</time>
      </trkpt>
      <trkpt lat="47.65195" lon="6.19355">
        <ele>282.33</ele>
        <time>2018-09-17T13:46:47Z</time>
      </trkpt>
      <trkpt lat="47.65191" lon="6.19348">
        <ele>282.3</ele>
        <time>2018-09-17T13:46:50Z</time>
      </trkpt>
      <trkpt lat="47.65187" lon="6.19341">
        <ele>282.27</ele>
        <time>2018-09-17T13:46:53Z</time>
      </trkpt>
      <trkpt lat="47.65183" lon="6.19335">
        <ele>282.24</ele>
        <time>2018-09-17T13:46:56Z</time>
      </trkpt>
      <trkpt lat="47.65179" lon="6.19328">
        <ele>282.21</ele>
        <time>2018-09-17T13:46:59Z</time>
      </trkpt>
      <trkpt lat="47.65175" lon="6.19322">
        <ele>282.18</ele>
        <time>2018-09-17T13:47:02Z</time>
      </trkpt>
      <trkpt lat="47.6517" lon="6.19317">
        <ele>282.15</ele>
        <time>2018-09-17T13:47:05Z</time>
      </trkpt>
      <trkpt lat="47.65165" lon="6.19312">
        <ele>282.12</ele>
        <time>2018-09-17T13:47:08Z</time>
      </trkpt>
      <trkpt lat="47.6516" lon="6.19306">
        <ele>282.09</ele>
        <time>2018-09-17T13:47:11Z</time>
      </trkpt>
      <trkpt lat="47.65157" lon="6.19301">
        <ele>282.07</ele>
        <time>2018-09-17T13:47:13Z</time>
      </trkpt>
      <trkpt lat="47.65151" lon="6.19294">
        <ele>282.04</ele>
        <time>2018-09-17T13:47:16Z</time>
      </trkpt>
      <trkpt lat="47.65147" lon="6.19289">
        <ele>282.03</ele>
        <time>2018-09-17T13:47:18Z</time>
      </trkpt>
      <trkpt lat="47.65142" lon="6.19284">
        <ele>282.01</ele>
        <time>2018-09-17T13:47:20Z</time>
      </trkpt>
      <trkpt lat="47.65138" lon="6.1928">
        <ele>281.99</ele>
        <time>2018-09-17T13:47:22Z</time>
      </trkpt>
      <trkpt lat="47.65134" lon="6.19275">
        <ele>281.97</ele>
        <time>2018-09-17T13:47:24Z</time>
      </trkpt>
      <trkpt lat="47.6513" lon="6.19271">
        <ele>281.95</ele>
        <time>2018-09-17T13:47:26Z</time>
      </trkpt>
      <trkpt lat="47.65125" lon="6.19264">
        <ele>281.93</ele>
        <time>2018-09-17T13:47:28Z</time>
      </trkpt>
      <trkpt lat="47.6512" lon="6.19258">
        <ele>281.85</ele>
        <time>2018-09-17T13:47:30Z</time>
      </trkpt>
      <trkpt lat="47.65114" lon="6.1925">
        <ele>281.7</ele>
        <time>2018-09-17T13:47:32Z</time>
      </trkpt>
      <trkpt lat="47.65108" lon="6.19242">
        <ele>281.59</ele>
        <time>2018-09-17T13:47:34Z</time>
      </trkpt>
      <trkpt lat="47.65103" lon="6.19234">
        <ele>281.5</ele>
        <time>2018-09-17T13:47:36Z</time>
      </trkpt>
      <trkpt lat="47.65097" lon="6.19226">
        <ele>281.44</ele>
        <time>2018-09-17T13:47:38Z</time>
      </trkpt>
      <trkpt lat="47.65092" lon="6.19218">
        <ele>281.41</ele>
        <time>2018-09-17T13:47:40Z</time>
      </trkpt>
      <trkpt lat="47.65087" lon="6.19211">
        <ele>281.4</ele>
        <time>2018-09-17T13:47:42Z</time>
      </trkpt>
      <trkpt lat="47.65082" lon="6.19203">
        <ele>281.39</ele>
        <time>2018-09-17T13:47:44Z</time>
      </trkpt>
      <trkpt lat="47.65077" lon="6.19195">
        <ele>281.37</ele>
        <time>2018-09-17T13:47:46Z</time>
      </trkpt>
      <trkpt lat="47.65072" lon="6.19188">
        <ele>281.36</ele>
        <time>2018-09-17T13:47:48Z</time>
      </trkpt>
      <trkpt lat="47.65067" lon="6.1918">
        <ele>281.36</ele>
        <time>2018-09-17T13:47:50Z</time>
      </trkpt>
      <trkpt lat="47.65062" lon="6.19172">
        <ele>281.35</ele>
        <time>2018-09-17T13:47:52Z</time>
      </trkpt>
      <trkpt lat="47.65053" lon="6.19159">
        <ele>281.31</ele>
        <time>2018-09-17T13:47:54Z</time>
      </trkpt>
      <trkpt lat="47.65047" lon="6.1915">
        <ele>281.24</ele>
        <time>2018-09-17T13:47:56Z</time>
      </trkpt>
      <trkpt lat="47.65042" lon="6.19141">
        <ele>281.19</ele>
        <time>2018-09-17T13:47:58Z</time>
      </trkpt>
      <trkpt lat="47.65036" lon="6.19133">
        <ele>281.14</ele>
        <time>2018-09-17T13:48:00Z</time>
      </trkpt>
      <trkpt lat="47.65031" lon="6.19124">
        <ele>281.09</ele>
        <time>2018-09-17T13:48:02Z</time>
      </trkpt>
      <trkpt lat="47.65026" lon="6.19115">
        <ele>281.05</ele>
        <time>2018-09-17T13:48:04Z</time>
      </trkpt>
      <trkpt lat="47.6502" lon="6.19108">
        <ele>281.04</ele>
        <time>2018-09-17T13:48:06Z</time>
      </trkpt>
      <trkpt lat="47.65016" lon="6.19102">
        <ele>281.03</ele>
        <time>2018-09-17T13:48:08Z</time>
      </trkpt>
      <trkpt lat="47.65011" lon="6.19095">
        <ele>281.03</ele>
        <time>2018-09-17T13:48:10Z</time>
      </trkpt>
      <trkpt lat="47.65007" lon="6.19088">
        <ele>281.02</ele>
        <time>2018-09-17T13:48:13Z</time>
      </trkpt>
      <trkpt lat="47.65004" lon="6.19083">
        <ele>281.01</ele>
        <time>2018-09-17T13:48:15Z</time>
      </trkpt>
      <trkpt lat="47.65" lon="6.19076">
        <ele>281</ele>
        <time>2018-09-17T13:48:17Z</time>
      </trkpt>
      <trkpt lat="47.64997" lon="6.19069">
        <ele>280.98</ele>
        <time>2018-09-17T13:48:19Z</time>
      </trkpt>
      <trkpt lat="47.64993" lon="6.19061">
        <ele>280.97</ele>
        <time>2018-09-17T13:48:21Z</time>
      </trkpt>
      <trkpt lat="47.6499" lon="6.19054">
        <ele>280.95</ele>
        <time>2018-09-17T13:48:23Z</time>
      </trkpt>
      <trkpt lat="47.64986" lon="6.19046">
        <ele>280.94</ele>
        <time>2018-09-17T13:48:25Z</time>
      </trkpt>
      <trkpt lat="47.64983" lon="6.19039">
        <ele>280.92</ele>
        <time>2018-09-17T13:48:27Z</time>
      </trkpt>
      <trkpt lat="47.64979" lon="6.19031">
        <ele>280.9</ele>
        <time>2018-09-17T13:48:29Z</time>
      </trkpt>
      <trkpt lat="47.64976" lon="6.19025">
        <ele>280.88</ele>
        <time>2018-09-17T13:48:31Z</time>
      </trkpt>
      <trkpt lat="47.64972" lon="6.19017">
        <ele>280.86</ele>
        <time>2018-09-17T13:48:33Z</time>
      </trkpt>
      <trkpt lat="47.64968" lon="6.1901">
        <ele>280.84</ele>
        <time>2018-09-17T13:48:35Z</time>
      </trkpt>
      <trkpt lat="47.64963" lon="6.19001">
        <ele>280.82</ele>
        <time>2018-09-17T13:48:37Z</time>
      </trkpt>
      <trkpt lat="47.64959" lon="6.18994">
        <ele>280.8</ele>
        <time>2018-09-17T13:48:39Z</time>
      </trkpt>
      <trkpt lat="47.64954" lon="6.18986">
        <ele>280.78</ele>
        <time>2018-09-17T13:48:41Z</time>
      </trkpt>
      <trkpt lat="47.6495" lon="6.18979">
        <ele>280.75</ele>
        <time>2018-09-17T13:48:43Z</time>
      </trkpt>
      <trkpt lat="47.64946" lon="6.18973">
        <ele>280.73</ele>
        <time>2018-09-17T13:48:45Z</time>
      </trkpt>
      <trkpt lat="47.64942" lon="6.18964">
        <ele>280.53</ele>
        <time>2018-09-17T13:48:47Z</time>
      </trkpt>
      <trkpt lat="47.64937" lon="6.18958">
        <ele>280.35</ele>
        <time>2018-09-17T13:48:49Z</time>
      </trkpt>
      <trkpt lat="47.64932" lon="6.1895">
        <ele>280.3</ele>
        <time>2018-09-17T13:48:51Z</time>
      </trkpt>
      <trkpt lat="47.64927" lon="6.18943">
        <ele>280.29</ele>
        <time>2018-09-17T13:48:53Z</time>
      </trkpt>
      <trkpt lat="47.64923" lon="6.18935">
        <ele>280.27</ele>
        <time>2018-09-17T13:48:55Z</time>
      </trkpt>
      <trkpt lat="47.64918" lon="6.18928">
        <ele>280.25</ele>
        <time>2018-09-17T13:48:57Z</time>
      </trkpt>
      <trkpt lat="47.64913" lon="6.1892">
        <ele>280.23</ele>
        <time>2018-09-17T13:48:59Z</time>
      </trkpt>
      <trkpt lat="47.64907" lon="6.18913">
        <ele>280.21</ele>
        <time>2018-09-17T13:49:01Z</time>
      </trkpt>
      <trkpt lat="47.64902" lon="6.18906">
        <ele>280.19</ele>
        <time>2018-09-17T13:49:03Z</time>
      </trkpt>
      <trkpt lat="47.64897" lon="6.189">
        <ele>280.17</ele>
        <time>2018-09-17T13:49:05Z</time>
      </trkpt>
      <trkpt lat="47.64893" lon="6.18893">
        <ele>280.15</ele>
        <time>2018-09-17T13:49:07Z</time>
      </trkpt>
      <trkpt lat="47.64889" lon="6.18886">
        <ele>280.13</ele>
        <time>2018-09-17T13:49:09Z</time>
      </trkpt>
      <trkpt lat="47.64886" lon="6.18879">
        <ele>280.1</ele>
        <time>2018-09-17T13:49:11Z</time>
      </trkpt>
      <trkpt lat="47.64883" lon="6.18872">
        <ele>280.08</ele>
        <time>2018-09-17T13:49:13Z</time>
      </trkpt>
      <trkpt lat="47.6488" lon="6.18866">
        <ele>280.05</ele>
        <time>2018-09-17T13:49:15Z</time>
      </trkpt>
      <trkpt lat="47.64875" lon="6.1886">
        <ele>280.01</ele>
        <time>2018-09-17T13:49:18Z</time>
      </trkpt>
      <trkpt lat="47.64868" lon="6.18861">
        <ele>279.97</ele>
        <time>2018-09-17T13:49:21Z</time>
      </trkpt>
      <trkpt lat="47.64862" lon="6.18865">
        <ele>279.94</ele>
        <time>2018-09-17T13:49:23Z</time>
      </trkpt>
      <trkpt lat="47.64856" lon="6.18868">
        <ele>279.9</ele>
        <time>2018-09-17T13:49:25Z</time>
      </trkpt>
      <trkpt lat="47.6485" lon="6.1887">
        <ele>279.87</ele>
        <time>2018-09-17T13:49:27Z</time>
      </trkpt>
      <trkpt lat="47.64845" lon="6.18873">
        <ele>279.83</ele>
        <time>2018-09-17T13:49:29Z</time>
      </trkpt>
      <trkpt lat="47.64841" lon="6.18876">
        <ele>279.78</ele>
        <time>2018-09-17T13:49:31Z</time>
      </trkpt>
      <trkpt lat="47.64836" lon="6.18878">
        <ele>279.74</ele>
        <time>2018-09-17T13:49:33Z</time>
      </trkpt>
      <trkpt lat="47.64831" lon="6.1888">
        <ele>279.69</ele>
        <time>2018-09-17T13:49:35Z</time>
      </trkpt>
      <trkpt lat="47.64827" lon="6.18879">
        <ele>279.65</ele>
        <time>2018-09-17T13:49:37Z</time>
      </trkpt>
      <trkpt lat="47.64822" lon="6.18877">
        <ele>279.6</ele>
        <time>2018-09-17T13:49:39Z</time>
      </trkpt>
      <trkpt lat="47.64817" lon="6.18873">
        <ele>279.55</ele>
        <time>2018-09-17T13:49:41Z</time>
      </trkpt>
      <trkpt lat="47.64814" lon="6.18867">
        <ele>279.5</ele>
        <time>2018-09-17T13:49:43Z</time>
      </trkpt>
      <trkpt lat="47.64812" lon="6.18861">
        <ele>279.45</ele>
        <time>2018-09-17T13:49:45Z</time>
      </trkpt>
      <trkpt lat="47.64809" lon="6.18855">
        <ele>279.4</ele>
        <time>2018-09-17T13:49:47Z</time>
      </trkpt>
      <trkpt lat="47.64807" lon="6.18849">
        <ele>279.35</ele>
        <time>2018-09-17T13:49:49Z</time>
      </trkpt>
      <trkpt lat="47.64806" lon="6.18842">
        <ele>279.3</ele>
        <time>2018-09-17T13:49:51Z</time>
      </trkpt>
      <trkpt lat="47.64804" lon="6.18835">
        <ele>279.25</ele>
        <time>2018-09-17T13:49:53Z</time>
      </trkpt>
      <trkpt lat="47.64803" lon="6.18829">
        <ele>279.19</ele>
        <time>2018-09-17T13:49:55Z</time>
      </trkpt>
      <trkpt lat="47.64802" lon="6.18822">
        <ele>279.14</ele>
        <time>2018-09-17T13:49:57Z</time>
      </trkpt>
      <trkpt lat="47.648" lon="6.18816">
        <ele>279.08</ele>
        <time>2018-09-17T13:49:59Z</time>
      </trkpt>
      <trkpt lat="47.64798" lon="6.18809">
        <ele>279.03</ele>
        <time>2018-09-17T13:50:01Z</time>
      </trkpt>
      <trkpt lat="47.64796" lon="6.18802">
        <ele>278.97</ele>
        <time>2018-09-17T13:50:03Z</time>
      </trkpt>
      <trkpt lat="47.64794" lon="6.18796">
        <ele>278.91</ele>
        <time>2018-09-17T13:50:05Z</time>
      </trkpt>
      <trkpt lat="47.64792" lon="6.18787">
        <ele>278.82</ele>
        <time>2018-09-17T13:50:08Z</time>
      </trkpt>
      <trkpt lat="47.64791" lon="6.18781">
        <ele>278.76</ele>
        <time>2018-09-17T13:50:15Z</time>
      </trkpt>
      <trkpt lat="47.64789" lon="6.18775">
        <ele>278.45</ele>
        <time>2018-09-17T13:50:26Z</time>
      </trkpt>
      <trkpt lat="47.64787" lon="6.18769">
        <ele>278.02</ele>
        <time>2018-09-17T13:51:11Z</time>
      </trkpt>
      <trkpt lat="47.64783" lon="6.18763">
        <ele>277.86</ele>
        <time>2018-09-17T13:51:15Z</time>
      </trkpt>
      <trkpt lat="47.64779" lon="6.18758">
        <ele>277.74</ele>
        <time>2018-09-17T13:51:18Z</time>
      </trkpt>
      <trkpt lat="47.64776" lon="6.18752">
        <ele>277.66</ele>
        <time>2018-09-17T13:51:20Z</time>
      </trkpt>
      <trkpt lat="47.64771" lon="6.18746">
        <ele>277.59</ele>
        <time>2018-09-17T13:51:22Z</time>
      </trkpt>
      <trkpt lat="47.64767" lon="6.1874">
        <ele>277.51</ele>
        <time>2018-09-17T13:51:24Z</time>
      </trkpt>
      <trkpt lat="47.64762" lon="6.18732">
        <ele>277.21</ele>
        <time>2018-09-17T13:51:26Z</time>
      </trkpt>
      <trkpt lat="47.64758" lon="6.18724">
        <ele>276.68</ele>
        <time>2018-09-17T13:51:28Z</time>
      </trkpt>
      <trkpt lat="47.64749" lon="6.18708">
        <ele>276.28</ele>
        <time>2018-09-17T13:51:30Z</time>
      </trkpt>
      <trkpt lat="47.64744" lon="6.18701">
        <ele>276.1</ele>
        <time>2018-09-17T13:51:32Z</time>
      </trkpt>
      <trkpt lat="47.64738" lon="6.18693">
        <ele>275.88</ele>
        <time>2018-09-17T13:51:34Z</time>
      </trkpt>
      <trkpt lat="47.64733" lon="6.18687">
        <ele>275.81</ele>
        <time>2018-09-17T13:51:37Z</time>
      </trkpt>
      <trkpt lat="47.64729" lon="6.18682">
        <ele>275.78</ele>
        <time>2018-09-17T13:51:39Z</time>
      </trkpt>
      <trkpt lat="47.64724" lon="6.18676">
        <ele>275.76</ele>
        <time>2018-09-17T13:51:41Z</time>
      </trkpt>
      <trkpt lat="47.6472" lon="6.18671">
        <ele>275.73</ele>
        <time>2018-09-17T13:51:43Z</time>
      </trkpt>
      <trkpt lat="47.64715" lon="6.18666">
        <ele>275.7</ele>
        <time>2018-09-17T13:51:45Z</time>
      </trkpt>
      <trkpt lat="47.6471" lon="6.18662">
        <ele>275.67</ele>
        <time>2018-09-17T13:51:47Z</time>
      </trkpt>
      <trkpt lat="47.64706" lon="6.18657">
        <ele>275.64</ele>
        <time>2018-09-17T13:51:49Z</time>
      </trkpt>
      <trkpt lat="47.64701" lon="6.18653">
        <ele>275.6</ele>
        <time>2018-09-17T13:51:51Z</time>
      </trkpt>
      <trkpt lat="47.64695" lon="6.18648">
        <ele>275.57</ele>
        <time>2018-09-17T13:51:53Z</time>
      </trkpt>
      <trkpt lat="47.64689" lon="6.18643">
        <ele>275.53</ele>
        <time>2018-09-17T13:51:55Z</time>
      </trkpt>
      <trkpt lat="47.64684" lon="6.18636">
        <ele>275.49</ele>
        <time>2018-09-17T13:51:57Z</time>
      </trkpt>
      <trkpt lat="47.6468" lon="6.18629">
        <ele>275.44</ele>
        <time>2018-09-17T13:51:59Z</time>
      </trkpt>
      <trkpt lat="47.64675" lon="6.18623">
        <ele>275.4</ele>
        <time>2018-09-17T13:52:01Z</time>
      </trkpt>
      <trkpt lat="47.6467" lon="6.18617">
        <ele>275.35</ele>
        <time>2018-09-17T13:52:03Z</time>
      </trkpt>
      <trkpt lat="47.64665" lon="6.18612">
        <ele>275.3</ele>
        <time>2018-09-17T13:52:05Z</time>
      </trkpt>
      <trkpt lat="47.64659" lon="6.18607">
        <ele>275.25</ele>
        <time>2018-09-17T13:52:07Z</time>
      </trkpt>
      <trkpt lat="47.64652" lon="6.18604">
        <ele>274.84</ele>
        <time>2018-09-17T13:52:09Z</time>
      </trkpt>
      <trkpt lat="47.64644" lon="6.18601">
        <ele>274.45</ele>
        <time>2018-09-17T13:52:11Z</time>
      </trkpt>
      <trkpt lat="47.64631" lon="6.18597">
        <ele>274.29</ele>
        <time>2018-09-17T13:52:12Z</time>
      </trkpt>
      <trkpt lat="47.64627" lon="6.18596">
        <ele>274.16</ele>
        <time>2018-09-17T13:52:13Z</time>
      </trkpt>
      <trkpt lat="47.64619" lon="6.18595">
        <ele>274.09</ele>
        <time>2018-09-17T13:52:15Z</time>
      </trkpt>
      <trkpt lat="47.64612" lon="6.18593">
        <ele>274.06</ele>
        <time>2018-09-17T13:52:17Z</time>
      </trkpt>
      <trkpt lat="47.64605" lon="6.18591">
        <ele>273.84</ele>
        <time>2018-09-17T13:52:19Z</time>
      </trkpt>
      <trkpt lat="47.64598" lon="6.18589">
        <ele>273.63</ele>
        <time>2018-09-17T13:52:21Z</time>
      </trkpt>
      <trkpt lat="47.6459" lon="6.18586">
        <ele>273.51</ele>
        <time>2018-09-17T13:52:23Z</time>
      </trkpt>
      <trkpt lat="47.64584" lon="6.18582">
        <ele>273.48</ele>
        <time>2018-09-17T13:52:25Z</time>
      </trkpt>
      <trkpt lat="47.64579" lon="6.18578">
        <ele>273.44</ele>
        <time>2018-09-17T13:52:28Z</time>
      </trkpt>
      <trkpt lat="47.64573" lon="6.18575">
        <ele>273.4</ele>
        <time>2018-09-17T13:52:31Z</time>
      </trkpt>
      <trkpt lat="47.64568" lon="6.18572">
        <ele>273.37</ele>
        <time>2018-09-17T13:52:33Z</time>
      </trkpt>
      <trkpt lat="47.64562" lon="6.1857">
        <ele>273.33</ele>
        <time>2018-09-17T13:52:35Z</time>
      </trkpt>
      <trkpt lat="47.64556" lon="6.18566">
        <ele>273.28</ele>
        <time>2018-09-17T13:52:37Z</time>
      </trkpt>
      <trkpt lat="47.6455" lon="6.18562">
        <ele>273.24</ele>
        <time>2018-09-17T13:52:39Z</time>
      </trkpt>
      <trkpt lat="47.64543" lon="6.18558">
        <ele>273.19</ele>
        <time>2018-09-17T13:52:41Z</time>
      </trkpt>
      <trkpt lat="47.64537" lon="6.18555">
        <ele>273.14</ele>
        <time>2018-09-17T13:52:43Z</time>
      </trkpt>
      <trkpt lat="47.64532" lon="6.18552">
        <ele>273.09</ele>
        <time>2018-09-17T13:52:45Z</time>
      </trkpt>
      <trkpt lat="47.64527" lon="6.18549">
        <ele>273.03</ele>
        <time>2018-09-17T13:52:47Z</time>
      </trkpt>
      <trkpt lat="47.64521" lon="6.18547">
        <ele>272.98</ele>
        <time>2018-09-17T13:52:49Z</time>
      </trkpt>
      <trkpt lat="47.64515" lon="6.18544">
        <ele>272.93</ele>
        <time>2018-09-17T13:52:51Z</time>
      </trkpt>
      <trkpt lat="47.64509" lon="6.18541">
        <ele>272.87</ele>
        <time>2018-09-17T13:52:53Z</time>
      </trkpt>
      <trkpt lat="47.64503" lon="6.18539">
        <ele>272.82</ele>
        <time>2018-09-17T13:52:55Z</time>
      </trkpt>
      <trkpt lat="47.64498" lon="6.18537">
        <ele>272.76</ele>
        <time>2018-09-17T13:52:57Z</time>
      </trkpt>
      <trkpt lat="47.64492" lon="6.18535">
        <ele>272.7</ele>
        <time>2018-09-17T13:52:59Z</time>
      </trkpt>
      <trkpt lat="47.64485" lon="6.1853">
        <ele>272.22</ele>
        <time>2018-09-17T13:53:01Z</time>
      </trkpt>
      <trkpt lat="47.64477" lon="6.18522">
        <ele>272.09</ele>
        <time>2018-09-17T13:53:03Z</time>
      </trkpt>
      <trkpt lat="47.64474" lon="6.18518">
        <ele>272.06</ele>
        <time>2018-09-17T13:53:04Z</time>
      </trkpt>
      <trkpt lat="47.6447" lon="6.18514">
        <ele>272.04</ele>
        <time>2018-09-17T13:53:05Z</time>
      </trkpt>
      <trkpt lat="47.64466" lon="6.1851">
        <ele>272.02</ele>
        <time>2018-09-17T13:53:06Z</time>
      </trkpt>
      <trkpt lat="47.64459" lon="6.18503">
        <ele>271.97</ele>
        <time>2018-09-17T13:53:08Z</time>
      </trkpt>
      <trkpt lat="47.64453" lon="6.18496">
        <ele>271.93</ele>
        <time>2018-09-17T13:53:10Z</time>
      </trkpt>
      <trkpt lat="47.64448" lon="6.18491">
        <ele>271.88</ele>
        <time>2018-09-17T13:53:12Z</time>
      </trkpt>
      <trkpt lat="47.64443" lon="6.18485">
        <ele>271.84</ele>
        <time>2018-09-17T13:53:14Z</time>
      </trkpt>
      <trkpt lat="47.64439" lon="6.18481">
        <ele>271.79</ele>
        <time>2018-09-17T13:53:16Z</time>
      </trkpt>
      <trkpt lat="47.64435" lon="6.18478">
        <ele>271.75</ele>
        <time>2018-09-17T13:53:18Z</time>
      </trkpt>
      <trkpt lat="47.64429" lon="6.18476">
        <ele>271.67</ele>
        <time>2018-09-17T13:53:21Z</time>
      </trkpt>
      <trkpt lat="47.64422" lon="6.18475">
        <ele>271.58</ele>
        <time>2018-09-17T13:53:24Z</time>
      </trkpt>
      <trkpt lat="47.64417" lon="6.18474">
        <ele>271.51</ele>
        <time>2018-09-17T13:53:26Z</time>
      </trkpt>
      <trkpt lat="47.64411" lon="6.18475">
        <ele>271.44</ele>
        <time>2018-09-17T13:53:28Z</time>
      </trkpt>
      <trkpt lat="47.64405" lon="6.18475">
        <ele>271.37</ele>
        <time>2018-09-17T13:53:30Z</time>
      </trkpt>
      <trkpt lat="47.64398" lon="6.18475">
        <ele>271.29</ele>
        <time>2018-09-17T13:53:32Z</time>
      </trkpt>
      <trkpt lat="47.64391" lon="6.18474">
        <ele>271.22</ele>
        <time>2018-09-17T13:53:34Z</time>
      </trkpt>
      <trkpt lat="47.64385" lon="6.18473">
        <ele>271.14</ele>
        <time>2018-09-17T13:53:36Z</time>
      </trkpt>
      <trkpt lat="47.64378" lon="6.18471">
        <ele>270.83</ele>
        <time>2018-09-17T13:53:38Z</time>
      </trkpt>
      <trkpt lat="47.6437" lon="6.18469">
        <ele>270.23</ele>
        <time>2018-09-17T13:53:40Z</time>
      </trkpt>
      <trkpt lat="47.64362" lon="6.18465">
        <ele>269.78</ele>
        <time>2018-09-17T13:53:42Z</time>
      </trkpt>
      <trkpt lat="47.64355" lon="6.18459">
        <ele>269.45</ele>
        <time>2018-09-17T13:53:44Z</time>
      </trkpt>
      <trkpt lat="47.64348" lon="6.18453">
        <ele>269.2</ele>
        <time>2018-09-17T13:53:46Z</time>
      </trkpt>
      <trkpt lat="47.64339" lon="6.18442">
        <ele>269.1</ele>
        <time>2018-09-17T13:53:47Z</time>
      </trkpt>
      <trkpt lat="47.64333" lon="6.18433">
        <ele>268.97</ele>
        <time>2018-09-17T13:53:49Z</time>
      </trkpt>
      <trkpt lat="47.64332" lon="6.18421">
        <ele>268.88</ele>
        <time>2018-09-17T13:53:51Z</time>
      </trkpt>
      <trkpt lat="47.64333" lon="6.18414">
        <ele>268.78</ele>
        <time>2018-09-17T13:53:52Z</time>
      </trkpt>
      <trkpt lat="47.64338" lon="6.18405">
        <ele>268.6</ele>
        <time>2018-09-17T13:53:54Z</time>
      </trkpt>
      <trkpt lat="47.64343" lon="6.18395">
        <ele>268.48</ele>
        <time>2018-09-17T13:53:56Z</time>
      </trkpt>
      <trkpt lat="47.64348" lon="6.18386">
        <ele>268.35</ele>
        <time>2018-09-17T13:53:58Z</time>
      </trkpt>
      <trkpt lat="47.64352" lon="6.18378">
        <ele>268.32</ele>
        <time>2018-09-17T13:54:00Z</time>
      </trkpt>
      <trkpt lat="47.64358" lon="6.18373">
        <ele>268.17</ele>
        <time>2018-09-17T13:54:02Z</time>
      </trkpt>
      <trkpt lat="47.64365" lon="6.18366">
        <ele>267.95</ele>
        <time>2018-09-17T13:54:04Z</time>
      </trkpt>
      <trkpt lat="47.64369" lon="6.18362">
        <ele>267.92</ele>
        <time>2018-09-17T13:54:05Z</time>
      </trkpt>
      <trkpt lat="47.64377" lon="6.18358">
        <ele>267.87</ele>
        <time>2018-09-17T13:54:07Z</time>
      </trkpt>
      <trkpt lat="47.64384" lon="6.18354">
        <ele>267.82</ele>
        <time>2018-09-17T13:54:09Z</time>
      </trkpt>
      <trkpt lat="47.6439" lon="6.18349">
        <ele>267.76</ele>
        <time>2018-09-17T13:54:11Z</time>
      </trkpt>
      <trkpt lat="47.64396" lon="6.18345">
        <ele>267.69</ele>
        <time>2018-09-17T13:54:13Z</time>
      </trkpt>
      <trkpt lat="47.64401" lon="6.18339">
        <ele>267.33</ele>
        <time>2018-09-17T13:54:15Z</time>
      </trkpt>
      <trkpt lat="47.64408" lon="6.18334">
        <ele>266.88</ele>
        <time>2018-09-17T13:54:17Z</time>
      </trkpt>
      <trkpt lat="47.64413" lon="6.18328">
        <ele>266.39</ele>
        <time>2018-09-17T13:54:19Z</time>
      </trkpt>
      <trkpt lat="47.64419" lon="6.18321">
        <ele>266.28</ele>
        <time>2018-09-17T13:54:21Z</time>
      </trkpt>
      <trkpt lat="47.64425" lon="6.18313">
        <ele>266.19</ele>
        <time>2018-09-17T13:54:23Z</time>
      </trkpt>
      <trkpt lat="47.64429" lon="6.18306">
        <ele>266.04</ele>
        <time>2018-09-17T13:54:26Z</time>
      </trkpt>
      <trkpt lat="47.64431" lon="6.18297">
        <ele>265.93</ele>
        <time>2018-09-17T13:54:28Z</time>
      </trkpt>
      <trkpt lat="47.64428" lon="6.18288">
        <ele>265.41</ele>
        <time>2018-09-17T13:54:30Z</time>
      </trkpt>
      <trkpt lat="47.64422" lon="6.18279">
        <ele>264.44</ele>
        <time>2018-09-17T13:54:32Z</time>
      </trkpt>
      <trkpt lat="47.64416" lon="6.18272">
        <ele>263.69</ele>
        <time>2018-09-17T13:54:34Z</time>
      </trkpt>
      <trkpt lat="47.64408" lon="6.18263">
        <ele>263.4</ele>
        <time>2018-09-17T13:54:35Z</time>
      </trkpt>
      <trkpt lat="47.64401" lon="6.18255">
        <ele>262.97</ele>
        <time>2018-09-17T13:54:37Z</time>
      </trkpt>
      <trkpt lat="47.64395" lon="6.18248">
        <ele>262.75</ele>
        <time>2018-09-17T13:54:39Z</time>
      </trkpt>
      <trkpt lat="47.64389" lon="6.18243">
        <ele>262.59</ele>
        <time>2018-09-17T13:54:41Z</time>
      </trkpt>
      <trkpt lat="47.64383" lon="6.18235">
        <ele>262.39</ele>
        <time>2018-09-17T13:54:43Z</time>
      </trkpt>
      <trkpt lat="47.64376" lon="6.18228">
        <ele>262.16</ele>
        <time>2018-09-17T13:54:45Z</time>
      </trkpt>
      <trkpt lat="47.6437" lon="6.18221">
        <ele>261.94</ele>
        <time>2018-09-17T13:54:47Z</time>
      </trkpt>
      <trkpt lat="47.64365" lon="6.18214">
        <ele>261.89</ele>
        <time>2018-09-17T13:54:49Z</time>
      </trkpt>
      <trkpt lat="47.6436" lon="6.18208">
        <ele>261.86</ele>
        <time>2018-09-17T13:54:51Z</time>
      </trkpt>
      <trkpt lat="47.64357" lon="6.18203">
        <ele>261.82</ele>
        <time>2018-09-17T13:54:54Z</time>
      </trkpt>
      <trkpt lat="47.64353" lon="6.18198">
        <ele>261.78</ele>
        <time>2018-09-17T13:54:57Z</time>
      </trkpt>
      <trkpt lat="47.64347" lon="6.18193">
        <ele>261.72</ele>
        <time>2018-09-17T13:55:00Z</time>
      </trkpt>
      <trkpt lat="47.64342" lon="6.18188">
        <ele>261.68</ele>
        <time>2018-09-17T13:55:02Z</time>
      </trkpt>
      <trkpt lat="47.64335" lon="6.18184">
        <ele>261.35</ele>
        <time>2018-09-17T13:55:04Z</time>
      </trkpt>
      <trkpt lat="47.64328" lon="6.18182">
        <ele>261.03</ele>
        <time>2018-09-17T13:55:06Z</time>
      </trkpt>
      <trkpt lat="47.6432" lon="6.18183">
        <ele>260.76</ele>
        <time>2018-09-17T13:55:08Z</time>
      </trkpt>
      <trkpt lat="47.64309" lon="6.18185">
        <ele>260.61</ele>
        <time>2018-09-17T13:55:09Z</time>
      </trkpt>
      <trkpt lat="47.64301" lon="6.1819">
        <ele>260.32</ele>
        <time>2018-09-17T13:55:11Z</time>
      </trkpt>
      <trkpt lat="47.64295" lon="6.18193">
        <ele>260.24</ele>
        <time>2018-09-17T13:55:13Z</time>
      </trkpt>
      <trkpt lat="47.64288" lon="6.18198">
        <ele>260.2</ele>
        <time>2018-09-17T13:55:15Z</time>
      </trkpt>
      <trkpt lat="47.64282" lon="6.18201">
        <ele>260.16</ele>
        <time>2018-09-17T13:55:17Z</time>
      </trkpt>
      <trkpt lat="47.64277" lon="6.18204">
        <ele>260.09</ele>
        <time>2018-09-17T13:55:20Z</time>
      </trkpt>
      <trkpt lat="47.64271" lon="6.18208">
        <ele>260.01</ele>
        <time>2018-09-17T13:55:23Z</time>
      </trkpt>
      <trkpt lat="47.64266" lon="6.18212">
        <ele>259.96</ele>
        <time>2018-09-17T13:55:25Z</time>
      </trkpt>
      <trkpt lat="47.64262" lon="6.18217">
        <ele>259.9</ele>
        <time>2018-09-17T13:55:27Z</time>
      </trkpt>
      <trkpt lat="47.64256" lon="6.18221">
        <ele>259.83</ele>
        <time>2018-09-17T13:55:29Z</time>
      </trkpt>
      <trkpt lat="47.64251" lon="6.18226">
        <ele>259.75</ele>
        <time>2018-09-17T13:55:31Z</time>
      </trkpt>
      <trkpt lat="47.64245" lon="6.1823">
        <ele>259.67</ele>
        <time>2018-09-17T13:55:33Z</time>
      </trkpt>
      <trkpt lat="47.64241" lon="6.18234">
        <ele>259.59</ele>
        <time>2018-09-17T13:55:35Z</time>
      </trkpt>
      <trkpt lat="47.64236" lon="6.18238">
        <ele>259.5</ele>
        <time>2018-09-17T13:55:37Z</time>
      </trkpt>
      <trkpt lat="47.64231" lon="6.18243">
        <ele>259.42</ele>
        <time>2018-09-17T13:55:39Z</time>
      </trkpt>
      <trkpt lat="47.64227" lon="6.18248">
        <ele>259.34</ele>
        <time>2018-09-17T13:55:41Z</time>
      </trkpt>
      <trkpt lat="47.64223" lon="6.18254">
        <ele>259.25</ele>
        <time>2018-09-17T13:55:43Z</time>
      </trkpt>
      <trkpt lat="47.64219" lon="6.1826">
        <ele>259.16</ele>
        <time>2018-09-17T13:55:45Z</time>
      </trkpt>
      <trkpt lat="47.64215" lon="6.18264">
        <ele>259.06</ele>
        <time>2018-09-17T13:55:47Z</time>
      </trkpt>
      <trkpt lat="47.6421" lon="6.18266">
        <ele>258.66</ele>
        <time>2018-09-17T13:55:49Z</time>
      </trkpt>
      <trkpt lat="47.64202" lon="6.18266">
        <ele>257.88</ele>
        <time>2018-09-17T13:55:51Z</time>
      </trkpt>
      <trkpt lat="47.64198" lon="6.18265">
        <ele>257.52</ele>
        <time>2018-09-17T13:55:52Z</time>
      </trkpt>
      <trkpt lat="47.64182" lon="6.18262">
        <ele>257.19</ele>
        <time>2018-09-17T13:55:53Z</time>
      </trkpt>
      <trkpt lat="47.64173" lon="6.18259">
        <ele>256.9</ele>
        <time>2018-09-17T13:55:54Z</time>
      </trkpt>
      <trkpt lat="47.64164" lon="6.18257">
        <ele>256.64</ele>
        <time>2018-09-17T13:55:55Z</time>
      </trkpt>
      <trkpt lat="47.64156" lon="6.18254">
        <ele>256.41</ele>
        <time>2018-09-17T13:55:56Z</time>
      </trkpt>
      <trkpt lat="47.64148" lon="6.1825">
        <ele>256.2</ele>
        <time>2018-09-17T13:55:57Z</time>
      </trkpt>
      <trkpt lat="47.64141" lon="6.18245">
        <ele>256</ele>
        <time>2018-09-17T13:55:58Z</time>
      </trkpt>
      <trkpt lat="47.64134" lon="6.1824">
        <ele>255.8</ele>
        <time>2018-09-17T13:55:59Z</time>
      </trkpt>
      <trkpt lat="47.64127" lon="6.18235">
        <ele>255.58</ele>
        <time>2018-09-17T13:56:00Z</time>
      </trkpt>
      <trkpt lat="47.64121" lon="6.18229">
        <ele>255.35</ele>
        <time>2018-09-17T13:56:01Z</time>
      </trkpt>
      <trkpt lat="47.64115" lon="6.18223">
        <ele>255.1</ele>
        <time>2018-09-17T13:56:02Z</time>
      </trkpt>
      <trkpt lat="47.6411" lon="6.18216">
        <ele>254.87</ele>
        <time>2018-09-17T13:56:03Z</time>
      </trkpt>
      <trkpt lat="47.64104" lon="6.1821">
        <ele>254.62</ele>
        <time>2018-09-17T13:56:04Z</time>
      </trkpt>
      <trkpt lat="47.64098" lon="6.18204">
        <ele>254.39</ele>
        <time>2018-09-17T13:56:05Z</time>
      </trkpt>
      <trkpt lat="47.64093" lon="6.18199">
        <ele>254.17</ele>
        <time>2018-09-17T13:56:06Z</time>
      </trkpt>
      <trkpt lat="47.64089" lon="6.18192">
        <ele>253.96</ele>
        <time>2018-09-17T13:56:07Z</time>
      </trkpt>
      <trkpt lat="47.64084" lon="6.18188">
        <ele>253.76</ele>
        <time>2018-09-17T13:56:08Z</time>
      </trkpt>
      <trkpt lat="47.64077" lon="6.18185">
        <ele>253.51</ele>
        <time>2018-09-17T13:56:10Z</time>
      </trkpt>
      <trkpt lat="47.64073" lon="6.18191">
        <ele>253.46</ele>
        <time>2018-09-17T13:56:12Z</time>
      </trkpt>
      <trkpt lat="47.64072" lon="6.18197">
        <ele>253.43</ele>
        <time>2018-09-17T13:56:14Z</time>
      </trkpt>
      <trkpt lat="47.6407" lon="6.18205">
        <ele>253.4</ele>
        <time>2018-09-17T13:56:16Z</time>
      </trkpt>
      <trkpt lat="47.64069" lon="6.18211">
        <ele>253.36</ele>
        <time>2018-09-17T13:56:18Z</time>
      </trkpt>
      <trkpt lat="47.64067" lon="6.18218">
        <ele>253.32</ele>
        <time>2018-09-17T13:56:20Z</time>
      </trkpt>
      <trkpt lat="47.64064" lon="6.18224">
        <ele>253.28</ele>
        <time>2018-09-17T13:56:22Z</time>
      </trkpt>
      <trkpt lat="47.6406" lon="6.18227">
        <ele>253.22</ele>
        <time>2018-09-17T13:56:24Z</time>
      </trkpt>
      <trkpt lat="47.64055" lon="6.18228">
        <ele>253.16</ele>
        <time>2018-09-17T13:56:26Z</time>
      </trkpt>
      <trkpt lat="47.6405" lon="6.18227">
        <ele>253.07</ele>
        <time>2018-09-17T13:56:28Z</time>
      </trkpt>
      <trkpt lat="47.64044" lon="6.18223">
        <ele>252.96</ele>
        <time>2018-09-17T13:56:30Z</time>
      </trkpt>
      <trkpt lat="47.64038" lon="6.18219">
        <ele>252.84</ele>
        <time>2018-09-17T13:56:32Z</time>
      </trkpt>
      <trkpt lat="47.64032" lon="6.18215">
        <ele>252.7</ele>
        <time>2018-09-17T13:56:34Z</time>
      </trkpt>
      <trkpt lat="47.64025" lon="6.1821">
        <ele>252.55</ele>
        <time>2018-09-17T13:56:36Z</time>
      </trkpt>
      <trkpt lat="47.64019" lon="6.18205">
        <ele>252.38</ele>
        <time>2018-09-17T13:56:38Z</time>
      </trkpt>
      <trkpt lat="47.64013" lon="6.182">
        <ele>252.22</ele>
        <time>2018-09-17T13:56:40Z</time>
      </trkpt>
      <trkpt lat="47.64006" lon="6.18195">
        <ele>252.05</ele>
        <time>2018-09-17T13:56:42Z</time>
      </trkpt>
      <trkpt lat="47.64" lon="6.1819">
        <ele>251.88</ele>
        <time>2018-09-17T13:56:44Z</time>
      </trkpt>
      <trkpt lat="47.63994" lon="6.18186">
        <ele>251.7</ele>
        <time>2018-09-17T13:56:46Z</time>
      </trkpt>
      <trkpt lat="47.63989" lon="6.18181">
        <ele>251.5</ele>
        <time>2018-09-17T13:56:48Z</time>
      </trkpt>
      <trkpt lat="47.63983" lon="6.18177">
        <ele>251.29</ele>
        <time>2018-09-17T13:56:50Z</time>
      </trkpt>
      <trkpt lat="47.63978" lon="6.18173">
        <ele>251.08</ele>
        <time>2018-09-17T13:56:52Z</time>
      </trkpt>
      <trkpt lat="47.63972" lon="6.18168">
        <ele>250.86</ele>
        <time>2018-09-17T13:56:54Z</time>
      </trkpt>
      <trkpt lat="47.63967" lon="6.18163">
        <ele>250.63</ele>
        <time>2018-09-17T13:56:56Z</time>
      </trkpt>
      <trkpt lat="47.63961" lon="6.18157">
        <ele>250.4</ele>
        <time>2018-09-17T13:56:58Z</time>
      </trkpt>
      <trkpt lat="47.63956" lon="6.1815">
        <ele>250.16</ele>
        <time>2018-09-17T13:57:00Z</time>
      </trkpt>
      <trkpt lat="47.63951" lon="6.18143">
        <ele>249.92</ele>
        <time>2018-09-17T13:57:02Z</time>
      </trkpt>
      <trkpt lat="47.63947" lon="6.18137">
        <ele>249.68</ele>
        <time>2018-09-17T13:57:04Z</time>
      </trkpt>
      <trkpt lat="47.63942" lon="6.18129">
        <ele>249.43</ele>
        <time>2018-09-17T13:57:06Z</time>
      </trkpt>
      <trkpt lat="47.63938" lon="6.18122">
        <ele>249.19</ele>
        <time>2018-09-17T13:57:08Z</time>
      </trkpt>
      <trkpt lat="47.63933" lon="6.18116">
        <ele>248.94</ele>
        <time>2018-09-17T13:57:10Z</time>
      </trkpt>
      <trkpt lat="47.63929" lon="6.18109">
        <ele>248.69</ele>
        <time>2018-09-17T13:57:12Z</time>
      </trkpt>
      <trkpt lat="47.63924" lon="6.18103">
        <ele>248.44</ele>
        <time>2018-09-17T13:57:14Z</time>
      </trkpt>
      <trkpt lat="47.6392" lon="6.18098">
        <ele>248.2</ele>
        <time>2018-09-17T13:57:16Z</time>
      </trkpt>
      <trkpt lat="47.63917" lon="6.18093">
        <ele>247.95</ele>
        <time>2018-09-17T13:57:18Z</time>
      </trkpt>
      <trkpt lat="47.63913" lon="6.18088">
        <ele>247.71</ele>
        <time>2018-09-17T13:57:20Z</time>
      </trkpt>
      <trkpt lat="47.63909" lon="6.18083">
        <ele>247.47</ele>
        <time>2018-09-17T13:57:22Z</time>
      </trkpt>
      <trkpt lat="47.63906" lon="6.18078">
        <ele>247.23</ele>
        <time>2018-09-17T13:57:24Z</time>
      </trkpt>
      <trkpt lat="47.63903" lon="6.18073">
        <ele>247</ele>
        <time>2018-09-17T13:57:26Z</time>
      </trkpt>
      <trkpt lat="47.63899" lon="6.18069">
        <ele>246.76</ele>
        <time>2018-09-17T13:57:28Z</time>
      </trkpt>
      <trkpt lat="47.63896" lon="6.18064">
        <ele>246.54</ele>
        <time>2018-09-17T13:57:30Z</time>
      </trkpt>
      <trkpt lat="47.63892" lon="6.18059">
        <ele>246.31</ele>
        <time>2018-09-17T13:57:32Z</time>
      </trkpt>
      <trkpt lat="47.63889" lon="6.18054">
        <ele>246.09</ele>
        <time>2018-09-17T13:57:34Z</time>
      </trkpt>
      <trkpt lat="47.63885" lon="6.18048">
        <ele>245.87</ele>
        <time>2018-09-17T13:57:36Z</time>
      </trkpt>
      <trkpt lat="47.63881" lon="6.18041">
        <ele>245.66</ele>
        <time>2018-09-17T13:57:38Z</time>
      </trkpt>
      <trkpt lat="47.63877" lon="6.18035">
        <ele>245.46</ele>
        <time>2018-09-17T13:57:40Z</time>
      </trkpt>
      <trkpt lat="47.63873" lon="6.1803">
        <ele>245.26</ele>
        <time>2018-09-17T13:57:42Z</time>
      </trkpt>
      <trkpt lat="47.63869" lon="6.18024">
        <ele>245.06</ele>
        <time>2018-09-17T13:57:44Z</time>
      </trkpt>
      <trkpt lat="47.63865" lon="6.18018">
        <ele>244.87</ele>
        <time>2018-09-17T13:57:46Z</time>
      </trkpt>
      <trkpt lat="47.63862" lon="6.18013">
        <ele>244.69</ele>
        <time>2018-09-17T13:57:48Z</time>
      </trkpt>
      <trkpt lat="47.63858" lon="6.18007">
        <ele>244.51</ele>
        <time>2018-09-17T13:57:50Z</time>
      </trkpt>
      <trkpt lat="47.63854" lon="6.18002">
        <ele>244.33</ele>
        <time>2018-09-17T13:57:52Z</time>
      </trkpt>
      <trkpt lat="47.63851" lon="6.17997">
        <ele>244.16</ele>
        <time>2018-09-17T13:57:54Z</time>
      </trkpt>
      <trkpt lat="47.63848" lon="6.17992">
        <ele>243.99</ele>
        <time>2018-09-17T13:57:56Z</time>
      </trkpt>
      <trkpt lat="47.63844" lon="6.17987">
        <ele>243.83</ele>
        <time>2018-09-17T13:57:58Z</time>
      </trkpt>
      <trkpt lat="47.63841" lon="6.17982">
        <ele>243.68</ele>
        <time>2018-09-17T13:58:00Z</time>
      </trkpt>
      <trkpt lat="47.63838" lon="6.17977">
        <ele>243.53</ele>
        <time>2018-09-17T13:58:02Z</time>
      </trkpt>
      <trkpt lat="47.63834" lon="6.17971">
        <ele>243.38</ele>
        <time>2018-09-17T13:58:04Z</time>
      </trkpt>
      <trkpt lat="47.63831" lon="6.17966">
        <ele>243.24</ele>
        <time>2018-09-17T13:58:06Z</time>
      </trkpt>
      <trkpt lat="47.63828" lon="6.17961">
        <ele>243.1</ele>
        <time>2018-09-17T13:58:08Z</time>
      </trkpt>
      <trkpt lat="47.63824" lon="6.17957">
        <ele>242.96</ele>
        <time>2018-09-17T13:58:10Z</time>
      </trkpt>
      <trkpt lat="47.63821" lon="6.17952">
        <ele>242.83</ele>
        <time>2018-09-17T13:58:12Z</time>
      </trkpt>
      <trkpt lat="47.63817" lon="6.17947">
        <ele>242.71</ele>
        <time>2018-09-17T13:58:14Z</time>
      </trkpt>
      <trkpt lat="47.63812" lon="6.1794">
        <ele>242.53</ele>
        <time>2018-09-17T13:58:17Z</time>
      </trkpt>
      <trkpt lat="47.63809" lon="6.17935">
        <ele>242.41</ele>
        <time>2018-09-17T13:58:19Z</time>
      </trkpt>
      <trkpt lat="47.63806" lon="6.1793">
        <ele>242.3</ele>
        <time>2018-09-17T13:58:21Z</time>
      </trkpt>
      <trkpt lat="47.63802" lon="6.17925">
        <ele>242.19</ele>
        <time>2018-09-17T13:58:23Z</time>
      </trkpt>
      <trkpt lat="47.63798" lon="6.1792">
        <ele>242.09</ele>
        <time>2018-09-17T13:58:25Z</time>
      </trkpt>
      <trkpt lat="47.63794" lon="6.17915">
        <ele>241.99</ele>
        <time>2018-09-17T13:58:27Z</time>
      </trkpt>
      <trkpt lat="47.63789" lon="6.17909">
        <ele>241.89</ele>
        <time>2018-09-17T13:58:29Z</time>
      </trkpt>
      <trkpt lat="47.63785" lon="6.17903">
        <ele>241.79</ele>
        <time>2018-09-17T13:58:31Z</time>
      </trkpt>
      <trkpt lat="47.6378" lon="6.17896">
        <ele>241.05</ele>
        <time>2018-09-17T13:58:33Z</time>
      </trkpt>
      <trkpt lat="47.63774" lon="6.17889">
        <ele>240.41</ele>
        <time>2018-09-17T13:58:35Z</time>
      </trkpt>
      <trkpt lat="47.63768" lon="6.17881">
        <ele>240.27</ele>
        <time>2018-09-17T13:58:37Z</time>
      </trkpt>
      <trkpt lat="47.63763" lon="6.17874">
        <ele>240.21</ele>
        <time>2018-09-17T13:58:39Z</time>
      </trkpt>
      <trkpt lat="47.63757" lon="6.17868">
        <ele>240.17</ele>
        <time>2018-09-17T13:58:41Z</time>
      </trkpt>
      <trkpt lat="47.63752" lon="6.17861">
        <ele>240.12</ele>
        <time>2018-09-17T13:58:43Z</time>
      </trkpt>
      <trkpt lat="47.63746" lon="6.17854">
        <ele>240.08</ele>
        <time>2018-09-17T13:58:45Z</time>
      </trkpt>
      <trkpt lat="47.63741" lon="6.17847">
        <ele>239.74</ele>
        <time>2018-09-17T13:58:47Z</time>
      </trkpt>
      <trkpt lat="47.63728" lon="6.17833">
        <ele>239.44</ele>
        <time>2018-09-17T13:58:49Z</time>
      </trkpt>
      <trkpt lat="47.63721" lon="6.17826">
        <ele>239.24</ele>
        <time>2018-09-17T13:58:51Z</time>
      </trkpt>
      <trkpt lat="47.63715" lon="6.17819">
        <ele>239.09</ele>
        <time>2018-09-17T13:58:53Z</time>
      </trkpt>
      <trkpt lat="47.63708" lon="6.17812">
        <ele>238.99</ele>
        <time>2018-09-17T13:58:55Z</time>
      </trkpt>
      <trkpt lat="47.63702" lon="6.17805">
        <ele>238.9</ele>
        <time>2018-09-17T13:58:57Z</time>
      </trkpt>
      <trkpt lat="47.63696" lon="6.17798">
        <ele>238.84</ele>
        <time>2018-09-17T13:58:59Z</time>
      </trkpt>
      <trkpt lat="47.6369" lon="6.17792">
        <ele>238.83</ele>
        <time>2018-09-17T13:59:01Z</time>
      </trkpt>
      <trkpt lat="47.63686" lon="6.17787">
        <ele>238.82</ele>
        <time>2018-09-17T13:59:03Z</time>
      </trkpt>
      <trkpt lat="47.6368" lon="6.17782">
        <ele>238.8</ele>
        <time>2018-09-17T13:59:06Z</time>
      </trkpt>
      <trkpt lat="47.63675" lon="6.17779">
        <ele>238.67</ele>
        <time>2018-09-17T13:59:08Z</time>
      </trkpt>
      <trkpt lat="47.63667" lon="6.17771">
        <ele>238.6</ele>
        <time>2018-09-17T13:59:09Z</time>
      </trkpt>
      <trkpt lat="47.63663" lon="6.17768">
        <ele>238.55</ele>
        <time>2018-09-17T13:59:10Z</time>
      </trkpt>
      <trkpt lat="47.63659" lon="6.17764">
        <ele>238.49</ele>
        <time>2018-09-17T13:59:11Z</time>
      </trkpt>
      <trkpt lat="47.63652" lon="6.17756">
        <ele>238.41</ele>
        <time>2018-09-17T13:59:13Z</time>
      </trkpt>
      <trkpt lat="47.63646" lon="6.1775">
        <ele>238.36</ele>
        <time>2018-09-17T13:59:15Z</time>
      </trkpt>
      <trkpt lat="47.6364" lon="6.17744">
        <ele>238.31</ele>
        <time>2018-09-17T13:59:17Z</time>
      </trkpt>
      <trkpt lat="47.63634" lon="6.17738">
        <ele>238.3</ele>
        <time>2018-09-17T13:59:19Z</time>
      </trkpt>
      <trkpt lat="47.6363" lon="6.17731">
        <ele>238.28</ele>
        <time>2018-09-17T13:59:21Z</time>
      </trkpt>
      <trkpt lat="47.63624" lon="6.17725">
        <ele>238.23</ele>
        <time>2018-09-17T13:59:23Z</time>
      </trkpt>
      <trkpt lat="47.63617" lon="6.17718">
        <ele>238.12</ele>
        <time>2018-09-17T13:59:25Z</time>
      </trkpt>
      <trkpt lat="47.63613" lon="6.17714">
        <ele>238.07</ele>
        <time>2018-09-17T13:59:26Z</time>
      </trkpt>
      <trkpt lat="47.63606" lon="6.17707">
        <ele>237.98</ele>
        <time>2018-09-17T13:59:28Z</time>
      </trkpt>
      <trkpt lat="47.636" lon="6.177">
        <ele>237.9</ele>
        <time>2018-09-17T13:59:30Z</time>
      </trkpt>
      <trkpt lat="47.63594" lon="6.17693">
        <ele>237.84</ele>
        <time>2018-09-17T13:59:32Z</time>
      </trkpt>
      <trkpt lat="47.63587" lon="6.17687">
        <ele>237.79</ele>
        <time>2018-09-17T13:59:34Z</time>
      </trkpt>
      <trkpt lat="47.63581" lon="6.17681">
        <ele>237.75</ele>
        <time>2018-09-17T13:59:36Z</time>
      </trkpt>
      <trkpt lat="47.63574" lon="6.17675">
        <ele>237.71</ele>
        <time>2018-09-17T13:59:38Z</time>
      </trkpt>
      <trkpt lat="47.63568" lon="6.1767">
        <ele>237.7</ele>
        <time>2018-09-17T13:59:40Z</time>
      </trkpt>
      <trkpt lat="47.63562" lon="6.17664">
        <ele>237.69</ele>
        <time>2018-09-17T13:59:42Z</time>
      </trkpt>
      <trkpt lat="47.63557" lon="6.17659">
        <ele>237.69</ele>
        <time>2018-09-17T13:59:44Z</time>
      </trkpt>
      <trkpt lat="47.63551" lon="6.17653">
        <ele>237.68</ele>
        <time>2018-09-17T13:59:46Z</time>
      </trkpt>
      <trkpt lat="47.63545" lon="6.17648">
        <ele>237.67</ele>
        <time>2018-09-17T13:59:48Z</time>
      </trkpt>
      <trkpt lat="47.6354" lon="6.17643">
        <ele>237.66</ele>
        <time>2018-09-17T13:59:51Z</time>
      </trkpt>
      <trkpt lat="47.63536" lon="6.17639">
        <ele>237.65</ele>
        <time>2018-09-17T13:59:53Z</time>
      </trkpt>
      <trkpt lat="47.63531" lon="6.17634">
        <ele>237.64</ele>
        <time>2018-09-17T13:59:55Z</time>
      </trkpt>
      <trkpt lat="47.63527" lon="6.1763">
        <ele>237.63</ele>
        <time>2018-09-17T13:59:57Z</time>
      </trkpt>
      <trkpt lat="47.63522" lon="6.17625">
        <ele>237.62</ele>
        <time>2018-09-17T13:59:59Z</time>
      </trkpt>
      <trkpt lat="47.63517" lon="6.17621">
        <ele>237.61</ele>
        <time>2018-09-17T14:00:01Z</time>
      </trkpt>
      <trkpt lat="47.63513" lon="6.17616">
        <ele>237.6</ele>
        <time>2018-09-17T14:00:03Z</time>
      </trkpt>
      <trkpt lat="47.63508" lon="6.17612">
        <ele>237.59</ele>
        <time>2018-09-17T14:00:05Z</time>
      </trkpt>
      <trkpt lat="47.63503" lon="6.17607">
        <ele>237.58</ele>
        <time>2018-09-17T14:00:07Z</time>
      </trkpt>
      <trkpt lat="47.63498" lon="6.17603">
        <ele>237.57</ele>
        <time>2018-09-17T14:00:09Z</time>
      </trkpt>
      <trkpt lat="47.63493" lon="6.17599">
        <ele>237.56</ele>
        <time>2018-09-17T14:00:11Z</time>
      </trkpt>
      <trkpt lat="47.63489" lon="6.17595">
        <ele>237.55</ele>
        <time>2018-09-17T14:00:13Z</time>
      </trkpt>
      <trkpt lat="47.63484" lon="6.1759">
        <ele>237.54</ele>
        <time>2018-09-17T14:00:15Z</time>
      </trkpt>
      <trkpt lat="47.63478" lon="6.17585">
        <ele>237.53</ele>
        <time>2018-09-17T14:00:17Z</time>
      </trkpt>
      <trkpt lat="47.63472" lon="6.1758">
        <ele>237.52</ele>
        <time>2018-09-17T14:00:19Z</time>
      </trkpt>
      <trkpt lat="47.63466" lon="6.17575">
        <ele>237.51</ele>
        <time>2018-09-17T14:00:21Z</time>
      </trkpt>
      <trkpt lat="47.63459" lon="6.1757">
        <ele>237.5</ele>
        <time>2018-09-17T14:00:23Z</time>
      </trkpt>
      <trkpt lat="47.63453" lon="6.17565">
        <ele>237.49</ele>
        <time>2018-09-17T14:00:25Z</time>
      </trkpt>
      <trkpt lat="47.63447" lon="6.1756">
        <ele>237.49</ele>
        <time>2018-09-17T14:00:27Z</time>
      </trkpt>
      <trkpt lat="47.63442" lon="6.17555">
        <ele>237.48</ele>
        <time>2018-09-17T14:00:29Z</time>
      </trkpt>
      <trkpt lat="47.63436" lon="6.1755">
        <ele>237.47</ele>
        <time>2018-09-17T14:00:31Z</time>
      </trkpt>
      <trkpt lat="47.6343" lon="6.17546">
        <ele>237.46</ele>
        <time>2018-09-17T14:00:33Z</time>
      </trkpt>
      <trkpt lat="47.63424" lon="6.17542">
        <ele>237.45</ele>
        <time>2018-09-17T14:00:35Z</time>
      </trkpt>
      <trkpt lat="47.63418" lon="6.17537">
        <ele>237.45</ele>
        <time>2018-09-17T14:00:37Z</time>
      </trkpt>
      <trkpt lat="47.63413" lon="6.17533">
        <ele>237.44</ele>
        <time>2018-09-17T14:00:39Z</time>
      </trkpt>
      <trkpt lat="47.63406" lon="6.17529">
        <ele>237.36</ele>
        <time>2018-09-17T14:00:41Z</time>
      </trkpt>
      <trkpt lat="47.63399" lon="6.17524">
        <ele>237.29</ele>
        <time>2018-09-17T14:00:43Z</time>
      </trkpt>
      <trkpt lat="47.63388" lon="6.17515">
        <ele>237.26</ele>
        <time>2018-09-17T14:00:44Z</time>
      </trkpt>
      <trkpt lat="47.63384" lon="6.17513">
        <ele>237.23</ele>
        <time>2018-09-17T14:00:45Z</time>
      </trkpt>
      <trkpt lat="47.63376" lon="6.17507">
        <ele>237.17</ele>
        <time>2018-09-17T14:00:47Z</time>
      </trkpt>
      <trkpt lat="47.63368" lon="6.17502">
        <ele>237.12</ele>
        <time>2018-09-17T14:00:49Z</time>
      </trkpt>
      <trkpt lat="47.63361" lon="6.17497">
        <ele>237.07</ele>
        <time>2018-09-17T14:00:51Z</time>
      </trkpt>
      <trkpt lat="47.63354" lon="6.17492">
        <ele>237.02</ele>
        <time>2018-09-17T14:00:53Z</time>
      </trkpt>
      <trkpt lat="47.63346" lon="6.17487">
        <ele>236.97</ele>
        <time>2018-09-17T14:00:55Z</time>
      </trkpt>
      <trkpt lat="47.63338" lon="6.17483">
        <ele>236.92</ele>
        <time>2018-09-17T14:00:57Z</time>
      </trkpt>
      <trkpt lat="47.6333" lon="6.17479">
        <ele>236.88</ele>
        <time>2018-09-17T14:00:59Z</time>
      </trkpt>
      <trkpt lat="47.63326" lon="6.17476">
        <ele>236.86</ele>
        <time>2018-09-17T14:01:00Z</time>
      </trkpt>
      <trkpt lat="47.63318" lon="6.17471">
        <ele>236.81</ele>
        <time>2018-09-17T14:01:02Z</time>
      </trkpt>
      <trkpt lat="47.63314" lon="6.17468">
        <ele>236.79</ele>
        <time>2018-09-17T14:01:03Z</time>
      </trkpt>
      <trkpt lat="47.63305" lon="6.17463">
        <ele>236.75</ele>
        <time>2018-09-17T14:01:05Z</time>
      </trkpt>
      <trkpt lat="47.63297" lon="6.17459">
        <ele>236.7</ele>
        <time>2018-09-17T14:01:07Z</time>
      </trkpt>
      <trkpt lat="47.63292" lon="6.17457">
        <ele>236.68</ele>
        <time>2018-09-17T14:01:08Z</time>
      </trkpt>
      <trkpt lat="47.63288" lon="6.17454">
        <ele>236.65</ele>
        <time>2018-09-17T14:01:09Z</time>
      </trkpt>
      <trkpt lat="47.63283" lon="6.17452">
        <ele>236.62</ele>
        <time>2018-09-17T14:01:10Z</time>
      </trkpt>
      <trkpt lat="47.63279" lon="6.1745">
        <ele>236.59</ele>
        <time>2018-09-17T14:01:11Z</time>
      </trkpt>
      <trkpt lat="47.63274" lon="6.17447">
        <ele>236.55</ele>
        <time>2018-09-17T14:01:12Z</time>
      </trkpt>
      <trkpt lat="47.6327" lon="6.17445">
        <ele>236.52</ele>
        <time>2018-09-17T14:01:13Z</time>
      </trkpt>
      <trkpt lat="47.63265" lon="6.17442">
        <ele>236.48</ele>
        <time>2018-09-17T14:01:14Z</time>
      </trkpt>
      <trkpt lat="47.6326" lon="6.1744">
        <ele>236.45</ele>
        <time>2018-09-17T14:01:15Z</time>
      </trkpt>
      <trkpt lat="47.63255" lon="6.17437">
        <ele>236.41</ele>
        <time>2018-09-17T14:01:16Z</time>
      </trkpt>
      <trkpt lat="47.6325" lon="6.17435">
        <ele>236.37</ele>
        <time>2018-09-17T14:01:17Z</time>
      </trkpt>
      <trkpt lat="47.63245" lon="6.17432">
        <ele>236.34</ele>
        <time>2018-09-17T14:01:18Z</time>
      </trkpt>
      <trkpt lat="47.6324" lon="6.17429">
        <ele>236.3</ele>
        <time>2018-09-17T14:01:19Z</time>
      </trkpt>
      <trkpt lat="47.63235" lon="6.17426">
        <ele>236.25</ele>
        <time>2018-09-17T14:01:20Z</time>
      </trkpt>
      <trkpt lat="47.63229" lon="6.17423">
        <ele>236.21</ele>
        <time>2018-09-17T14:01:21Z</time>
      </trkpt>
      <trkpt lat="47.63224" lon="6.17421">
        <ele>236.17</ele>
        <time>2018-09-17T14:01:22Z</time>
      </trkpt>
      <trkpt lat="47.63218" lon="6.17417">
        <ele>236.12</ele>
        <time>2018-09-17T14:01:23Z</time>
      </trkpt>
      <trkpt lat="47.63213" lon="6.17414">
        <ele>236.07</ele>
        <time>2018-09-17T14:01:24Z</time>
      </trkpt>
      <trkpt lat="47.63207" lon="6.17411">
        <ele>236.02</ele>
        <time>2018-09-17T14:01:25Z</time>
      </trkpt>
      <trkpt lat="47.63201" lon="6.17408">
        <ele>235.96</ele>
        <time>2018-09-17T14:01:26Z</time>
      </trkpt>
      <trkpt lat="47.63195" lon="6.17405">
        <ele>235.91</ele>
        <time>2018-09-17T14:01:27Z</time>
      </trkpt>
      <trkpt lat="47.6319" lon="6.17402">
        <ele>235.86</ele>
        <time>2018-09-17T14:01:28Z</time>
      </trkpt>
      <trkpt lat="47.63184" lon="6.17398">
        <ele>235.8</ele>
        <time>2018-09-17T14:01:29Z</time>
      </trkpt>
      <trkpt lat="47.63178" lon="6.17395">
        <ele>235.76</ele>
        <time>2018-09-17T14:01:30Z</time>
      </trkpt>
      <trkpt lat="47.63173" lon="6.17393">
        <ele>235.71</ele>
        <time>2018-09-17T14:01:31Z</time>
      </trkpt>
      <trkpt lat="47.63167" lon="6.1739">
        <ele>235.66</ele>
        <time>2018-09-17T14:01:32Z</time>
      </trkpt>
      <trkpt lat="47.63161" lon="6.17387">
        <ele>235.6</ele>
        <time>2018-09-17T14:01:33Z</time>
      </trkpt>
      <trkpt lat="47.63156" lon="6.17385">
        <ele>235.51</ele>
        <time>2018-09-17T14:01:34Z</time>
      </trkpt>
      <trkpt lat="47.6315" lon="6.17382">
        <ele>235.43</ele>
        <time>2018-09-17T14:01:35Z</time>
      </trkpt>
      <trkpt lat="47.63145" lon="6.1738">
        <ele>235.39</ele>
        <time>2018-09-17T14:01:36Z</time>
      </trkpt>
      <trkpt lat="47.6314" lon="6.17377">
        <ele>235.32</ele>
        <time>2018-09-17T14:01:37Z</time>
      </trkpt>
      <trkpt lat="47.63135" lon="6.17375">
        <ele>235.26</ele>
        <time>2018-09-17T14:01:38Z</time>
      </trkpt>
      <trkpt lat="47.6313" lon="6.17373">
        <ele>235.24</ele>
        <time>2018-09-17T14:01:39Z</time>
      </trkpt>
      <trkpt lat="47.63126" lon="6.17371">
        <ele>235.2</ele>
        <time>2018-09-17T14:01:40Z</time>
      </trkpt>
      <trkpt lat="47.63117" lon="6.17368">
        <ele>235.09</ele>
        <time>2018-09-17T14:01:42Z</time>
      </trkpt>
      <trkpt lat="47.63109" lon="6.17364">
        <ele>234.96</ele>
        <time>2018-09-17T14:01:44Z</time>
      </trkpt>
      <trkpt lat="47.63101" lon="6.17361">
        <ele>234.92</ele>
        <time>2018-09-17T14:01:46Z</time>
      </trkpt>
      <trkpt lat="47.63095" lon="6.17359">
        <ele>234.91</ele>
        <time>2018-09-17T14:01:48Z</time>
      </trkpt>
      <trkpt lat="47.6309" lon="6.17358">
        <ele>234.92</ele>
        <time>2018-09-17T14:01:50Z</time>
      </trkpt>
      <trkpt lat="47.63084" lon="6.17356">
        <ele>234.93</ele>
        <time>2018-09-17T14:01:52Z</time>
      </trkpt>
      <trkpt lat="47.63073" lon="6.17352">
        <ele>234.91</ele>
        <time>2018-09-17T14:01:54Z</time>
      </trkpt>
      <trkpt lat="47.63064" lon="6.1735">
        <ele>234.94</ele>
        <time>2018-09-17T14:01:56Z</time>
      </trkpt>
      <trkpt lat="47.63056" lon="6.17346">
        <ele>235.05</ele>
        <time>2018-09-17T14:01:58Z</time>
      </trkpt>
      <trkpt lat="47.63048" lon="6.17343">
        <ele>235.1</ele>
        <time>2018-09-17T14:02:00Z</time>
      </trkpt>
      <trkpt lat="47.63039" lon="6.17339">
        <ele>235.06</ele>
        <time>2018-09-17T14:02:02Z</time>
      </trkpt>
      <trkpt lat="47.63032" lon="6.17336">
        <ele>235.05</ele>
        <time>2018-09-17T14:02:04Z</time>
      </trkpt>
      <trkpt lat="47.63024" lon="6.17333">
        <ele>235.02</ele>
        <time>2018-09-17T14:02:06Z</time>
      </trkpt>
      <trkpt lat="47.63017" lon="6.17329">
        <ele>234.93</ele>
        <time>2018-09-17T14:02:08Z</time>
      </trkpt>
      <trkpt lat="47.63009" lon="6.17325">
        <ele>234.75</ele>
        <time>2018-09-17T14:02:10Z</time>
      </trkpt>
      <trkpt lat="47.63004" lon="6.17322">
        <ele>234.63</ele>
        <time>2018-09-17T14:02:11Z</time>
      </trkpt>
      <trkpt lat="47.62999" lon="6.1732">
        <ele>234.5</ele>
        <time>2018-09-17T14:02:12Z</time>
      </trkpt>
      <trkpt lat="47.62993" lon="6.17318">
        <ele>234.37</ele>
        <time>2018-09-17T14:02:13Z</time>
      </trkpt>
      <trkpt lat="47.62987" lon="6.17317">
        <ele>234.24</ele>
        <time>2018-09-17T14:02:14Z</time>
      </trkpt>
      <trkpt lat="47.62982" lon="6.17316">
        <ele>234.13</ele>
        <time>2018-09-17T14:02:15Z</time>
      </trkpt>
      <trkpt lat="47.62977" lon="6.17313">
        <ele>234.03</ele>
        <time>2018-09-17T14:02:16Z</time>
      </trkpt>
      <trkpt lat="47.62973" lon="6.17311">
        <ele>233.93</ele>
        <time>2018-09-17T14:02:17Z</time>
      </trkpt>
      <trkpt lat="47.62965" lon="6.17306">
        <ele>233.77</ele>
        <time>2018-09-17T14:02:19Z</time>
      </trkpt>
      <trkpt lat="47.62959" lon="6.17301">
        <ele>233.72</ele>
        <time>2018-09-17T14:02:21Z</time>
      </trkpt>
      <trkpt lat="47.62954" lon="6.17296">
        <ele>233.7</ele>
        <time>2018-09-17T14:02:23Z</time>
      </trkpt>
      <trkpt lat="47.6295" lon="6.17291">
        <ele>233.67</ele>
        <time>2018-09-17T14:02:25Z</time>
      </trkpt>
      <trkpt lat="47.62946" lon="6.17287">
        <ele>233.64</ele>
        <time>2018-09-17T14:02:27Z</time>
      </trkpt>
      <trkpt lat="47.62942" lon="6.17284">
        <ele>233.59</ele>
        <time>2018-09-17T14:02:30Z</time>
      </trkpt>
      <trkpt lat="47.62936" lon="6.1728">
        <ele>233.53</ele>
        <time>2018-09-17T14:02:33Z</time>
      </trkpt>
      <trkpt lat="47.62933" lon="6.17273">
        <ele>233.47</ele>
        <time>2018-09-17T14:02:36Z</time>
      </trkpt>
      <trkpt lat="47.62933" lon="6.17265">
        <ele>233.43</ele>
        <time>2018-09-17T14:02:38Z</time>
      </trkpt>
      <trkpt lat="47.62935" lon="6.17259">
        <ele>233.39</ele>
        <time>2018-09-17T14:02:40Z</time>
      </trkpt>
      <trkpt lat="47.62938" lon="6.17253">
        <ele>233.36</ele>
        <time>2018-09-17T14:02:42Z</time>
      </trkpt>
      <trkpt lat="47.62941" lon="6.17247">
        <ele>233.33</ele>
        <time>2018-09-17T14:02:44Z</time>
      </trkpt>
      <trkpt lat="47.62945" lon="6.17241">
        <ele>233.3</ele>
        <time>2018-09-17T14:02:46Z</time>
      </trkpt>
      <trkpt lat="47.62949" lon="6.17236">
        <ele>233.28</ele>
        <time>2018-09-17T14:02:48Z</time>
      </trkpt>
      <trkpt lat="47.62953" lon="6.17231">
        <ele>233.25</ele>
        <time>2018-09-17T14:02:50Z</time>
      </trkpt>
      <trkpt lat="47.62958" lon="6.17227">
        <ele>233.23</ele>
        <time>2018-09-17T14:02:52Z</time>
      </trkpt>
      <trkpt lat="47.62962" lon="6.17223">
        <ele>233.21</ele>
        <time>2018-09-17T14:02:54Z</time>
      </trkpt>
      <trkpt lat="47.62967" lon="6.17218">
        <ele>233.2</ele>
        <time>2018-09-17T14:02:56Z</time>
      </trkpt>
      <trkpt lat="47.62972" lon="6.17213">
        <ele>233.18</ele>
        <time>2018-09-17T14:02:58Z</time>
      </trkpt>
      <trkpt lat="47.62976" lon="6.17207">
        <ele>233.16</ele>
        <time>2018-09-17T14:03:00Z</time>
      </trkpt>
      <trkpt lat="47.62981" lon="6.172">
        <ele>233.15</ele>
        <time>2018-09-17T14:03:02Z</time>
      </trkpt>
      <trkpt lat="47.62986" lon="6.17192">
        <ele>233.14</ele>
        <time>2018-09-17T14:03:04Z</time>
      </trkpt>
      <trkpt lat="47.6299" lon="6.17183">
        <ele>233.04</ele>
        <time>2018-09-17T14:03:06Z</time>
      </trkpt>
      <trkpt lat="47.62994" lon="6.17174">
        <ele>232.98</ele>
        <time>2018-09-17T14:03:08Z</time>
      </trkpt>
      <trkpt lat="47.62998" lon="6.17164">
        <ele>232.95</ele>
        <time>2018-09-17T14:03:10Z</time>
      </trkpt>
      <trkpt lat="47.63001" lon="6.17154">
        <ele>232.95</ele>
        <time>2018-09-17T14:03:12Z</time>
      </trkpt>
      <trkpt lat="47.63004" lon="6.17143">
        <ele>232.97</ele>
        <time>2018-09-17T14:03:14Z</time>
      </trkpt>
      <trkpt lat="47.63007" lon="6.17133">
        <ele>232.99</ele>
        <time>2018-09-17T14:03:16Z</time>
      </trkpt>
      <trkpt lat="47.6301" lon="6.17116">
        <ele>233</ele>
        <time>2018-09-17T14:03:17Z</time>
      </trkpt>
      <trkpt lat="47.63013" lon="6.17105">
        <ele>233.02</ele>
        <time>2018-09-17T14:03:19Z</time>
      </trkpt>
      <trkpt lat="47.63014" lon="6.17093">
        <ele>233.05</ele>
        <time>2018-09-17T14:03:21Z</time>
      </trkpt>
      <trkpt lat="47.63016" lon="6.17082">
        <ele>233.06</ele>
        <time>2018-09-17T14:03:23Z</time>
      </trkpt>
      <trkpt lat="47.63017" lon="6.1707">
        <ele>233.07</ele>
        <time>2018-09-17T14:03:25Z</time>
      </trkpt>
      <trkpt lat="47.63018" lon="6.17059">
        <ele>233.07</ele>
        <time>2018-09-17T14:03:27Z</time>
      </trkpt>
      <trkpt lat="47.6302" lon="6.17049">
        <ele>233.07</ele>
        <time>2018-09-17T14:03:29Z</time>
      </trkpt>
      <trkpt lat="47.63022" lon="6.17039">
        <ele>233.08</ele>
        <time>2018-09-17T14:03:31Z</time>
      </trkpt>
      <trkpt lat="47.63023" lon="6.17029">
        <ele>233.08</ele>
        <time>2018-09-17T14:03:33Z</time>
      </trkpt>
      <trkpt lat="47.63025" lon="6.17019">
        <ele>233.09</ele>
        <time>2018-09-17T14:03:35Z</time>
      </trkpt>
      <trkpt lat="47.63027" lon="6.17009">
        <ele>233.09</ele>
        <time>2018-09-17T14:03:37Z</time>
      </trkpt>
      <trkpt lat="47.6303" lon="6.16999">
        <ele>233.1</ele>
        <time>2018-09-17T14:03:39Z</time>
      </trkpt>
      <trkpt lat="47.63032" lon="6.16989">
        <ele>233.11</ele>
        <time>2018-09-17T14:03:41Z</time>
      </trkpt>
      <trkpt lat="47.63034" lon="6.16982">
        <ele>233.11</ele>
        <time>2018-09-17T14:03:43Z</time>
      </trkpt>
      <trkpt lat="47.6304" lon="6.1698">
        <ele>233.11</ele>
        <time>2018-09-17T14:03:46Z</time>
      </trkpt>
      <trkpt lat="47.63045" lon="6.1698">
        <ele>233.11</ele>
        <time>2018-09-17T14:03:48Z</time>
      </trkpt>
      <trkpt lat="47.6305" lon="6.16982">
        <ele>233.11</ele>
        <time>2018-09-17T14:03:50Z</time>
      </trkpt>
      <trkpt lat="47.63055" lon="6.16989">
        <ele>233.1</ele>
        <time>2018-09-17T14:03:52Z</time>
      </trkpt>
      <trkpt lat="47.63059" lon="6.16998">
        <ele>233.07</ele>
        <time>2018-09-17T14:03:54Z</time>
      </trkpt>
      <trkpt lat="47.63064" lon="6.17007">
        <ele>233.01</ele>
        <time>2018-09-17T14:03:56Z</time>
      </trkpt>
      <trkpt lat="47.63068" lon="6.17017">
        <ele>232.96</ele>
        <time>2018-09-17T14:03:58Z</time>
      </trkpt>
      <trkpt lat="47.63076" lon="6.17038">
        <ele>232.92</ele>
        <time>2018-09-17T14:04:00Z</time>
      </trkpt>
      <trkpt lat="47.63079" lon="6.17049">
        <ele>232.89</ele>
        <time>2018-09-17T14:04:02Z</time>
      </trkpt>
      <trkpt lat="47.63084" lon="6.17057">
        <ele>232.89</ele>
        <time>2018-09-17T14:04:04Z</time>
      </trkpt>
      <trkpt lat="47.63088" lon="6.17062">
        <ele>232.88</ele>
        <time>2018-09-17T14:04:07Z</time>
      </trkpt>
      <trkpt lat="47.63093" lon="6.17067">
        <ele>232.87</ele>
        <time>2018-09-17T14:04:09Z</time>
      </trkpt>
      <trkpt lat="47.63097" lon="6.17071">
        <ele>232.86</ele>
        <time>2018-09-17T14:04:11Z</time>
      </trkpt>
      <trkpt lat="47.63103" lon="6.17073">
        <ele>232.85</ele>
        <time>2018-09-17T14:04:13Z</time>
      </trkpt>
      <trkpt lat="47.6311" lon="6.17075">
        <ele>232.84</ele>
        <time>2018-09-17T14:04:15Z</time>
      </trkpt>
      <trkpt lat="47.63116" lon="6.17076">
        <ele>232.83</ele>
        <time>2018-09-17T14:04:17Z</time>
      </trkpt>
      <trkpt lat="47.63123" lon="6.17079">
        <ele>232.74</ele>
        <time>2018-09-17T14:04:19Z</time>
      </trkpt>
      <trkpt lat="47.6313" lon="6.17084">
        <ele>232.66</ele>
        <time>2018-09-17T14:04:21Z</time>
      </trkpt>
      <trkpt lat="47.63145" lon="6.17097">
        <ele>232.58</ele>
        <time>2018-09-17T14:04:23Z</time>
      </trkpt>
      <trkpt lat="47.63149" lon="6.17101">
        <ele>232.55</ele>
        <time>2018-09-17T14:04:24Z</time>
      </trkpt>
      <trkpt lat="47.63152" lon="6.17104">
        <ele>232.51</ele>
        <time>2018-09-17T14:04:25Z</time>
      </trkpt>
      <trkpt lat="47.63157" lon="6.17107">
        <ele>232.48</ele>
        <time>2018-09-17T14:04:26Z</time>
      </trkpt>
      <trkpt lat="47.63161" lon="6.1711">
        <ele>232.45</ele>
        <time>2018-09-17T14:04:27Z</time>
      </trkpt>
      <trkpt lat="47.63166" lon="6.17112">
        <ele>232.42</ele>
        <time>2018-09-17T14:04:28Z</time>
      </trkpt>
      <trkpt lat="47.63174" lon="6.17114">
        <ele>232.39</ele>
        <time>2018-09-17T14:04:30Z</time>
      </trkpt>
      <trkpt lat="47.63183" lon="6.17115">
        <ele>232.34</ele>
        <time>2018-09-17T14:04:32Z</time>
      </trkpt>
      <trkpt lat="47.63191" lon="6.17114">
        <ele>232.3</ele>
        <time>2018-09-17T14:04:34Z</time>
      </trkpt>
      <trkpt lat="47.63199" lon="6.1711">
        <ele>232.27</ele>
        <time>2018-09-17T14:04:36Z</time>
      </trkpt>
      <trkpt lat="47.63206" lon="6.17106">
        <ele>232.26</ele>
        <time>2018-09-17T14:04:38Z</time>
      </trkpt>
      <trkpt lat="47.63213" lon="6.17102">
        <ele>232.23</ele>
        <time>2018-09-17T14:04:40Z</time>
      </trkpt>
      <trkpt lat="47.63221" lon="6.17098">
        <ele>232.22</ele>
        <time>2018-09-17T14:04:42Z</time>
      </trkpt>
      <trkpt lat="47.63228" lon="6.17094">
        <ele>232.22</ele>
        <time>2018-09-17T14:04:44Z</time>
      </trkpt>
      <trkpt lat="47.63236" lon="6.17091">
        <ele>232.22</ele>
        <time>2018-09-17T14:04:46Z</time>
      </trkpt>
      <trkpt lat="47.63243" lon="6.17088">
        <ele>232.21</ele>
        <time>2018-09-17T14:04:48Z</time>
      </trkpt>
      <trkpt lat="47.63252" lon="6.17086">
        <ele>232.2</ele>
        <time>2018-09-17T14:04:50Z</time>
      </trkpt>
      <trkpt lat="47.63257" lon="6.17085">
        <ele>232.2</ele>
        <time>2018-09-17T14:04:51Z</time>
      </trkpt>
      <trkpt lat="47.63262" lon="6.17085">
        <ele>232.19</ele>
        <time>2018-09-17T14:04:52Z</time>
      </trkpt>
      <trkpt lat="47.63267" lon="6.17085">
        <ele>232.19</ele>
        <time>2018-09-17T14:04:53Z</time>
      </trkpt>
      <trkpt lat="47.63272" lon="6.17086">
        <ele>232.18</ele>
        <time>2018-09-17T14:04:54Z</time>
      </trkpt>
      <trkpt lat="47.63278" lon="6.17088">
        <ele>232.17</ele>
        <time>2018-09-17T14:04:55Z</time>
      </trkpt>
      <trkpt lat="47.63283" lon="6.17091">
        <ele>232.17</ele>
        <time>2018-09-17T14:04:56Z</time>
      </trkpt>
      <trkpt lat="47.63289" lon="6.17094">
        <ele>232.15</ele>
        <time>2018-09-17T14:04:57Z</time>
      </trkpt>
      <trkpt lat="47.63293" lon="6.17097">
        <ele>232.14</ele>
        <time>2018-09-17T14:04:58Z</time>
      </trkpt>
      <trkpt lat="47.63297" lon="6.17101">
        <ele>232.13</ele>
        <time>2018-09-17T14:04:59Z</time>
      </trkpt>
      <trkpt lat="47.63305" lon="6.17106">
        <ele>232.1</ele>
        <time>2018-09-17T14:05:01Z</time>
      </trkpt>
      <trkpt lat="47.63312" lon="6.1711">
        <ele>232.09</ele>
        <time>2018-09-17T14:05:03Z</time>
      </trkpt>
      <trkpt lat="47.63319" lon="6.17113">
        <ele>232.08</ele>
        <time>2018-09-17T14:05:05Z</time>
      </trkpt>
      <trkpt lat="47.63324" lon="6.17114">
        <ele>232.07</ele>
        <time>2018-09-17T14:05:06Z</time>
      </trkpt>
      <trkpt lat="47.63329" lon="6.17113">
        <ele>232.07</ele>
        <time>2018-09-17T14:05:07Z</time>
      </trkpt>
      <trkpt lat="47.63337" lon="6.17115">
        <ele>232.07</ele>
        <time>2018-09-17T14:05:09Z</time>
      </trkpt>
      <trkpt lat="47.63345" lon="6.17116">
        <ele>232.07</ele>
        <time>2018-09-17T14:05:11Z</time>
      </trkpt>
      <trkpt lat="47.6335" lon="6.17117">
        <ele>232.08</ele>
        <time>2018-09-17T14:05:12Z</time>
      </trkpt>
      <trkpt lat="47.63355" lon="6.17118">
        <ele>232.08</ele>
        <time>2018-09-17T14:05:13Z</time>
      </trkpt>
      <trkpt lat="47.6336" lon="6.17119">
        <ele>232.09</ele>
        <time>2018-09-17T14:05:14Z</time>
      </trkpt>
      <trkpt lat="47.63368" lon="6.17123">
        <ele>232.1</ele>
        <time>2018-09-17T14:05:16Z</time>
      </trkpt>
      <trkpt lat="47.63372" lon="6.17125">
        <ele>232.11</ele>
        <time>2018-09-17T14:05:17Z</time>
      </trkpt>
      <trkpt lat="47.63376" lon="6.17129">
        <ele>232.12</ele>
        <time>2018-09-17T14:05:18Z</time>
      </trkpt>
      <trkpt lat="47.6338" lon="6.17133">
        <ele>232.12</ele>
        <time>2018-09-17T14:05:19Z</time>
      </trkpt>
      <trkpt lat="47.63384" lon="6.17138">
        <ele>232.12</ele>
        <time>2018-09-17T14:05:20Z</time>
      </trkpt>
      <trkpt lat="47.63388" lon="6.17142">
        <ele>232.12</ele>
        <time>2018-09-17T14:05:21Z</time>
      </trkpt>
      <trkpt lat="47.63395" lon="6.1715">
        <ele>232.11</ele>
        <time>2018-09-17T14:05:23Z</time>
      </trkpt>
      <trkpt lat="47.63403" lon="6.1715">
        <ele>232.1</ele>
        <time>2018-09-17T14:05:25Z</time>
      </trkpt>
      <trkpt lat="47.63411" lon="6.17146">
        <ele>232.09</ele>
        <time>2018-09-17T14:05:27Z</time>
      </trkpt>
      <trkpt lat="47.63418" lon="6.17146">
        <ele>232.09</ele>
        <time>2018-09-17T14:05:29Z</time>
      </trkpt>
      <trkpt lat="47.63424" lon="6.17146">
        <ele>232.08</ele>
        <time>2018-09-17T14:05:31Z</time>
      </trkpt>
      <trkpt lat="47.6343" lon="6.17146">
        <ele>232.08</ele>
        <time>2018-09-17T14:05:33Z</time>
      </trkpt>
      <trkpt lat="47.63436" lon="6.17145">
        <ele>232.07</ele>
        <time>2018-09-17T14:05:36Z</time>
      </trkpt>
      <trkpt lat="47.63442" lon="6.17144">
        <ele>232.06</ele>
        <time>2018-09-17T14:05:39Z</time>
      </trkpt>
      <trkpt lat="47.63448" lon="6.17143">
        <ele>232.04</ele>
        <time>2018-09-17T14:05:42Z</time>
      </trkpt>
      <trkpt lat="47.63455" lon="6.17143">
        <ele>232.02</ele>
        <time>2018-09-17T14:05:45Z</time>
      </trkpt>
      <trkpt lat="47.63462" lon="6.17142">
        <ele>232.01</ele>
        <time>2018-09-17T14:05:47Z</time>
      </trkpt>
      <trkpt lat="47.6347" lon="6.17142">
        <ele>232</ele>
        <time>2018-09-17T14:05:49Z</time>
      </trkpt>
      <trkpt lat="47.63478" lon="6.17142">
        <ele>231.99</ele>
        <time>2018-09-17T14:05:51Z</time>
      </trkpt>
      <trkpt lat="47.63485" lon="6.17142">
        <ele>231.98</ele>
        <time>2018-09-17T14:05:53Z</time>
      </trkpt>
      <trkpt lat="47.63492" lon="6.17142">
        <ele>231.98</ele>
        <time>2018-09-17T14:05:55Z</time>
      </trkpt>
      <trkpt lat="47.63499" lon="6.17142">
        <ele>231.97</ele>
        <time>2018-09-17T14:05:57Z</time>
      </trkpt>
      <trkpt lat="47.63507" lon="6.17142">
        <ele>231.97</ele>
        <time>2018-09-17T14:05:59Z</time>
      </trkpt>
      <trkpt lat="47.63514" lon="6.17142">
        <ele>231.97</ele>
        <time>2018-09-17T14:06:01Z</time>
      </trkpt>
      <trkpt lat="47.63523" lon="6.17141">
        <ele>231.97</ele>
        <time>2018-09-17T14:06:03Z</time>
      </trkpt>
      <trkpt lat="47.63531" lon="6.1714">
        <ele>231.96</ele>
        <time>2018-09-17T14:06:05Z</time>
      </trkpt>
      <trkpt lat="47.63539" lon="6.1714">
        <ele>231.97</ele>
        <time>2018-09-17T14:06:07Z</time>
      </trkpt>
      <trkpt lat="47.63547" lon="6.17139">
        <ele>231.97</ele>
        <time>2018-09-17T14:06:09Z</time>
      </trkpt>
      <trkpt lat="47.63554" lon="6.17139">
        <ele>231.97</ele>
        <time>2018-09-17T14:06:11Z</time>
      </trkpt>
      <trkpt lat="47.63562" lon="6.17138">
        <ele>231.97</ele>
        <time>2018-09-17T14:06:13Z</time>
      </trkpt>
      <trkpt lat="47.63575" lon="6.17138">
        <ele>231.99</ele>
        <time>2018-09-17T14:06:15Z</time>
      </trkpt>
      <trkpt lat="47.6358" lon="6.17138">
        <ele>232</ele>
        <time>2018-09-17T14:06:17Z</time>
      </trkpt>
      <trkpt lat="47.63587" lon="6.17138">
        <ele>232.01</ele>
        <time>2018-09-17T14:06:19Z</time>
      </trkpt>
      <trkpt lat="47.63591" lon="6.17135">
        <ele>232.01</ele>
        <time>2018-09-17T14:06:21Z</time>
      </trkpt>
      <trkpt lat="47.63593" lon="6.17125">
        <ele>232.02</ele>
        <time>2018-09-17T14:06:24Z</time>
      </trkpt>
      <trkpt lat="47.63594" lon="6.17115">
        <ele>232.02</ele>
        <time>2018-09-17T14:06:26Z</time>
      </trkpt>
      <trkpt lat="47.63594" lon="6.17105">
        <ele>232.03</ele>
        <time>2018-09-17T14:06:28Z</time>
      </trkpt>
      <trkpt lat="47.63594" lon="6.17096">
        <ele>232.03</ele>
        <time>2018-09-17T14:06:30Z</time>
      </trkpt>
      <trkpt lat="47.63594" lon="6.17085">
        <ele>232.03</ele>
        <time>2018-09-17T14:06:32Z</time>
      </trkpt>
      <trkpt lat="47.63593" lon="6.17076">
        <ele>232.04</ele>
        <time>2018-09-17T14:06:34Z</time>
      </trkpt>
      <trkpt lat="47.63593" lon="6.17065">
        <ele>232.04</ele>
        <time>2018-09-17T14:06:35Z</time>
      </trkpt>
      <trkpt lat="47.63592" lon="6.17054">
        <ele>232.04</ele>
        <time>2018-09-17T14:06:38Z</time>
      </trkpt>
      <trkpt lat="47.63594" lon="6.17048">
        <ele>232.05</ele>
        <time>2018-09-17T14:06:40Z</time>
      </trkpt>
      <trkpt lat="47.63598" lon="6.17042">
        <ele>232.05</ele>
        <time>2018-09-17T14:06:42Z</time>
      </trkpt>
      <trkpt lat="47.63603" lon="6.17035">
        <ele>232.05</ele>
        <time>2018-09-17T14:06:44Z</time>
      </trkpt>
      <trkpt lat="47.63608" lon="6.17029">
        <ele>232.06</ele>
        <time>2018-09-17T14:06:46Z</time>
      </trkpt>
      <trkpt lat="47.63612" lon="6.17023">
        <ele>232.06</ele>
        <time>2018-09-17T14:06:48Z</time>
      </trkpt>
      <trkpt lat="47.63618" lon="6.17016">
        <ele>232.07</ele>
        <time>2018-09-17T14:06:50Z</time>
      </trkpt>
      <trkpt lat="47.63623" lon="6.1701">
        <ele>232.07</ele>
        <time>2018-09-17T14:06:52Z</time>
      </trkpt>
      <trkpt lat="47.63627" lon="6.17004">
        <ele>232.07</ele>
        <time>2018-09-17T14:06:54Z</time>
      </trkpt>
      <trkpt lat="47.63632" lon="6.16998">
        <ele>232.08</ele>
        <time>2018-09-17T14:06:56Z</time>
      </trkpt>
      <trkpt lat="47.63638" lon="6.16992">
        <ele>232.08</ele>
        <time>2018-09-17T14:06:58Z</time>
      </trkpt>
      <trkpt lat="47.63643" lon="6.16985">
        <ele>232.09</ele>
        <time>2018-09-17T14:07:00Z</time>
      </trkpt>
      <trkpt lat="47.63648" lon="6.16979">
        <ele>232.1</ele>
        <time>2018-09-17T14:07:02Z</time>
      </trkpt>
      <trkpt lat="47.63653" lon="6.16975">
        <ele>232.12</ele>
        <time>2018-09-17T14:07:04Z</time>
      </trkpt>
      <trkpt lat="47.63659" lon="6.16971">
        <ele>232.13</ele>
        <time>2018-09-17T14:07:06Z</time>
      </trkpt>
      <trkpt lat="47.63664" lon="6.16971">
        <ele>232.15</ele>
        <time>2018-09-17T14:07:09Z</time>
      </trkpt>
      <trkpt lat="47.63668" lon="6.16976">
        <ele>232.16</ele>
        <time>2018-09-17T14:07:11Z</time>
      </trkpt>
      <trkpt lat="47.63671" lon="6.16983">
        <ele>232.18</ele>
        <time>2018-09-17T14:07:13Z</time>
      </trkpt>
      <trkpt lat="47.63676" lon="6.16991">
        <ele>232.22</ele>
        <time>2018-09-17T14:07:15Z</time>
      </trkpt>
      <trkpt lat="47.6368" lon="6.16999">
        <ele>232.3</ele>
        <time>2018-09-17T14:07:17Z</time>
      </trkpt>
      <trkpt lat="47.63685" lon="6.17009">
        <ele>232.35</ele>
        <time>2018-09-17T14:07:19Z</time>
      </trkpt>
      <trkpt lat="47.6369" lon="6.17017">
        <ele>232.38</ele>
        <time>2018-09-17T14:07:21Z</time>
      </trkpt>
      <trkpt lat="47.63695" lon="6.17027">
        <ele>232.39</ele>
        <time>2018-09-17T14:07:23Z</time>
      </trkpt>
      <trkpt lat="47.63702" lon="6.17038">
        <ele>232.4</ele>
        <time>2018-09-17T14:07:24Z</time>
      </trkpt>
      <trkpt lat="47.63707" lon="6.17047">
        <ele>232.41</ele>
        <time>2018-09-17T14:07:26Z</time>
      </trkpt>
      <trkpt lat="47.63712" lon="6.17056">
        <ele>232.42</ele>
        <time>2018-09-17T14:07:28Z</time>
      </trkpt>
      <trkpt lat="47.63718" lon="6.17065">
        <ele>232.43</ele>
        <time>2018-09-17T14:07:30Z</time>
      </trkpt>
      <trkpt lat="47.63723" lon="6.17074">
        <ele>232.45</ele>
        <time>2018-09-17T14:07:32Z</time>
      </trkpt>
      <trkpt lat="47.63729" lon="6.17084">
        <ele>232.46</ele>
        <time>2018-09-17T14:07:34Z</time>
      </trkpt>
      <trkpt lat="47.63735" lon="6.17093">
        <ele>232.48</ele>
        <time>2018-09-17T14:07:36Z</time>
      </trkpt>
      <trkpt lat="47.6374" lon="6.17102">
        <ele>232.5</ele>
        <time>2018-09-17T14:07:38Z</time>
      </trkpt>
      <trkpt lat="47.63746" lon="6.17111">
        <ele>232.51</ele>
        <time>2018-09-17T14:07:40Z</time>
      </trkpt>
      <trkpt lat="47.63752" lon="6.17121">
        <ele>232.52</ele>
        <time>2018-09-17T14:07:42Z</time>
      </trkpt>
      <trkpt lat="47.63757" lon="6.1713">
        <ele>232.53</ele>
        <time>2018-09-17T14:07:44Z</time>
      </trkpt>
      <trkpt lat="47.63763" lon="6.17139">
        <ele>232.54</ele>
        <time>2018-09-17T14:07:46Z</time>
      </trkpt>
      <trkpt lat="47.63768" lon="6.17148">
        <ele>232.55</ele>
        <time>2018-09-17T14:07:48Z</time>
      </trkpt>
      <trkpt lat="47.63772" lon="6.17157">
        <ele>232.55</ele>
        <time>2018-09-17T14:07:50Z</time>
      </trkpt>
      <trkpt lat="47.63777" lon="6.17166">
        <ele>232.55</ele>
        <time>2018-09-17T14:07:52Z</time>
      </trkpt>
      <trkpt lat="47.63783" lon="6.17175">
        <ele>232.55</ele>
        <time>2018-09-17T14:07:54Z</time>
      </trkpt>
      <trkpt lat="47.63788" lon="6.17183">
        <ele>232.55</ele>
        <time>2018-09-17T14:07:56Z</time>
      </trkpt>
      <trkpt lat="47.63794" lon="6.17192">
        <ele>232.56</ele>
        <time>2018-09-17T14:07:58Z</time>
      </trkpt>
      <trkpt lat="47.63797" lon="6.17197">
        <ele>232.56</ele>
        <time>2018-09-17T14:07:59Z</time>
      </trkpt>
      <trkpt lat="47.63802" lon="6.17207">
        <ele>232.57</ele>
        <time>2018-09-17T14:08:01Z</time>
      </trkpt>
      <trkpt lat="47.63808" lon="6.17216">
        <ele>232.58</ele>
        <time>2018-09-17T14:08:03Z</time>
      </trkpt>
      <trkpt lat="47.63814" lon="6.17225">
        <ele>232.59</ele>
        <time>2018-09-17T14:08:05Z</time>
      </trkpt>
      <trkpt lat="47.63819" lon="6.17235">
        <ele>232.6</ele>
        <time>2018-09-17T14:08:07Z</time>
      </trkpt>
      <trkpt lat="47.63825" lon="6.17244">
        <ele>232.61</ele>
        <time>2018-09-17T14:08:09Z</time>
      </trkpt>
      <trkpt lat="47.6383" lon="6.17253">
        <ele>232.62</ele>
        <time>2018-09-17T14:08:11Z</time>
      </trkpt>
      <trkpt lat="47.63836" lon="6.17262">
        <ele>232.63</ele>
        <time>2018-09-17T14:08:13Z</time>
      </trkpt>
      <trkpt lat="47.63842" lon="6.17271">
        <ele>232.64</ele>
        <time>2018-09-17T14:08:15Z</time>
      </trkpt>
      <trkpt lat="47.63849" lon="6.17278">
        <ele>232.66</ele>
        <time>2018-09-17T14:08:17Z</time>
      </trkpt>
      <trkpt lat="47.63855" lon="6.17286">
        <ele>232.67</ele>
        <time>2018-09-17T14:08:19Z</time>
      </trkpt>
      <trkpt lat="47.63862" lon="6.17294">
        <ele>232.69</ele>
        <time>2018-09-17T14:08:21Z</time>
      </trkpt>
      <trkpt lat="47.63869" lon="6.17302">
        <ele>232.7</ele>
        <time>2018-09-17T14:08:23Z</time>
      </trkpt>
      <trkpt lat="47.63876" lon="6.1731">
        <ele>232.72</ele>
        <time>2018-09-17T14:08:25Z</time>
      </trkpt>
      <trkpt lat="47.63883" lon="6.17318">
        <ele>232.73</ele>
        <time>2018-09-17T14:08:27Z</time>
      </trkpt>
      <trkpt lat="47.63887" lon="6.17322">
        <ele>232.73</ele>
        <time>2018-09-17T14:08:28Z</time>
      </trkpt>
      <trkpt lat="47.6389" lon="6.17327">
        <ele>232.73</ele>
        <time>2018-09-17T14:08:29Z</time>
      </trkpt>
      <trkpt lat="47.63894" lon="6.17331">
        <ele>232.73</ele>
        <time>2018-09-17T14:08:30Z</time>
      </trkpt>
      <trkpt lat="47.63898" lon="6.17335">
        <ele>232.72</ele>
        <time>2018-09-17T14:08:31Z</time>
      </trkpt>
      <trkpt lat="47.63901" lon="6.1734">
        <ele>232.72</ele>
        <time>2018-09-17T14:08:32Z</time>
      </trkpt>
      <trkpt lat="47.63905" lon="6.17345">
        <ele>232.72</ele>
        <time>2018-09-17T14:08:33Z</time>
      </trkpt>
      <trkpt lat="47.63909" lon="6.17349">
        <ele>232.71</ele>
        <time>2018-09-17T14:08:34Z</time>
      </trkpt>
      <trkpt lat="47.63913" lon="6.17354">
        <ele>232.71</ele>
        <time>2018-09-17T14:08:35Z</time>
      </trkpt>
      <trkpt lat="47.63917" lon="6.17359">
        <ele>232.7</ele>
        <time>2018-09-17T14:08:36Z</time>
      </trkpt>
      <trkpt lat="47.63921" lon="6.17363">
        <ele>232.7</ele>
        <time>2018-09-17T14:08:37Z</time>
      </trkpt>
      <trkpt lat="47.63925" lon="6.17367">
        <ele>232.69</ele>
        <time>2018-09-17T14:08:38Z</time>
      </trkpt>
      <trkpt lat="47.63929" lon="6.17372">
        <ele>232.69</ele>
        <time>2018-09-17T14:08:39Z</time>
      </trkpt>
      <trkpt lat="47.63933" lon="6.17376">
        <ele>232.68</ele>
        <time>2018-09-17T14:08:40Z</time>
      </trkpt>
      <trkpt lat="47.63937" lon="6.1738">
        <ele>232.67</ele>
        <time>2018-09-17T14:08:41Z</time>
      </trkpt>
      <trkpt lat="47.63941" lon="6.17384">
        <ele>232.67</ele>
        <time>2018-09-17T14:08:42Z</time>
      </trkpt>
      <trkpt lat="47.63945" lon="6.17388">
        <ele>232.66</ele>
        <time>2018-09-17T14:08:43Z</time>
      </trkpt>
      <trkpt lat="47.6395" lon="6.17392">
        <ele>232.65</ele>
        <time>2018-09-17T14:08:44Z</time>
      </trkpt>
      <trkpt lat="47.63955" lon="6.17396">
        <ele>232.65</ele>
        <time>2018-09-17T14:08:45Z</time>
      </trkpt>
      <trkpt lat="47.63959" lon="6.17399">
        <ele>232.64</ele>
        <time>2018-09-17T14:08:46Z</time>
      </trkpt>
      <trkpt lat="47.63964" lon="6.17402">
        <ele>232.63</ele>
        <time>2018-09-17T14:08:47Z</time>
      </trkpt>
      <trkpt lat="47.63969" lon="6.17405">
        <ele>232.63</ele>
        <time>2018-09-17T14:08:48Z</time>
      </trkpt>
      <trkpt lat="47.63974" lon="6.17408">
        <ele>232.62</ele>
        <time>2018-09-17T14:08:49Z</time>
      </trkpt>
      <trkpt lat="47.63979" lon="6.17412">
        <ele>232.61</ele>
        <time>2018-09-17T14:08:50Z</time>
      </trkpt>
      <trkpt lat="47.63983" lon="6.17416">
        <ele>232.6</ele>
        <time>2018-09-17T14:08:51Z</time>
      </trkpt>
      <trkpt lat="47.63987" lon="6.17419">
        <ele>232.59</ele>
        <time>2018-09-17T14:08:52Z</time>
      </trkpt>
      <trkpt lat="47.63991" lon="6.17422">
        <ele>232.58</ele>
        <time>2018-09-17T14:08:53Z</time>
      </trkpt>
      <trkpt lat="47.63995" lon="6.17425">
        <ele>232.58</ele>
        <time>2018-09-17T14:08:54Z</time>
      </trkpt>
      <trkpt lat="47.64004" lon="6.17429">
        <ele>232.56</ele>
        <time>2018-09-17T14:08:56Z</time>
      </trkpt>
      <trkpt lat="47.64008" lon="6.17432">
        <ele>232.55</ele>
        <time>2018-09-17T14:08:57Z</time>
      </trkpt>
      <trkpt lat="47.64012" lon="6.17437">
        <ele>232.54</ele>
        <time>2018-09-17T14:08:58Z</time>
      </trkpt>
      <trkpt lat="47.64015" lon="6.17442">
        <ele>232.53</ele>
        <time>2018-09-17T14:08:59Z</time>
      </trkpt>
      <trkpt lat="47.64019" lon="6.17448">
        <ele>232.52</ele>
        <time>2018-09-17T14:09:00Z</time>
      </trkpt>
      <trkpt lat="47.64024" lon="6.17453">
        <ele>232.51</ele>
        <time>2018-09-17T14:09:01Z</time>
      </trkpt>
      <trkpt lat="47.64028" lon="6.17459">
        <ele>232.5</ele>
        <time>2018-09-17T14:09:02Z</time>
      </trkpt>
      <trkpt lat="47.64032" lon="6.17465">
        <ele>232.49</ele>
        <time>2018-09-17T14:09:03Z</time>
      </trkpt>
      <trkpt lat="47.64035" lon="6.17471">
        <ele>232.48</ele>
        <time>2018-09-17T14:09:04Z</time>
      </trkpt>
      <trkpt lat="47.6404" lon="6.17477">
        <ele>232.47</ele>
        <time>2018-09-17T14:09:05Z</time>
      </trkpt>
      <trkpt lat="47.64043" lon="6.17483">
        <ele>232.46</ele>
        <time>2018-09-17T14:09:06Z</time>
      </trkpt>
      <trkpt lat="47.64047" lon="6.17488">
        <ele>232.45</ele>
        <time>2018-09-17T14:09:07Z</time>
      </trkpt>
      <trkpt lat="47.64051" lon="6.17494">
        <ele>232.44</ele>
        <time>2018-09-17T14:09:08Z</time>
      </trkpt>
      <trkpt lat="47.64055" lon="6.175">
        <ele>232.43</ele>
        <time>2018-09-17T14:09:09Z</time>
      </trkpt>
      <trkpt lat="47.64059" lon="6.17506">
        <ele>232.41</ele>
        <time>2018-09-17T14:09:10Z</time>
      </trkpt>
      <trkpt lat="47.64063" lon="6.17511">
        <ele>232.4</ele>
        <time>2018-09-17T14:09:11Z</time>
      </trkpt>
      <trkpt lat="47.64067" lon="6.17517">
        <ele>232.39</ele>
        <time>2018-09-17T14:09:12Z</time>
      </trkpt>
      <trkpt lat="47.64071" lon="6.17523">
        <ele>232.38</ele>
        <time>2018-09-17T14:09:13Z</time>
      </trkpt>
      <trkpt lat="47.64075" lon="6.17528">
        <ele>232.36</ele>
        <time>2018-09-17T14:09:14Z</time>
      </trkpt>
      <trkpt lat="47.64079" lon="6.17533">
        <ele>232.35</ele>
        <time>2018-09-17T14:09:15Z</time>
      </trkpt>
      <trkpt lat="47.64083" lon="6.17539">
        <ele>232.34</ele>
        <time>2018-09-17T14:09:16Z</time>
      </trkpt>
      <trkpt lat="47.64086" lon="6.17544">
        <ele>232.32</ele>
        <time>2018-09-17T14:09:17Z</time>
      </trkpt>
      <trkpt lat="47.6409" lon="6.1755">
        <ele>232.31</ele>
        <time>2018-09-17T14:09:18Z</time>
      </trkpt>
      <trkpt lat="47.64094" lon="6.17556">
        <ele>232.3</ele>
        <time>2018-09-17T14:09:19Z</time>
      </trkpt>
      <trkpt lat="47.64098" lon="6.17562">
        <ele>232.29</ele>
        <time>2018-09-17T14:09:20Z</time>
      </trkpt>
      <trkpt lat="47.64102" lon="6.17567">
        <ele>232.28</ele>
        <time>2018-09-17T14:09:21Z</time>
      </trkpt>
      <trkpt lat="47.64106" lon="6.17573">
        <ele>232.26</ele>
        <time>2018-09-17T14:09:22Z</time>
      </trkpt>
      <trkpt lat="47.6411" lon="6.17579">
        <ele>232.25</ele>
        <time>2018-09-17T14:09:23Z</time>
      </trkpt>
      <trkpt lat="47.64114" lon="6.17584">
        <ele>232.24</ele>
        <time>2018-09-17T14:09:24Z</time>
      </trkpt>
      <trkpt lat="47.64118" lon="6.1759">
        <ele>232.23</ele>
        <time>2018-09-17T14:09:25Z</time>
      </trkpt>
      <trkpt lat="47.64122" lon="6.17595">
        <ele>232.22</ele>
        <time>2018-09-17T14:09:26Z</time>
      </trkpt>
      <trkpt lat="47.64125" lon="6.17601">
        <ele>232.2</ele>
        <time>2018-09-17T14:09:27Z</time>
      </trkpt>
      <trkpt lat="47.64129" lon="6.17606">
        <ele>232.19</ele>
        <time>2018-09-17T14:09:28Z</time>
      </trkpt>
      <trkpt lat="47.64133" lon="6.17612">
        <ele>232.18</ele>
        <time>2018-09-17T14:09:29Z</time>
      </trkpt>
      <trkpt lat="47.64137" lon="6.17618">
        <ele>232.17</ele>
        <time>2018-09-17T14:09:30Z</time>
      </trkpt>
      <trkpt lat="47.64141" lon="6.17623">
        <ele>232.15</ele>
        <time>2018-09-17T14:09:31Z</time>
      </trkpt>
      <trkpt lat="47.64145" lon="6.17628">
        <ele>232.14</ele>
        <time>2018-09-17T14:09:32Z</time>
      </trkpt>
      <trkpt lat="47.64148" lon="6.17634">
        <ele>232.12</ele>
        <time>2018-09-17T14:09:33Z</time>
      </trkpt>
      <trkpt lat="47.64152" lon="6.17639">
        <ele>232.11</ele>
        <time>2018-09-17T14:09:34Z</time>
      </trkpt>
      <trkpt lat="47.64156" lon="6.17644">
        <ele>232.1</ele>
        <time>2018-09-17T14:09:35Z</time>
      </trkpt>
      <trkpt lat="47.6416" lon="6.17649">
        <ele>232.08</ele>
        <time>2018-09-17T14:09:36Z</time>
      </trkpt>
      <trkpt lat="47.64163" lon="6.17653">
        <ele>232.07</ele>
        <time>2018-09-17T14:09:37Z</time>
      </trkpt>
      <trkpt lat="47.64167" lon="6.17658">
        <ele>232.06</ele>
        <time>2018-09-17T14:09:38Z</time>
      </trkpt>
      <trkpt lat="47.64171" lon="6.17663">
        <ele>232.04</ele>
        <time>2018-09-17T14:09:39Z</time>
      </trkpt>
      <trkpt lat="47.64174" lon="6.17668">
        <ele>232.03</ele>
        <time>2018-09-17T14:09:40Z</time>
      </trkpt>
      <trkpt lat="47.64178" lon="6.17673">
        <ele>232.02</ele>
        <time>2018-09-17T14:09:41Z</time>
      </trkpt>
      <trkpt lat="47.64182" lon="6.17679">
        <ele>232</ele>
        <time>2018-09-17T14:09:42Z</time>
      </trkpt>
      <trkpt lat="47.64186" lon="6.17683">
        <ele>231.99</ele>
        <time>2018-09-17T14:09:43Z</time>
      </trkpt>
      <trkpt lat="47.64189" lon="6.17688">
        <ele>231.97</ele>
        <time>2018-09-17T14:09:44Z</time>
      </trkpt>
      <trkpt lat="47.64193" lon="6.17693">
        <ele>231.96</ele>
        <time>2018-09-17T14:09:45Z</time>
      </trkpt>
      <trkpt lat="47.64197" lon="6.17698">
        <ele>231.94</ele>
        <time>2018-09-17T14:09:46Z</time>
      </trkpt>
      <trkpt lat="47.642" lon="6.17703">
        <ele>231.93</ele>
        <time>2018-09-17T14:09:47Z</time>
      </trkpt>
      <trkpt lat="47.64204" lon="6.17707">
        <ele>231.91</ele>
        <time>2018-09-17T14:09:48Z</time>
      </trkpt>
      <trkpt lat="47.64207" lon="6.17712">
        <ele>231.9</ele>
        <time>2018-09-17T14:09:49Z</time>
      </trkpt>
      <trkpt lat="47.64214" lon="6.17721">
        <ele>231.87</ele>
        <time>2018-09-17T14:09:51Z</time>
      </trkpt>
      <trkpt lat="47.64217" lon="6.17726">
        <ele>231.86</ele>
        <time>2018-09-17T14:09:52Z</time>
      </trkpt>
      <trkpt lat="47.64221" lon="6.17729">
        <ele>231.85</ele>
        <time>2018-09-17T14:09:53Z</time>
      </trkpt>
      <trkpt lat="47.64228" lon="6.17737">
        <ele>231.82</ele>
        <time>2018-09-17T14:09:55Z</time>
      </trkpt>
      <trkpt lat="47.64236" lon="6.17745">
        <ele>231.8</ele>
        <time>2018-09-17T14:09:57Z</time>
      </trkpt>
      <trkpt lat="47.64243" lon="6.17751">
        <ele>231.78</ele>
        <time>2018-09-17T14:09:59Z</time>
      </trkpt>
      <trkpt lat="47.64251" lon="6.17757">
        <ele>231.76</ele>
        <time>2018-09-17T14:10:01Z</time>
      </trkpt>
      <trkpt lat="47.64255" lon="6.17759">
        <ele>231.76</ele>
        <time>2018-09-17T14:10:02Z</time>
      </trkpt>
      <trkpt lat="47.6426" lon="6.17762">
        <ele>231.75</ele>
        <time>2018-09-17T14:10:03Z</time>
      </trkpt>
      <trkpt lat="47.64264" lon="6.17764">
        <ele>231.75</ele>
        <time>2018-09-17T14:10:04Z</time>
      </trkpt>
      <trkpt lat="47.64269" lon="6.17767">
        <ele>231.74</ele>
        <time>2018-09-17T14:10:05Z</time>
      </trkpt>
      <trkpt lat="47.64273" lon="6.17769">
        <ele>231.74</ele>
        <time>2018-09-17T14:10:06Z</time>
      </trkpt>
      <trkpt lat="47.64278" lon="6.17772">
        <ele>231.73</ele>
        <time>2018-09-17T14:10:07Z</time>
      </trkpt>
      <trkpt lat="47.64282" lon="6.17774">
        <ele>231.73</ele>
        <time>2018-09-17T14:10:08Z</time>
      </trkpt>
      <trkpt lat="47.64287" lon="6.17777">
        <ele>231.73</ele>
        <time>2018-09-17T14:10:09Z</time>
      </trkpt>
      <trkpt lat="47.64291" lon="6.1778">
        <ele>231.72</ele>
        <time>2018-09-17T14:10:10Z</time>
      </trkpt>
      <trkpt lat="47.64295" lon="6.17783">
        <ele>231.72</ele>
        <time>2018-09-17T14:10:11Z</time>
      </trkpt>
      <trkpt lat="47.64304" lon="6.17787">
        <ele>231.71</ele>
        <time>2018-09-17T14:10:13Z</time>
      </trkpt>
      <trkpt lat="47.64308" lon="6.1779">
        <ele>231.7</ele>
        <time>2018-09-17T14:10:14Z</time>
      </trkpt>
      <trkpt lat="47.64317" lon="6.17795">
        <ele>231.68</ele>
        <time>2018-09-17T14:10:16Z</time>
      </trkpt>
      <trkpt lat="47.64321" lon="6.17797">
        <ele>231.67</ele>
        <time>2018-09-17T14:10:17Z</time>
      </trkpt>
      <trkpt lat="47.64325" lon="6.17799">
        <ele>231.66</ele>
        <time>2018-09-17T14:10:18Z</time>
      </trkpt>
      <trkpt lat="47.64334" lon="6.17803">
        <ele>231.65</ele>
        <time>2018-09-17T14:10:20Z</time>
      </trkpt>
      <trkpt lat="47.64342" lon="6.17807">
        <ele>231.64</ele>
        <time>2018-09-17T14:10:22Z</time>
      </trkpt>
      <trkpt lat="47.64349" lon="6.17812">
        <ele>231.63</ele>
        <time>2018-09-17T14:10:24Z</time>
      </trkpt>
      <trkpt lat="47.64354" lon="6.17818">
        <ele>231.63</ele>
        <time>2018-09-17T14:10:26Z</time>
      </trkpt>
      <trkpt lat="47.64354" lon="6.17828">
        <ele>231.63</ele>
        <time>2018-09-17T14:10:28Z</time>
      </trkpt>
      <trkpt lat="47.64353" lon="6.17838">
        <ele>231.63</ele>
        <time>2018-09-17T14:10:30Z</time>
      </trkpt>
      <trkpt lat="47.64355" lon="6.17848">
        <ele>231.64</ele>
        <time>2018-09-17T14:10:32Z</time>
      </trkpt>
      <trkpt lat="47.64359" lon="6.17856">
        <ele>231.64</ele>
        <time>2018-09-17T14:10:34Z</time>
      </trkpt>
      <trkpt lat="47.64365" lon="6.17863">
        <ele>231.64</ele>
        <time>2018-09-17T14:10:36Z</time>
      </trkpt>
      <trkpt lat="47.6437" lon="6.17871">
        <ele>231.64</ele>
        <time>2018-09-17T14:10:38Z</time>
      </trkpt>
      <trkpt lat="47.64375" lon="6.17878">
        <ele>231.64</ele>
        <time>2018-09-17T14:10:40Z</time>
      </trkpt>
      <trkpt lat="47.6438" lon="6.17886">
        <ele>231.65</ele>
        <time>2018-09-17T14:10:42Z</time>
      </trkpt>
      <trkpt lat="47.64385" lon="6.17894">
        <ele>231.65</ele>
        <time>2018-09-17T14:10:44Z</time>
      </trkpt>
      <trkpt lat="47.6439" lon="6.17902">
        <ele>231.65</ele>
        <time>2018-09-17T14:10:46Z</time>
      </trkpt>
      <trkpt lat="47.64394" lon="6.1791">
        <ele>231.66</ele>
        <time>2018-09-17T14:10:48Z</time>
      </trkpt>
      <trkpt lat="47.644" lon="6.1792">
        <ele>231.67</ele>
        <time>2018-09-17T14:10:50Z</time>
      </trkpt>
      <trkpt lat="47.64404" lon="6.17928">
        <ele>231.67</ele>
        <time>2018-09-17T14:10:52Z</time>
      </trkpt>
      <trkpt lat="47.6441" lon="6.17935">
        <ele>231.67</ele>
        <time>2018-09-17T14:10:54Z</time>
      </trkpt>
      <trkpt lat="47.64415" lon="6.1794">
        <ele>231.67</ele>
        <time>2018-09-17T14:10:56Z</time>
      </trkpt>
      <trkpt lat="47.64419" lon="6.17945">
        <ele>231.67</ele>
        <time>2018-09-17T14:10:58Z</time>
      </trkpt>
      <trkpt lat="47.64422" lon="6.1795">
        <ele>231.67</ele>
        <time>2018-09-17T14:11:00Z</time>
      </trkpt>
      <trkpt lat="47.64426" lon="6.17957">
        <ele>231.67</ele>
        <time>2018-09-17T14:11:02Z</time>
      </trkpt>
      <trkpt lat="47.6443" lon="6.17964">
        <ele>231.66</ele>
        <time>2018-09-17T14:11:04Z</time>
      </trkpt>
      <trkpt lat="47.64435" lon="6.17972">
        <ele>231.64</ele>
        <time>2018-09-17T14:11:06Z</time>
      </trkpt>
      <trkpt lat="47.64441" lon="6.17983">
        <ele>231.63</ele>
        <time>2018-09-17T14:11:07Z</time>
      </trkpt>
      <trkpt lat="47.64444" lon="6.1799">
        <ele>231.62</ele>
        <time>2018-09-17T14:11:08Z</time>
      </trkpt>
      <trkpt lat="47.64447" lon="6.17996">
        <ele>231.6</ele>
        <time>2018-09-17T14:11:09Z</time>
      </trkpt>
      <trkpt lat="47.6445" lon="6.18002">
        <ele>231.59</ele>
        <time>2018-09-17T14:11:10Z</time>
      </trkpt>
      <trkpt lat="47.64453" lon="6.18008">
        <ele>231.58</ele>
        <time>2018-09-17T14:11:11Z</time>
      </trkpt>
      <trkpt lat="47.64457" lon="6.18013">
        <ele>231.57</ele>
        <time>2018-09-17T14:11:12Z</time>
      </trkpt>
      <trkpt lat="47.6446" lon="6.18018">
        <ele>231.56</ele>
        <time>2018-09-17T14:11:13Z</time>
      </trkpt>
      <trkpt lat="47.64466" lon="6.18025">
        <ele>231.55</ele>
        <time>2018-09-17T14:11:15Z</time>
      </trkpt>
      <trkpt lat="47.64472" lon="6.18031">
        <ele>231.55</ele>
        <time>2018-09-17T14:11:17Z</time>
      </trkpt>
      <trkpt lat="47.64478" lon="6.18035">
        <ele>231.55</ele>
        <time>2018-09-17T14:11:19Z</time>
      </trkpt>
      <trkpt lat="47.64482" lon="6.1804">
        <ele>231.54</ele>
        <time>2018-09-17T14:11:21Z</time>
      </trkpt>
      <trkpt lat="47.64488" lon="6.18044">
        <ele>231.54</ele>
        <time>2018-09-17T14:11:23Z</time>
      </trkpt>
      <trkpt lat="47.64495" lon="6.18048">
        <ele>231.54</ele>
        <time>2018-09-17T14:11:26Z</time>
      </trkpt>
      <trkpt lat="47.645" lon="6.1805">
        <ele>231.53</ele>
        <time>2018-09-17T14:11:28Z</time>
      </trkpt>
      <trkpt lat="47.64504" lon="6.18055">
        <ele>231.53</ele>
        <time>2018-09-17T14:11:30Z</time>
      </trkpt>
      <trkpt lat="47.64505" lon="6.18062">
        <ele>231.53</ele>
        <time>2018-09-17T14:11:32Z</time>
      </trkpt>
      <trkpt lat="47.64504" lon="6.18069">
        <ele>231.51</ele>
        <time>2018-09-17T14:11:34Z</time>
      </trkpt>
      <trkpt lat="47.64501" lon="6.18081">
        <ele>231.48</ele>
        <time>2018-09-17T14:11:36Z</time>
      </trkpt>
      <trkpt lat="47.64498" lon="6.18099">
        <ele>231.46</ele>
        <time>2018-09-17T14:11:37Z</time>
      </trkpt>
      <trkpt lat="47.64496" lon="6.18108">
        <ele>231.45</ele>
        <time>2018-09-17T14:11:38Z</time>
      </trkpt>
      <trkpt lat="47.64494" lon="6.18117">
        <ele>231.44</ele>
        <time>2018-09-17T14:11:39Z</time>
      </trkpt>
      <trkpt lat="47.64493" lon="6.18126">
        <ele>231.43</ele>
        <time>2018-09-17T14:11:40Z</time>
      </trkpt>
      <trkpt lat="47.64492" lon="6.18134">
        <ele>231.42</ele>
        <time>2018-09-17T14:11:41Z</time>
      </trkpt>
      <trkpt lat="47.64491" lon="6.18142">
        <ele>231.42</ele>
        <time>2018-09-17T14:11:42Z</time>
      </trkpt>
      <trkpt lat="47.64491" lon="6.1815">
        <ele>231.41</ele>
        <time>2018-09-17T14:11:43Z</time>
      </trkpt>
      <trkpt lat="47.64492" lon="6.18158">
        <ele>231.4</ele>
        <time>2018-09-17T14:11:44Z</time>
      </trkpt>
      <trkpt lat="47.64494" lon="6.18165">
        <ele>231.4</ele>
        <time>2018-09-17T14:11:45Z</time>
      </trkpt>
      <trkpt lat="47.64496" lon="6.18173">
        <ele>231.39</ele>
        <time>2018-09-17T14:11:46Z</time>
      </trkpt>
      <trkpt lat="47.64497" lon="6.1818">
        <ele>231.39</ele>
        <time>2018-09-17T14:11:47Z</time>
      </trkpt>
      <trkpt lat="47.64498" lon="6.18188">
        <ele>231.38</ele>
        <time>2018-09-17T14:11:48Z</time>
      </trkpt>
      <trkpt lat="47.64496" lon="6.18201">
        <ele>231.36</ele>
        <time>2018-09-17T14:11:50Z</time>
      </trkpt>
      <trkpt lat="47.64493" lon="6.18212">
        <ele>231.35</ele>
        <time>2018-09-17T14:11:52Z</time>
      </trkpt>
      <trkpt lat="47.6449" lon="6.18222">
        <ele>231.35</ele>
        <time>2018-09-17T14:11:54Z</time>
      </trkpt>
      <trkpt lat="47.64485" lon="6.18233">
        <ele>231.35</ele>
        <time>2018-09-17T14:11:56Z</time>
      </trkpt>
      <trkpt lat="47.64483" lon="6.18239">
        <ele>231.35</ele>
        <time>2018-09-17T14:11:57Z</time>
      </trkpt>
      <trkpt lat="47.6448" lon="6.18244">
        <ele>231.35</ele>
        <time>2018-09-17T14:11:58Z</time>
      </trkpt>
      <trkpt lat="47.64475" lon="6.18255">
        <ele>231.35</ele>
        <time>2018-09-17T14:12:00Z</time>
      </trkpt>
      <trkpt lat="47.6447" lon="6.18262">
        <ele>231.35</ele>
        <time>2018-09-17T14:12:02Z</time>
      </trkpt>
      <trkpt lat="47.64465" lon="6.1827">
        <ele>231.35</ele>
        <time>2018-09-17T14:12:04Z</time>
      </trkpt>
      <trkpt lat="47.6446" lon="6.18276">
        <ele>231.35</ele>
        <time>2018-09-17T14:12:06Z</time>
      </trkpt>
      <trkpt lat="47.64455" lon="6.18283">
        <ele>231.34</ele>
        <time>2018-09-17T14:12:08Z</time>
      </trkpt>
      <trkpt lat="47.64449" lon="6.18291">
        <ele>231.32</ele>
        <time>2018-09-17T14:12:10Z</time>
      </trkpt>
      <trkpt lat="47.64444" lon="6.18297">
        <ele>231.31</ele>
        <time>2018-09-17T14:12:12Z</time>
      </trkpt>
      <trkpt lat="47.64439" lon="6.18301">
        <ele>231.31</ele>
        <time>2018-09-17T14:12:15Z</time>
      </trkpt>
      <trkpt lat="47.64439" lon="6.18308">
        <ele>231.31</ele>
        <time>2018-09-17T14:12:18Z</time>
      </trkpt>
      <trkpt lat="47.64439" lon="6.18315">
        <ele>231.31</ele>
        <time>2018-09-17T14:12:21Z</time>
      </trkpt>
      <trkpt lat="47.64437" lon="6.18322">
        <ele>231.31</ele>
        <time>2018-09-17T14:12:26Z</time>
      </trkpt>
      <trkpt lat="47.64433" lon="6.18317">
        <ele>231.32</ele>
        <time>2018-09-17T14:12:46Z</time>
      </trkpt>
      <trkpt lat="47.64435" lon="6.18323">
        <ele>-49.54</ele>
        <time>2018-09-17T14:17:02Z</time>
      </trkpt>
      <trkpt lat="47.6443" lon="6.18322">
        <ele>234.67</ele>
        <time>2018-09-17T14:25:45Z</time>
      </trkpt>
      <trkpt lat="47.64435" lon="6.18325">
        <ele>234.84</ele>
        <time>2018-09-17T14:26:06Z</time>
      </trkpt>
      <trkpt lat="47.64439" lon="6.18326">
        <ele>234.94</ele>
        <time>2018-09-17T14:26:19Z</time>
      </trkpt>
      <trkpt lat="47.64436" lon="6.18322">
        <ele>234.51</ele>
        <time>2018-09-17T14:28:55Z</time>
      </trkpt>
      <trkpt lat="47.64432" lon="6.18319">
        <ele>234.23</ele>
        <time>2018-09-17T14:30:41Z</time>
      </trkpt>
      <trkpt lat="47.64428" lon="6.18322">
        <ele>234.21</ele>
        <time>2018-09-17T14:32:29Z</time>
      </trkpt>
      <trkpt lat="47.64423" lon="6.18321">
        <ele>234.53</ele>
        <time>2018-09-17T14:33:58Z</time>
      </trkpt>
      <trkpt lat="47.64421" lon="6.18316">
        <ele>234.76</ele>
        <time>2018-09-17T14:34:47Z</time>
      </trkpt>
      <trkpt lat="47.64417" lon="6.18311">
        <ele>234.79</ele>
        <time>2018-09-17T14:35:03Z</time>
      </trkpt>
      <trkpt lat="47.64413" lon="6.18309">
        <ele>234.79</ele>
        <time>2018-09-17T14:35:10Z</time>
      </trkpt>
      <trkpt lat="47.64414" lon="6.18315">
        <ele>234.78</ele>
        <time>2018-09-17T14:35:34Z</time>
      </trkpt>
      <trkpt lat="47.64415" lon="6.18323">
        <ele>234.77</ele>
        <time>2018-09-17T14:35:43Z</time>
      </trkpt>
      <trkpt lat="47.64419" lon="6.18324">
        <ele>234.76</ele>
        <time>2018-09-17T14:35:56Z</time>
      </trkpt>
      <trkpt lat="47.64424" lon="6.18323">
        <ele>234.74</ele>
        <time>2018-09-17T14:36:07Z</time>
      </trkpt>
      <trkpt lat="47.64428" lon="6.18327">
        <ele>234.67</ele>
        <time>2018-09-17T14:36:44Z</time>
      </trkpt>
      <trkpt lat="47.64431" lon="6.18323">
        <ele>234.07</ele>
        <time>2018-09-17T14:38:53Z</time>
      </trkpt>
      <trkpt lat="47.64432" lon="6.1833">
        <ele>233.87</ele>
        <time>2018-09-17T14:42:21Z</time>
      </trkpt>
      <trkpt lat="47.64427" lon="6.18329">
        <ele>233.94</ele>
        <time>2018-09-17T14:42:48Z</time>
      </trkpt>
      <trkpt lat="47.64429" lon="6.18323">
        <ele>234.04</ele>
        <time>2018-09-17T14:43:17Z</time>
      </trkpt>
      <trkpt lat="47.64432" lon="6.18318">
        <ele>234.09</ele>
        <time>2018-09-17T14:43:39Z</time>
      </trkpt>
      <trkpt lat="47.64434" lon="6.18311">
        <ele>234.1</ele>
        <time>2018-09-17T14:43:43Z</time>
      </trkpt>
      <trkpt lat="47.64435" lon="6.18304">
        <ele>234.1</ele>
        <time>2018-09-17T14:43:48Z</time>
      </trkpt>
      <trkpt lat="47.64437" lon="6.1831">
        <ele>234.2</ele>
        <time>2018-09-17T14:44:52Z</time>
      </trkpt>
      <trkpt lat="47.64438" lon="6.18318">
        <ele>234.2</ele>
        <time>2018-09-17T14:44:58Z</time>
      </trkpt>
      <trkpt lat="47.64442" lon="6.18323">
        <ele>234.2</ele>
        <time>2018-09-17T14:45:01Z</time>
      </trkpt>
      <trkpt lat="47.64446" lon="6.18327">
        <ele>234.2</ele>
        <time>2018-09-17T14:45:06Z</time>
      </trkpt>
      <trkpt lat="47.64441" lon="6.18326">
        <ele>234.2</ele>
        <time>2018-09-17T14:45:35Z</time>
      </trkpt>
      <trkpt lat="47.64438" lon="6.18332">
        <ele>234.14</ele>
        <time>2018-09-17T14:46:29Z</time>
      </trkpt>
      <trkpt lat="47.64434" lon="6.18328">
        <ele>234.02</ele>
        <time>2018-09-17T14:47:56Z</time>
      </trkpt>
      <trkpt lat="47.64431" lon="6.18324">
        <ele>234.02</ele>
        <time>2018-09-17T14:48:06Z</time>
      </trkpt>
      <trkpt lat="47.64427" lon="6.1832">
        <ele>234.01</ele>
        <time>2018-09-17T14:48:19Z</time>
      </trkpt>
      <trkpt lat="47.64426" lon="6.18313">
        <ele>233.82</ele>
        <time>2018-09-17T14:51:24Z</time>
      </trkpt>
      <trkpt lat="47.64428" lon="6.18319">
        <ele>233.8</ele>
        <time>2018-09-17T14:51:39Z</time>
      </trkpt>
      <trkpt lat="47.64429" lon="6.18325">
        <ele>233.71</ele>
        <time>2018-09-17T14:52:34Z</time>
      </trkpt>
      <trkpt lat="47.6443" lon="6.18332">
        <ele>233.62</ele>
        <time>2018-09-17T14:53:01Z</time>
      </trkpt>
      <trkpt lat="47.64432" lon="6.18327">
        <ele>233.47</ele>
        <time>2018-09-17T14:53:33Z</time>
      </trkpt>
      <trkpt lat="47.64428" lon="6.18326">
        <ele>233.34</ele>
        <time>2018-09-17T14:54:01Z</time>
      </trkpt>
      <trkpt lat="47.64423" lon="6.18324">
        <ele>233.65</ele>
        <time>2018-09-17T14:57:25Z</time>
      </trkpt>
      <trkpt lat="47.64428" lon="6.18326">
        <ele>234.55</ele>
        <time>2018-09-17T14:59:55Z</time>
      </trkpt>
      <trkpt lat="47.64432" lon="6.18329">
        <ele>234.74</ele>
        <time>2018-09-17T15:00:22Z</time>
      </trkpt>
      <trkpt lat="47.64436" lon="6.18326">
        <ele>234.84</ele>
        <time>2018-09-17T15:00:47Z</time>
      </trkpt>
      <trkpt lat="47.64436" lon="6.18319">
        <ele>235.01</ele>
        <time>2018-09-17T15:01:11Z</time>
      </trkpt>
      <trkpt lat="47.64431" lon="6.18315">
        <ele>235.08</ele>
        <time>2018-09-17T15:01:22Z</time>
      </trkpt>
      <trkpt lat="47.64427" lon="6.18313">
        <ele>235.13</ele>
        <time>2018-09-17T15:01:34Z</time>
      </trkpt>
      <trkpt lat="47.64428" lon="6.18319">
        <ele>235.52</ele>
        <time>2018-09-17T15:03:11Z</time>
      </trkpt>
      <trkpt lat="47.6443" lon="6.18313">
        <ele>235.57</ele>
        <time>2018-09-17T15:03:29Z</time>
      </trkpt>
      <trkpt lat="47.64428" lon="6.1832">
        <ele>235.66</ele>
        <time>2018-09-17T15:03:52Z</time>
      </trkpt>
      <trkpt lat="47.64432" lon="6.18323">
        <ele>235.7</ele>
        <time>2018-09-17T15:04:18Z</time>
      </trkpt>
    </trkseg>
  </trk>
</gpx>